GFSCGP_prec_cloud_003.txt.gz
Cloud_Cover
0 0 0 0 0 0 0 0 0 0 0 0 0 0 0 0 0 0 0 0 0 0 0 0 0 0 1 4 0 0 5 5 5 5 5 5 5 5 5 0 0 0 0 0
0 0 0 0 0 0 0 0 0 0 0 0 0 0 0 0 0 0 0 0 0 0 0 0 0 0 0 5 5 5 5 5 30 47 13 5 3 4 1 8 81 67 52 11
0 0 0 0 0 0 0 0 0 0 0 0 0 0 0 0 0 0 0 0 0 0 0 0 0 0 4 5 5 5 5 5 5 5 4 5 5 26 81 46 8 5 5 27
0 0 0 0 0 0 0 0 0 0 0 0 0 0 0 0 0 0 0 0 0 0 0 0 0 1 5 5 5 5 5 5 5 50 65 37 58 42 6 5 10 10 5 5
0 0 0 0 0 0 0 0 0 0 0 0 0 0 0 0 0 3 5 5 2 5 5 5 5 5 5 5 5 7 42 81 88 76 47 5 5 5 5 5 5 5 0 0
4 4 0 0 0 0 0 0 0 0 0 0 0 0 0 0 4 13 5 5 5 5 5 5 5 5 5 33 61 78 100 99 79 23 5 5 5 5 5 5 5 5 5 5
0 0 2 0 0 0 0 0 0 0 0 0 0 0 0 0 3 4 0 2 0 5 5 5 5 5 23 76 100 99 100 51 14 44 98 77 23 5 7 22 5 5 5 4
0 0 0 0 0 0 0 0 0 4 5 5 5 0 0 0 0 5 5 0 3 5 34 67 68 87 100 100 97 83 36 38 79 100 100 44 69 78 52 39 5 18 5 5
0 0 0 0 0 0 0 0 0 2 5 5 0 0 0 0 0 4 5 5 23 100 86 51 6 62 100 100 100 100 100 100 100 98 97 31 5 16 19 75 36 8 7 2
0 0 0 0 0 0 0 0 0 2 2 1 0 0 0 5 5 5 5 5 17 8 26 24 82 100 100 97 100 100 91 95 72 32 29 74 100 88 58 90 46 5 4 2
0 0 0 0 0 0 2 4 1 2 5 5 47 16 3 8 5 22 5 5 8 55 98 97 61 93 93 80 36 14 22 24 68 100 100 100 98 85 99 6 5 5 4 5
0 0 0 0 0 0 0 4 1 5 5 2 13 14 72 5 5 5 35 45 100 100 75 27 6 12 8 5 10 21 7 99 100 100 100 82 80 93 5 5 5 5 9 78
0 0 0 0 0 0 0 0 5 5 39 87 90 89 11 18 96 81 97 100 100 49 98 65 42 5 5 5 23 91 100 100 100 100 79 68 92 58 9 26 26 41 100 100
0 0 0 0 0 0 0 0 5 4 85 46 6 98 74 70 54 54 99 65 96 75 49 6 5 5 66 100 100 100 100 100 100 100 99 48 8 62 74 91 90 100 100 100
4 1 0 4 4 4 4 2 5 5 5 42 100 53 5 61 93 64 6 5 5 5 25 79 92 100 100 100 100 100 100 100 100 100 98 95 37 100 100 100 100 100 100 100
4 5 5 5 4 4 5 2 5 5 5 30 14 5 5 5 5 5 8 48 77 88 92 97 100 100 100 100 100 100 100 70 66 100 100 100 30 49 5 5 6 87 100 100
5 5 52 100 51 5 34 5 5 5 5 5 5 5 5 5 41 35 93 84 75 100 100 100 100 100 100 100 96 98 94 96 95 87 95 46 14 5 5 5 5 5 5 5
98 6 63 66 22 37 12 5 5 5 7 5 5 5 46 59 82 88 80 100 100 100 100 100 100 100 99 22 10 49 98 73 68 95 24 28 61 30 5 5 5 2 5 5
1 58 72 91 94 8 1 5 5 5 5 15 5 5 44 68 99 100 100 100 100 100 100 100 100 100 68 85 80 100 100 100 46 53 100 100 88 61 5 5 0 5 5 5
12 6 15 91 98 83 0 5 5 10 63 59 46 87 100 97 100 100 100 100 100 100 100 100 100 100 97 96 73 8 25 27 90 100 100 100 100 58 5 3 0 2 4 4
84 97 100 100 100 10 5 6 72 97 92 100 100 99 100 100 100 100 100 100 100 100 94 75 97 100 100 84 63 5 6 18 63 92 91 86 40 24 5 3 0 0 5 5
5 87 41 82 93 57 62 100 100 94 100 100 75 94 100 100 100 100 100 99 70 87 81 100 98 100 92 52 7 3 0 4 5 5 56 75 55 5 5 5 5 5 5 6
31 9 96 100 33 76 92 100 90 100 100 100 100 100 99 82 46 51 46 97 78 89 81 94 69 46 65 12 5 5 5 5 5 5 65 64 5 5 4 12 5 53 83 97
5 30 47 96 59 84 98 88 100 99 83 85 100 97 81 5 34 100 33 68 9 13 5 5 36 37 5 5 5 46 19 52 20 5 5 5 5 5 7 89 15 73 100 100
88 100 48 90 48 56 99 100 100 98 100 94 23 27 12 90 96 99 66 5 5 5 5 5 3 3 5 21 99 100 100 100 87 36 5 5 5 6 78 22 5 43 73 64
97 85 100 95 100 98 100 100 100 100 97 96 100 71 100 45 13 14 5 8 5 5 5 5 4 5 44 100 100 100 100 90 77 55 5 5 5 50 40 5 5 8 5 5

GFSCGP_prec_cloud_006.txt.gz
Cloud_Cover
0 0 0 0 0 0 0 0 0 0 0 0 0 0 0 0 0 0 0 0 0 0 0 0 0 0 0 0 0 5 5 5 5 80 83 75 65 5 5 5 4 5 5 4
0 0 0 0 0 0 0 0 0 0 0 0 0 0 0 0 0 0 0 0 0 0 0 0 0 0 0 3 5 5 25 80 92 99 94 99 36 5 5 5 5 5 7 9
0 0 0 0 0 0 0 0 0 0 0 0 0 0 0 0 0 0 0 0 0 0 0 0 1 0 2 5 30 97 100 100 100 87 90 73 62 36 5 5 5 23 80 9
0 0 0 0 0 0 0 0 0 0 0 0 0 0 0 0 0 0 0 0 0 0 0 5 3 5 5 59 100 100 98 49 12 99 67 73 22 21 37 84 86 60 60 5
0 0 0 0 0 0 0 0 0 0 0 0 0 0 0 0 0 0 0 5 0 0 0 0 5 5 15 93 60 21 38 79 89 68 73 30 46 85 86 84 8 21 31 2
0 0 0 0 0 0 0 0 0 0 0 0 0 0 3 0 0 1 5 0 0 0 0 4 5 6 24 28 31 84 87 72 65 83 38 62 35 82 100 63 35 11 5 5
0 0 0 0 0 0 0 0 0 2 1 2 0 0 0 0 0 5 1 0 0 5 5 5 5 5 16 28 80 92 100 90 94 100 98 91 100 98 32 35 10 5 54 100
0 0 0 0 0 0 0 0 0 0 0 0 0 0 3 0 3 2 0 1 5 5 5 5 5 5 55 62 75 22 98 99 96 82 89 81 18 7 5 26 91 100 100 100
0 0 0 0 0 0 0 0 0 0 2 3 0 0 0 0 0 4 4 4 5 5 5 5 5 68 5 6 31 67 20 43 48 30 13 60 78 92 100 100 100 100 100 36
0 0 0 0 0 0 0 0 3 0 16 1 0 0 5 2 5 5 5 5 5 5 5 5 22 64 98 62 6 5 14 28 24 5 7 36 17 23 82 100 100 35 6 41
0 0 0 0 0 0 4 3 0 0 0 1 1 0 0 4 5 5 5 5 5 12 51 98 56 35 10 5 5 5 5 5 29 95 100 100 100 100 100 100 45 31 49 36
0 0 0 0 0 0 0 0 0 5 4 27 4 1 5 53 10 5 5 5 47 100 94 73 41 5 5 5 5 5 37 100 100 100 100 100 100 100 100 52 74 100 98 100
0 0 0 0 0 0 4 2 0 1 5 5 79 40 6 9 26 6 77 94 92 79 48 6 18 12 18 84 85 100 100 100 100 100 100 100 100 61 32 89 94 98 100 99
0 0 0 0 3 0 0 2 5 12 10 20 17 75 6 60 37 84 60 27 50 82 98 84 90 87 93 100 100 100 100 100 100 100 100 77 18 67 100 66 62 75 90 100
0 0 5 5 5 5 5 4 4 3 5 61 20 9 31 5 53 8 5 80 98 76 68 74 91 86 100 100 100 100 100 100 91 71 62 5 5 10 87 49 20 13 6 5
0 0 4 5 5 5 0 3 5 3 3 5 5 17 5 5 8 39 65 100 86 74 82 100 99 100 100 100 100 100 100 100 92 5 5 5 5 45 23 6 6 15 5 5
1 0 7 47 14 5 14 5 5 5 5 5 5 35 5 9 28 84 64 20 99 100 100 99 100 100 100 100 100 100 59 6 5 5 45 89 100 60 58 68 100 99 14 5
66 5 70 86 84 27 5 5 53 34 5 5 18 39 5 42 100 94 27 98 100 100 100 100 100 94 100 99 100 36 5 5 5 10 88 100 99 98 100 100 84 68 19 5
4 29 73 96 65 7 5 5 5 5 5 5 6 14 30 34 87 96 100 100 100 100 99 92 100 96 98 19 5 43 5 5 29 88 96 100 100 71 14 52 68 5 5 5
8 1 21 88 80 87 5 5 30 23 87 83 93 96 77 96 100 100 100 100 78 25 80 17 12 30 5 10 49 78 88 88 6 5 48 10 5 5 56 100 30 5 10 89
65 96 94 100 91 61 5 5 36 82 93 66 96 100 100 100 100 100 94 60 5 5 24 81 91 25 5 5 6 69 94 33 23 12 10 15 8 26 100 61 5 69 98 100
12 8 75 86 100 84 45 100 97 37 7 100 77 83 100 100 99 89 14 5 23 67 10 3 0 5 0 5 5 12 69 94 88 100 100 99 87 84 58 5 24 100 100 100
9 7 28 24 5 89 100 97 8 20 91 100 100 100 91 88 10 7 5 5 5 4 4 5 5 4 0 5 62 70 7 82 72 98 100 100 100 84 50 63 96 100 100 100
29 10 6 66 5 68 90 52 38 81 92 100 99 98 47 5 7 5 5 4 5 5 9 60 27 0 2 5 38 100 97 92 100 100 100 100 100 89 50 96 100 100 100 100
11 55 15 71 89 82 34 63 72 100 100 100 96 52 5 6 14 5 4 5 5 41 59 51 2 5 5 5 64 100 91 100 100 100 100 100 100 70 85 98 90 89 98 68
32 14 100 98 94 89 95 97 100 99 69 45 7 20 5 1 4 5 6 62 8 17 5 2 5 5 5 80 98 100 100 100 100 100 100 100 70 90 96 94 98 94 22 5

GFSCGP_prec_cloud_012.txt.gz
Cloud_Cover
0 24 46 0 3 5 0 1 0 3 5 5 0 0 0 0 0 0 0 0 0 10 3 16 7 5 0 0 0 0 5 75 42 5 5 72 84 100 83 95 34 13 31 65
6 5 5 5 5 2 5 4 2 0 0 0 0 1 0 0 0 0 0 0 0 0 0 0 0 0 0 0 0 2 11 61 79 23 66 94 100 77 93 70 60 58 5 10
2 1 0 0 0 0 0 0 0 0 0 0 0 17 0 0 0 0 0 0 0 0 0 0 0 0 0 0 5 76 100 100 100 52 25 87 79 86 77 84 100 94 87 100
0 0 0 0 0 0 0 0 0 0 0 21 4 74 100 5 1 0 0 0 0 0 0 0 0 0 4 78 100 100 89 66 78 100 29 56 16 87 100 32 10 5 5 20
0 0 0 0 0 0 0 0 0 0 0 0 3 0 95 6 13 7 0 0 0 0 0 0 0 5 5 54 100 97 58 5 5 5 76 47 43 11 17 17 50 100 100 100
0 0 0 0 0 0 0 0 0 0 0 0 24 18 100 98 77 57 0 0 0 0 0 0 2 5 5 17 8 72 6 5 5 8 82 94 100 100 100 100 100 100 100 100
0 0 0 0 1 0 0 5 27 31 40 4 46 13 2 6 57 24 5 5 2 0 0 16 14 23 5 5 7 5 54 47 75 63 97 100 100 100 100 100 100 100 100 100
53 9 0 0 0 0 0 0 0 1 7 48 22 1 8 2 1 4 0 0 5 39 5 5 2 5 5 26 11 12 84 100 100 100 75 86 100 100 100 100 100 100 100 100
2 2 0 0 0 0 1 1 0 0 0 0 0 99 95 6 5 2 0 1 82 74 100 100 94 100 65 56 16 94 95 100 100 100 100 64 72 100 100 100 100 100 98 82
0 2 0 0 0 0 0 0 0 37 3 4 34 62 81 61 100 100 98 99 57 5 26 97 84 14 53 58 48 100 100 100 100 100 100 100 100 100 100 100 100 100 64 38
0 0 0 0 0 0 0 23 1 0 0 1 27 67 5 39 23 18 5 22 74 5 41 6 19 60 89 100 100 100 100 100 100 100 100 100 94 36 8 5 5 5 4 0
0 0 0 0 0 0 0 0 5 5 5 5 4 4 3 3 5 59 52 18 6 5 5 5 99 94 94 99 61 6 9 98 99 45 12 6 40 74 5 5 5 3 5 5
0 0 0 0 2 1 0 3 5 5 3 3 32 5 99 100 99 97 63 77 18 42 50 20 5 56 5 5 13 99 92 9 25 17 5 5 5 5 5 2 38 5 5 11
0 0 0 0 4 5 5 5 5 5 5 7 3 8 5 88 100 75 24 6 5 5 5 36 5 5 6 5 27 67 57 56 79 98 51 5 5 5 0 5 4 5 5 5
0 0 0 0 0 0 0 1 4 5 5 71 9 100 96 85 7 70 5 5 5 33 25 15 8 17 5 8 16 67 86 90 24 5 100 89 79 42 5 5 2 22 5 5
0 5 4 0 0 0 0 0 0 1 5 64 22 5 100 90 5 5 5 9 16 5 5 5 5 5 9 32 88 84 34 100 7 6 100 53 6 100 95 100 5 5 78 61
0 5 5 4 2 0 5 5 5 5 58 5 68 22 92 19 5 5 99 41 6 47 56 5 5 46 96 70 39 32 75 75 4 2 90 16 82 100 53 100 76 25 8 27
0 0 31 11 31 17 5 5 5 5 35 70 94 96 48 24 55 24 67 24 51 52 7 5 62 46 90 27 5 5 5 2 2 95 86 12 61 6 100 100 100 5 38 94
4 0 35 62 5 5 5 6 5 5 0 20 13 6 5 49 58 34 38 16 50 52 5 15 28 8 5 76 70 5 0 4 58 14 35 5 100 76 100 100 98 12 97 59
5 5 8 82 10 5 0 53 5 50 24 58 8 10 17 17 23 76 5 5 5 6 70 48 5 13 83 11 5 1 5 5 5 5 5 9 99 100 100 83 64 58 97 94
42 81 36 52 99 11 0 5 1 4 11 6 6 5 5 58 72 56 5 17 8 5 5 5 5 5 5 5 1 5 3 5 46 3 5 33 34 100 98 69 12 99 96 68
32 26 73 74 84 33 5 30 13 36 8 63 57 13 5 20 46 41 68 22 6 5 5 2 4 5 4 0 5 45 5 4 1 5 5 5 72 29 6 7 84 95 20 5
3 7 5 4 5 4 68 82 5 5 5 48 96 7 5 5 41 9 5 27 11 5 5 5 5 5 5 85 99 93 5 5 5 5 5 52 30 74 9 5 36 48 5 5
28 100 6 5 2 4 18 96 79 24 82 31 100 100 90 88 6 5 58 5 5 49 5 5 5 5 5 6 64 13 5 5 5 88 93 73 9 7 5 85 85 5 5 5
100 100 94 5 3 28 72 5 5 18 100 100 99 88 91 60 70 24 42 20 11 5 5 5 5 5 5 11 18 5 5 5 70 97 28 5 5 5 5 5 12 43 5 5
100 100 57 5 52 100 92 68 68 51 100 100 100 100 40 46 11 16 5 20 5 5 5 5 5 5 32 14 6 95 66 21 8 22 5 5 5 5 10 5 13 5 5 5

GFSCGP_prec_cloud_015.txt.gz
Cloud_Cover
2 0 0 0 0 5 99 57 5 0 0 0 0 0 0 2 5 5 5 0 0 0 0 0 0 4 5 5 5 4 2 0 7 0 5 63 16 64 29 5 76 83 83 11
1 0 4 5 1 0 42 4 5 0 0 0 0 2 0 0 1 1 0 0 0 0 0 0 0 1 4 5 6 60 36 60 6 5 5 19 64 9 82 90 76 83 56 37
0 2 3 4 5 4 5 2 0 0 0 0 0 0 0 0 0 0 1 0 0 0 0 0 0 0 0 0 4 41 100 99 59 5 25 38 10 5 36 85 61 89 92 92
3 0 0 0 0 0 0 0 0 0 0 0 0 4 0 0 0 0 1 0 0 0 0 0 0 0 0 4 5 5 17 100 81 71 8 5 34 25 62 89 45 50 74 50
0 0 0 0 0 0 0 0 0 0 0 0 0 23 100 40 5 0 6 0 3 5 0 0 0 0 0 0 0 5 5 5 14 4 31 88 94 95 54 84 100 71 7 52
0 0 0 0 0 0 0 0 0 0 0 0 0 16 75 7 79 2 6 98 39 86 0 0 0 0 0 0 4 4 2 0 0 3 4 59 97 98 100 100 100 100 100 100
0 0 0 0 0 0 0 0 2 5 4 4 15 40 99 68 28 80 5 5 5 0 0 0 0 4 3 3 5 5 64 100 71 38 5 5 7 17 36 38 42 96 89 38
2 4 0 0 0 0 0 0 0 1 5 4 5 59 52 15 18 35 91 62 5 5 5 5 5 20 65 100 86 63 100 100 100 100 99 92 87 94 100 100 100 98 28 6
3 0 0 0 0 0 0 0 0 0 0 0 1 5 91 86 96 54 100 100 100 49 98 10 5 5 4 9 13 36 80 88 86 100 99 100 100 100 99 87 21 7 9 4
0 0 0 0 0 0 0 0 0 0 2 1 1 28 5 47 13 57 100 100 93 31 9 5 5 5 5 5 5 5 6 17 56 23 19 37 88 96 37 5 5 3 1 0
0 0 0 0 0 0 0 0 0 0 0 5 4 1 5 5 26 51 5 31 5 5 43 55 18 5 5 5 5 5 19 20 17 16 6 20 5 5 5 5 0 0 0 0
0 0 0 0 0 0 0 0 2 0 2 5 5 1 0 3 35 35 95 59 5 5 43 5 3 5 5 20 5 5 5 5 5 5 5 5 22 41 77 5 5 72 1 18
0 0 0 0 0 0 0 0 0 4 6 0 1 0 4 22 80 92 84 13 5 34 5 5 9 80 76 8 5 5 5 5 9 63 95 39 53 6 76 100 94 100 81 100
0 0 0 0 0 0 0 0 0 0 2 4 1 3 0 78 7 4 8 9 5 5 4 5 5 5 5 5 5 7 24 82 77 34 40 27 16 5 5 48 93 100 100 100
0 0 0 0 0 0 0 0 0 0 0 0 2 58 61 5 28 98 49 5 5 24 5 5 5 5 5 7 25 8 11 5 5 1 5 5 5 34 66 46 50 100 100 100
0 0 0 0 0 1 4 0 0 0 0 0 4 5 45 5 5 5 5 5 5 5 5 5 5 5 5 5 5 5 5 5 3 0 0 0 54 83 85 86 100 100 100 100
0 0 5 14 2 1 0 0 0 0 0 1 1 2 0 1 1 5 53 74 43 27 37 5 5 5 5 4 5 4 5 5 5 5 0 0 5 6 81 64 100 100 100 95
5 6 58 8 5 5 0 0 0 0 0 0 5 5 5 4 5 69 80 50 23 8 5 5 5 4 4 5 4 3 5 5 3 0 0 1 4 2 4 49 100 100 100 100
5 16 59 85 5 5 5 5 4 4 2 0 1 0 4 5 36 43 6 5 5 5 5 5 1 2 26 60 6 5 5 1 0 0 0 5 0 5 42 95 100 90 100 100
100 49 5 82 6 5 5 5 5 3 4 0 2 5 5 5 39 14 5 5 5 5 5 5 5 33 5 4 2 5 1 4 0 1 5 1 4 5 8 48 99 100 100 99
53 7 10 91 5 4 0 2 4 2 1 0 4 5 5 5 15 30 5 5 6 20 10 4 5 5 0 3 5 1 5 5 4 5 1 4 4 5 16 90 93 100 91 6
5 31 56 62 39 49 0 1 5 5 3 5 5 5 8 94 86 16 19 51 83 74 5 5 5 5 5 5 0 1 4 4 5 0 2 5 5 21 97 100 100 37 5 5
20 20 97 100 50 16 0 3 5 2 5 39 6 59 100 54 62 95 82 14 33 5 5 5 5 5 5 4 0 2 5 40 2 0 5 5 5 18 73 80 5 5 5 5
100 100 100 63 6 5 5 5 5 5 5 8 60 20 28 100 100 52 93 93 12 5 5 5 5 5 4 0 3 5 8 49 0 2 5 5 5 5 5 5 5 5 5 5
100 100 97 5 5 8 5 5 5 5 17 100 99 40 87 98 98 98 100 100 90 83 5 5 5 4 3 5 5 5 22 5 5 5 5 5 5 5 5 5 5 5 5 5
100 100 100 43 52 93 5 85 33 78 100 97 100 94 99 99 100 100 100 100 75 51 5 5 5 5 5 5 5 5 5 5 35 5 5 5 5 5 92 81 20 5 5 5

GFSCGP_prec_cloud_018.txt.gz
Cloud_Cover
4 1 0 0 0 7 68 5 5 4 0 0 2 0 0 0 0 0 0 0 0 0 1 1 5 0 3 5 5 5 56 18 12 74 69 4 4 37 49 6 21 82 100 53
0 0 0 0 0 11 34 77 0 0 0 0 0 0 0 0 0 0 0 0 0 2 0 0 0 6 100 68 72 1 0 5 61 21 27 22 28 86 98 100 97 78 97 95
0 0 0 0 0 1 24 11 2 0 1 0 0 0 0 0 0 0 0 3 50 97 17 20 5 58 66 3 0 0 1 0 12 66 99 98 100 100 69 18 42 87 100 79
0 0 0 0 3 0 0 5 41 1 0 0 0 0 0 0 0 0 0 0 2 100 54 54 30 8 44 0 0 0 5 24 41 14 21 97 99 100 99 95 8 5 5 18
5 4 1 2 0 0 0 0 0 0 0 0 0 0 0 3 4 0 4 44 100 100 99 100 100 100 78 0 0 0 0 0 1 5 60 67 100 84 49 57 86 100 100 100
0 0 0 0 0 0 0 0 0 0 0 0 0 1 5 3 3 17 73 86 77 68 6 81 98 84 3 0 0 0 0 1 3 5 54 100 100 100 100 100 100 100 100 96
0 0 0 0 0 0 0 0 0 1 0 1 1 4 5 68 30 50 29 8 66 42 5 11 5 6 2 5 5 5 18 17 17 54 20 14 40 83 98 100 93 100 99 89
0 0 0 0 0 0 0 0 0 1 4 5 5 14 6 14 95 100 97 5 5 11 62 70 5 5 0 0 7 33 100 100 98 100 77 32 51 91 100 100 100 100 77 1
0 0 0 0 0 0 0 0 0 0 0 2 0 2 5 54 86 79 43 99 100 82 5 5 5 5 5 6 7 47 28 5 5 5 5 4 5 5 5 2 3 5 0 0
0 0 0 0 0 0 0 0 0 0 0 1 0 4 84 14 83 61 10 4 5 5 16 14 5 11 5 8 5 5 5 20 2 0 2 5 5 4 5 5 3 3 21 8
0 0 0 0 0 0 0 0 0 0 1 2 4 3 0 4 5 3 7 6 72 79 96 99 100 100 100 23 5 5 4 0 3 5 5 4 2 5 5 5 13 80 60 99
0 1 0 0 0 0 0 0 0 0 0 0 4 1 0 2 3 18 96 86 44 40 100 99 90 80 5 0 0 5 5 5 5 5 5 5 5 5 5 5 0 11 55 41
3 2 0 0 0 0 0 0 0 3 1 0 0 0 0 14 81 72 85 62 61 56 44 100 74 5 5 5 5 5 5 5 5 5 5 5 5 5 4 2 2 72 99 100
4 0 0 0 0 0 0 0 5 4 5 3 4 2 0 3 4 0 0 0 5 5 5 5 5 5 5 5 5 6 24 5 5 5 6 5 5 5 5 4 5 31 59 100
1 1 0 0 0 0 5 5 0 0 2 1 0 0 0 0 2 4 4 5 5 7 85 93 77 74 5 31 42 6 5 5 5 57 6 5 68 0 0 3 18 38 76 51
0 0 0 0 0 5 1 0 0 0 0 0 0 0 0 0 3 5 5 5 90 100 100 98 25 5 5 5 6 5 5 5 5 5 5 1 0 0 0 0 5 23 57 100
5 1 1 5 5 5 5 2 1 0 0 0 0 0 0 0 0 0 5 5 96 99 75 5 5 5 6 11 5 5 5 5 5 0 1 2 0 0 0 4 33 68 78 100
5 6 43 5 5 5 5 5 2 1 0 0 0 0 0 1 3 5 5 5 10 5 5 5 5 5 5 5 5 16 5 5 5 5 2 0 0 1 0 5 13 76 55 100
28 8 58 81 16 5 6 5 5 5 41 5 5 0 0 4 4 4 5 5 54 88 7 5 5 5 5 5 5 5 5 5 5 0 0 0 0 5 2 7 66 34 72 10
95 68 12 93 5 5 7 6 30 41 99 39 100 47 5 5 11 6 5 5 62 93 5 14 23 8 39 12 6 5 5 5 2 0 1 5 5 5 5 11 100 96 36 95
13 11 30 79 25 35 6 5 5 55 75 5 5 88 8 99 100 28 10 99 76 26 83 77 70 70 77 13 5 5 4 5 0 5 5 5 5 5 47 98 98 68 76 53
100 100 100 100 100 100 32 5 9 12 51 6 71 100 100 100 95 24 32 93 97 100 92 73 80 65 41 16 5 5 5 1 5 32 14 10 5 5 16 59 37 78 25 73
100 100 100 100 100 100 100 79 42 5 82 100 100 60 100 100 92 94 76 100 100 82 73 82 100 48 5 5 5 5 4 15 94 30 7 5 5 5 5 5 32 61 8 5
100 100 100 93 100 100 26 56 56 54 97 99 19 80 100 100 88 16 66 99 89 90 100 93 31 5 5 5 5 5 6 100 66 5 5 5 5 5 5 5 5 5 5 5
100 100 78 6 78 6 95 86 5 12 99 90 100 100 100 69 14 97 97 91 64 61 88 50 13 6 5 5 5 36 99 100 26 12 23 5 5 5 5 44 100 72 14 5
100 100 81 6 12 8 61 12 5 93 100 100 100 97 92 50 88 88 45 12 30 83 66 65 32 5 5 7 58 100 100 86 100 93 100 48 6 12 5 82 99 99 64 5

GFSCGP_prec_cloud_021.txt.gz
Cloud_Cover
100 94 100 100 96 99 15 4 5 5 5 41 58 31 31 53 95 100 5 5 1 1 0 4 0 2 5 5 100 100 100 100 100 100 97 80 5 43 14 90 100 100 100 100
99 45 36 13 1 0 5 4 4 5 5 5 5 4 0 0 1 1 0 0 1 5 8 88 8 25 38 99 82 55 32 100 99 78 6 10 76 78 100 97 79 95 91 86
68 51 0 1 4 4 0 3 5 4 2 2 2 0 0 0 0 0 0 1 46 30 5 23 98 93 5 5 4 3 2 1 3 5 5 23 25 5 5 34 11 5 5 2
0 0 0 1 5 4 2 1 0 0 0 0 0 3 0 0 0 1 1 0 5 15 68 66 29 5 75 5 5 5 5 5 4 5 44 68 63 12 5 5 5 5 5 19
0 0 0 0 0 0 0 0 0 0 0 0 0 0 0 0 0 1 5 5 26 90 22 9 82 60 99 86 7 10 5 1 1 5 8 99 100 100 75 29 24 100 99 76
0 0 0 0 0 0 0 0 0 0 0 0 0 0 0 0 0 4 29 100 100 92 91 14 28 100 31 84 41 35 13 5 7 5 16 63 91 94 100 100 100 100 100 99
0 0 0 0 0 0 0 0 0 0 0 0 0 0 0 0 2 10 84 38 74 89 12 5 100 100 100 99 32 26 7 100 91 57 38 45 95 100 100 100 100 88 10 5
0 0 0 0 0 0 0 0 0 0 0 0 0 0 0 0 5 13 6 2 3 5 88 100 100 100 97 38 5 5 5 15 16 62 93 88 74 100 72 8 5 5 5 4
0 0 0 0 0 0 0 0 0 0 0 2 0 0 0 0 4 5 4 3 14 99 66 0 0 1 5 5 8 5 5 5 5 1 2 5 5 1 5 5 5 5 1 5
0 0 0 0 0 0 0 0 0 0 0 0 0 0 0 0 2 5 29 100 32 5 2 4 5 5 19 37 46 30 5 5 5 3 4 5 5 5 5 5 2 3 1 54
0 0 0 0 0 0 0 0 0 0 2 2 4 0 0 1 2 5 3 0 2 5 5 24 33 22 5 26 34 51 5 28 5 1 5 5 5 5 5 5 2 14 62 100
0 0 0 0 0 0 0 0 0 0 0 2 4 1 0 0 0 0 3 5 5 5 82 87 93 100 100 100 96 92 100 86 6 5 5 0 4 5 2 2 5 16 4 5
0 0 0 2 4 2 0 0 0 0 0 0 0 0 0 0 0 0 1 3 3 5 5 5 49 93 99 99 82 100 97 13 1 6 6 5 4 1 5 5 0 0 0 0
0 0 5 5 5 5 4 2 4 0 0 0 0 0 0 0 0 0 0 0 0 5 5 5 5 75 95 95 98 13 7 43 54 7 5 5 5 5 4 0 0 0 1 15
5 8 5 3 0 0 0 1 0 0 1 4 3 2 0 0 0 0 0 0 5 5 5 90 77 78 100 98 50 5 10 5 5 5 5 5 5 5 0 0 0 1 70 100
5 3 5 5 2 1 0 0 3 5 5 5 5 5 0 0 0 0 0 1 5 5 74 83 97 100 100 85 5 5 5 5 5 6 6 5 5 0 0 0 0 5 12 40
5 5 7 5 5 5 6 5 5 14 5 5 5 5 5 5 5 5 5 5 10 88 100 100 83 88 95 14 7 5 5 5 5 5 5 5 5 2 0 5 5 16 95 92
16 28 26 18 5 54 29 40 5 12 6 5 5 5 10 48 85 11 34 11 58 100 45 38 25 10 50 7 6 5 36 23 5 5 5 5 5 1 6 39 5 5 27 51
6 5 36 5 14 8 99 88 5 7 55 5 5 5 48 82 69 72 6 27 73 67 80 100 82 62 68 42 74 100 85 39 52 29 5 5 5 10 54 8 12 62 56 68
5 5 5 80 6 9 100 76 10 5 98 100 16 26 100 100 100 93 22 47 61 79 100 100 100 72 47 97 92 73 60 99 97 5 5 4 6 100 88 5 59 54 100 98
6 26 5 92 100 100 100 87 52 85 57 100 100 100 100 100 100 68 91 96 88 100 100 99 64 59 86 99 97 84 100 49 3 0 0 6 100 100 17 5 11 81 87 93
33 59 98 100 100 100 100 98 85 94 35 21 51 100 100 100 85 94 41 95 100 100 86 93 96 100 100 80 63 76 20 4 2 3 5 90 100 77 5 5 5 13 94 96
98 100 100 100 100 100 44 14 100 76 5 60 83 100 100 100 100 100 100 100 100 77 24 26 59 84 35 47 30 5 1 5 5 5 78 100 100 5 5 5 5 5 5 5
100 100 100 100 100 100 17 100 100 90 25 69 100 100 100 100 100 100 100 85 76 7 56 61 79 35 58 27 6 5 5 5 7 99 100 100 70 5 5 5 5 25 97 98
100 100 95 43 93 13 96 100 99 66 58 100 100 100 100 100 100 100 100 98 76 92 89 100 96 72 27 28 5 5 5 7 96 100 100 100 92 78 5 7 93 100 100 87
100 100 6 5 77 78 100 92 22 22 74 74 100 93 94 100 100 100 99 99 100 93 90 98 100 72 13 5 5 5 5 97 100 100 100 100 100 100 43 54 74 98 99 87

GFSCGP_prec_cloud_027.txt.gz
Cloud_Cover
100 98 100 100 100 100 99 100 100 100 100 67 89 100 100 100 100 100 100 100 100 100 98 100 100 100 91 90 85 100 66 100 100 100 100 100 100 100 100 100 100 98 2 0
90 100 100 100 100 93 99 100 100 100 98 93 57 8 5 14 18 8 5 5 7 77 100 91 82 84 47 23 40 68 70 76 100 100 100 80 36 60 100 93 28 0 0 0
87 62 74 97 100 100 85 55 79 91 99 58 25 11 5 8 6 5 22 85 90 89 99 76 69 42 18 5 5 28 27 12 30 70 22 0 0 0 0 0 0 2 5 2
97 100 100 100 100 94 100 100 99 35 3 8 52 71 94 45 6 5 6 21 54 59 33 19 17 5 5 30 5 35 8 22 69 5 3 5 5 45 19 5 0 2 15 4
100 99 100 80 100 85 63 11 4 5 26 35 5 5 5 5 5 5 2 2 0 0 0 0 1 5 32 34 5 5 28 26 25 87 20 14 5 5 2 0 0 0 4 28
66 51 99 96 44 1 0 0 2 5 5 4 3 1 0 0 0 0 0 0 0 0 0 3 5 5 16 5 83 97 96 82 95 84 29 5 5 5 5 5 4 4 1 0
47 95 43 0 0 0 0 2 2 0 0 0 0 0 0 0 0 0 0 0 0 0 5 5 22 57 93 25 20 21 5 22 48 5 5 5 5 35 5 1 2 0 0 0
0 0 0 0 0 0 0 0 0 0 0 0 0 0 0 0 0 0 0 0 0 0 5 5 84 100 90 3 5 53 5 5 30 52 12 12 93 72 5 3 5 0 5 8
0 0 0 0 0 0 0 0 0 0 0 0 0 0 0 0 0 0 0 0 0 0 5 81 69 5 1 0 2 5 5 73 76 83 15 8 32 35 5 5 5 5 21 76
0 0 0 0 0 0 0 0 0 0 0 0 0 0 0 0 0 0 3 0 0 3 5 5 1 4 0 2 5 5 60 97 97 11 6 42 98 17 5 5 8 55 16 5
0 0 0 0 0 0 0 0 0 0 0 0 0 0 0 0 0 1 0 0 0 5 4 0 5 0 5 5 5 7 56 92 8 48 98 69 5 6 12 5 5 5 5 5
0 0 0 0 0 0 0 0 0 0 0 1 0 0 0 0 0 0 5 5 2 0 1 3 2 5 5 51 76 73 98 11 81 100 93 41 16 6 5 5 5 5 5 3
0 0 0 0 0 0 0 0 0 0 0 0 1 1 2 5 5 10 5 5 5 2 5 5 5 15 67 96 72 100 87 91 100 99 29 44 5 5 5 5 5 5 5 5
0 0 0 0 0 0 3 5 5 0 0 0 4 4 13 14 5 6 5 5 5 5 6 10 23 95 100 100 100 99 100 100 93 19 43 5 5 23 72 66 37 25 88 31
0 0 0 0 0 4 41 24 2 5 0 5 5 18 36 8 5 5 5 12 7 5 15 54 13 88 100 100 84 98 100 57 41 7 5 9 80 100 100 100 94 100 23 16
5 5 0 5 5 70 97 22 3 5 2 5 11 20 5 5 5 66 89 17 34 8 5 5 14 100 100 100 100 100 73 5 5 25 37 33 86 100 100 100 100 24 21 27
5 5 6 82 17 98 100 30 5 5 5 5 5 5 5 87 100 48 28 26 63 6 15 49 85 100 100 89 96 100 73 60 59 47 92 100 100 100 100 100 24 14 38 5
20 36 86 89 5 63 99 93 12 4 5 5 5 5 100 61 54 100 96 99 64 5 27 71 99 100 100 99 100 91 84 85 94 100 100 100 100 100 100 41 45 100 16 5
6 5 6 5 5 54 100 99 71 4 6 4 4 97 100 23 91 100 100 84 26 68 62 100 100 100 100 91 92 98 94 100 100 100 100 100 100 35 7 64 90 16 5 5
5 5 5 5 5 82 100 100 16 5 38 64 100 100 100 50 65 81 5 30 100 100 100 100 100 100 100 100 100 100 100 100 100 100 100 100 27 14 100 55 42 4 0 5
27 68 8 6 5 28 40 5 6 7 42 100 100 99 97 63 9 8 12 77 55 100 100 100 100 100 100 100 100 100 100 100 100 100 97 86 65 92 40 63 6 5 5 5
5 29 17 24 20 5 5 5 81 93 85 54 30 5 5 7 21 16 16 95 100 100 100 100 100 100 100 100 100 100 100 100 100 96 96 94 79 5 27 7 5 5 5 5
62 24 5 21 7 4 4 5 13 72 99 48 5 5 21 25 31 28 89 100 100 100 100 100 100 100 100 100 100 100 100 100 100 100 99 100 100 5 5 5 18 38 5 5
94 10 42 5 36 17 96 100 96 16 5 5 5 5 9 36 48 68 90 100 100 100 100 100 100 100 100 100 93 100 100 100 100 100 100 100 14 5 21 71 94 32 5 5
100 100 50 100 100 100 100 73 10 5 5 5 6 49 48 64 46 56 94 100 100 100 100 99 98 100 100 100 100 100 100 100 100 100 100 94 13 7 79 97 73 76 10 5
100 100 100 100 54 5 21 30 5 58 44 63 72 60 78 100 100 100 100 100 100 100 100 100 100 100 100 100 100 100 100 100 100 100 65 5 38 40 100 94 52 23 66 81

GFSCGP_prec_cloud_030.txt.gz
Cloud_Cover
100 100 100 100 100 100 100 100 100 100 100 100 100 100 100 100 100 100 100 100 100 100 100 100 100 32 12 62 98 100 99 100 100 100 100 100 100 100 100 100 100 100 100 100
100 100 100 100 100 100 100 100 100 100 100 98 100 100 100 100 100 100 94 69 96 85 92 47 15 83 88 41 85 67 57 90 18 73 93 97 90 100 100 96 99 100 100 78
100 100 100 100 100 100 100 100 100 100 100 100 100 90 8 5 5 5 22 99 100 100 75 36 75 89 80 97 100 97 53 20 29 90 93 91 63 23 70 45 11 5 3 0
100 100 100 100 100 100 100 100 100 100 92 80 26 91 5 3 1 5 24 82 78 61 87 40 44 52 19 21 92 35 5 5 32 77 70 5 5 5 5 5 5 5 5 4
100 87 71 50 100 100 100 100 100 45 40 26 6 0 1 5 6 46 22 5 1 2 2 4 1 5 5 5 5 5 40 68 28 6 5 5 5 5 5 5 80 87 63 5
100 100 69 9 100 100 100 94 91 28 2 0 3 4 5 5 2 0 3 3 15 0 0 4 4 5 5 5 5 5 5 5 5 5 5 5 5 17 5 28 100 98 18 5
100 46 79 83 83 94 89 12 4 0 0 3 3 0 0 0 0 0 0 0 0 0 0 3 5 5 5 5 5 5 5 5 5 5 6 54 63 72 81 75 71 68 8 5
98 97 100 100 89 3 0 2 0 0 0 0 4 4 0 0 0 0 0 0 0 0 0 2 5 5 5 52 5 1 1 5 5 5 5 56 44 45 93 93 92 0 0 4
88 24 7 0 0 0 0 0 1 4 5 1 0 0 0 0 0 0 0 0 1 5 5 1 5 5 5 5 0 0 5 5 14 30 94 95 97 93 93 45 5 5 27 21
0 0 0 0 0 0 0 3 4 1 0 0 0 0 0 0 0 0 5 5 4 5 1 4 5 5 5 0 2 5 5 7 11 100 100 91 30 81 96 56 42 58 8 5
0 0 3 2 0 0 0 0 0 0 0 0 0 0 0 0 5 5 5 5 5 5 3 5 5 5 5 5 5 5 26 93 91 100 97 51 82 96 79 51 27 5 5 5
0 0 0 0 0 0 0 0 0 0 0 0 0 0 0 2 5 5 5 5 5 5 5 5 5 5 5 6 55 89 67 62 67 96 27 90 95 50 5 5 5 5 5 10
0 0 0 0 0 0 0 0 0 0 5 5 25 0 0 5 4 5 5 5 5 5 5 5 5 5 5 8 92 38 37 63 100 41 94 86 57 9 5 5 5 48 44 8
0 0 0 0 4 2 0 5 5 5 5 5 1 5 2 6 5 11 23 5 5 5 5 5 5 5 5 88 98 56 41 92 80 87 100 65 100 15 5 20 54 6 14 34
0 0 4 5 5 5 5 41 24 9 5 5 2 5 0 98 28 78 24 35 5 5 20 5 5 5 57 97 78 86 96 100 79 98 95 100 38 11 62 49 68 46 52 44
2 5 7 23 5 5 90 92 5 5 5 5 5 5 0 5 14 5 6 5 5 5 5 16 20 5 32 93 100 99 100 93 99 100 100 82 60 65 63 73 9 61 65 61
25 6 5 5 5 61 100 13 6 5 5 4 4 5 5 5 4 8 91 100 20 5 5 5 5 5 83 100 100 100 100 100 100 100 95 88 88 94 76 75 95 56 97 93
38 43 5 5 49 100 100 11 3 0 0 0 1 5 4 0 2 15 20 6 5 5 7 11 19 67 100 100 100 100 100 100 100 100 98 99 99 100 100 100 75 100 100 100
41 8 5 68 5 93 100 57 8 4 5 0 2 5 5 3 5 12 34 5 5 5 51 35 48 89 100 100 100 100 100 100 100 100 100 100 100 100 100 100 100 100 100 100
5 5 5 6 67 41 74 7 5 5 5 98 37 6 5 5 8 34 6 5 5 7 52 46 99 100 100 100 100 100 100 100 100 100 100 100 100 98 100 100 100 56 98 71
27 44 40 7 35 87 30 5 15 33 57 72 10 76 100 100 100 21 5 5 18 63 100 100 97 100 72 100 100 100 100 100 100 100 100 100 100 100 100 100 100 36 90 85
12 8 50 6 64 52 5 40 75 54 19 58 100 63 100 59 15 5 5 33 84 100 83 99 99 100 100 100 100 100 100 100 100 100 100 100 100 100 100 100 100 100 94 88
6 7 5 5 5 5 5 5 5 5 5 96 100 27 5 5 5 25 79 100 100 86 69 100 100 100 100 100 100 100 100 100 100 100 100 100 100 100 100 100 100 100 100 100
51 5 5 5 6 4 3 1 4 95 100 60 5 5 5 6 39 99 100 95 57 75 100 100 100 100 100 100 100 100 100 100 100 100 100 100 100 100 100 100 100 100 100 100
54 5 2 5 5 8 44 69 100 100 28 5 5 6 42 70 100 96 35 32 89 100 100 100 100 100 100 100 100 100 100 100 100 100 100 100 100 100 100 86 100 100 100 95
100 100 100 100 100 97 88 89 56 6 29 5 5 6 33 71 26 36 81 99 100 100 100 100 100 100 100 100 100 100 100 100 100 100 100 100 100 76 80 100 100 99 84 25

GFSCGP_prec_cloud_033.txt.gz
Cloud_Cover
84 100 100 100 100 100 100 100 100 100 100 95 100 100 100 100 100 100 100 100 100 100 100 100 100 100 100 100 100 100 100 84 32 77 76 95 44 82 100 100 40 57 68 100
77 100 100 100 100 100 100 100 100 100 100 100 95 100 100 100 100 100 100 100 100 100 100 100 100 100 100 97 100 100 97 73 97 83 22 5 13 46 76 4 49 62 62 2
100 100 100 100 100 100 100 100 100 100 100 100 100 100 100 100 100 100 100 100 100 100 100 100 100 81 61 97 100 100 100 41 98 78 24 47 80 57 5 14 61 71 5 5
100 100 100 100 100 100 100 100 100 100 100 100 100 100 100 100 91 94 100 100 100 65 13 21 24 70 100 100 100 80 56 55 9 5 5 5 5 82 38 5 14 5 5 15
100 100 100 100 100 100 100 100 100 100 100 100 100 94 100 85 37 63 23 5 5 12 64 63 24 52 64 4 7 78 14 5 5 5 5 5 5 5 5 10 17 16 35 7
99 86 100 100 100 95 100 90 61 91 100 100 83 100 100 73 29 52 16 37 14 4 2 26 16 2 0 2 5 25 5 6 2 5 5 5 5 5 10 76 5 47 56 38
100 100 100 90 89 100 99 90 100 100 100 32 44 1 7 88 14 4 1 0 0 0 3 0 0 0 0 4 5 7 5 5 1 2 5 5 5 5 44 36 76 70 73 42
100 100 100 100 84 85 100 100 100 90 100 46 14 5 22 4 2 0 0 0 1 0 0 0 0 0 3 5 5 5 5 0 0 2 5 21 50 25 59 94 60 68 95 100
100 100 90 19 100 100 100 86 3 0 5 5 4 11 2 0 0 0 0 0 0 0 0 0 0 0 1 5 5 5 6 21 32 5 5 5 5 43 100 60 14 82 59 5
97 100 100 100 100 95 20 3 5 5 4 0 86 1 72 0 0 0 0 0 0 0 0 0 1 5 5 5 10 14 27 40 5 5 5 9 65 100 62 5 42 99 28 7
17 43 91 66 5 16 5 0 0 1 1 0 1 15 0 0 0 0 0 5 1 1 5 5 5 5 5 15 19 5 5 5 5 5 10 32 90 100 44 14 97 60 5 5
2 4 5 2 2 5 5 4 5 0 0 0 0 0 0 0 0 0 5 5 5 5 5 15 13 5 5 25 15 5 5 5 42 92 62 94 100 37 15 62 87 5 5 5
0 0 4 6 0 0 0 0 0 0 0 0 25 0 0 0 0 0 1 5 5 5 5 6 29 23 18 11 5 5 10 40 36 100 64 100 100 99 74 29 15 6 5 5
0 0 5 5 70 10 0 0 0 1 0 0 0 0 0 0 0 0 2 5 5 5 2 7 28 30 5 5 5 39 68 99 98 88 91 100 85 53 57 88 64 9 6 9
0 0 1 0 0 0 0 2 5 5 1 5 0 5 0 4 29 8 5 4 3 5 2 23 100 37 5 13 18 7 22 95 100 99 100 91 96 98 94 95 99 45 77 92
0 0 0 0 0 0 5 5 5 0 5 5 5 10 0 4 5 5 5 5 5 0 5 71 96 8 5 9 5 43 54 96 100 100 100 100 100 100 100 99 100 100 98 56
0 0 0 0 3 5 5 5 0 3 5 2 5 30 5 7 5 3 3 5 5 0 5 6 5 5 21 8 53 62 73 100 100 100 100 100 100 100 100 100 100 100 100 100
0 0 3 7 5 54 5 2 3 5 5 4 5 5 5 5 5 5 5 5 3 5 58 20 5 5 42 60 52 63 96 100 100 100 100 98 100 100 100 100 100 100 100 100
4 2 5 20 5 44 5 5 5 5 4 2 5 4 4 5 5 5 5 4 2 5 10 5 5 56 74 50 88 100 99 100 100 100 100 100 100 100 100 100 100 100 100 100
5 5 8 5 66 65 38 5 5 5 0 19 6 2 5 5 5 0 0 22 9 5 5 7 34 19 49 53 40 98 91 95 100 100 100 100 100 100 100 100 100 100 100 100
5 43 38 5 35 5 12 5 5 5 22 5 5 5 5 5 5 59 100 58 5 9 61 53 7 26 43 79 98 100 100 100 100 100 100 100 100 100 100 98 100 100 100 100
5 6 41 6 63 63 22 47 55 23 9 19 19 5 5 5 76 100 63 5 52 68 98 93 97 99 94 90 100 100 100 100 93 100 100 100 100 100 100 100 100 100 100 100
5 6 5 5 5 6 5 5 5 19 9 5 5 5 5 99 95 10 5 46 87 47 58 100 100 69 83 100 100 100 100 100 100 100 100 100 100 100 100 100 100 100 100 100
5 5 5 6 14 5 5 5 5 5 5 6 9 26 80 26 5 18 86 11 30 78 81 35 94 100 100 100 100 100 100 100 100 100 100 100 100 100 100 100 100 100 100 100
5 5 5 38 6 5 5 7 60 71 15 5 5 5 7 5 6 65 7 54 65 23 72 100 100 100 100 100 100 100 100 100 100 100 100 100 100 100 100 100 100 100 100 61
24 5 5 5 71 95 100 92 16 4 21 83 5 5 5 5 32 12 24 78 99 100 100 99 100 100 100 100 100 100 100 100 100 100 100 100 100 100 100 100 100 100 76 12

GFSCGP_prec_cloud_036.txt.gz
Cloud_Cover
96 85 99 99 100 100 100 100 100 100 98 100 100 80 87 98 100 100 100 100 64 100 100 100 97 50 100 100 100 100 100 100 100 100 100 100 93 45 21 5 5 2 0 0
100 100 92 100 100 100 100 100 100 100 100 100 100 100 100 100 99 100 100 100 100 100 100 91 100 100 100 95 100 100 100 87 100 100 38 7 5 5 5 2 0 1 5 5
100 97 100 100 100 100 100 100 100 100 98 100 100 100 100 100 100 100 100 100 100 100 100 100 100 100 100 100 100 100 100 100 76 100 30 6 3 0 0 3 5 5 5 5
78 98 100 100 100 100 100 64 100 95 95 100 100 100 100 100 100 68 100 100 100 100 100 100 100 100 100 100 100 100 78 73 27 100 5 4 0 0 0 0 0 5 5 2
100 100 100 100 100 100 65 100 30 100 100 100 100 72 100 100 87 100 99 97 74 6 7 24 6 40 100 100 100 94 22 6 92 29 2 0 57 98 83 5 18 54 19 5
100 99 77 72 100 64 64 88 100 100 100 100 100 99 100 73 100 100 100 3 7 35 11 31 83 35 26 21 1 0 16 80 11 5 6 4 3 5 5 5 5 23 15 74
73 97 100 98 100 100 100 100 100 100 100 100 100 100 100 62 100 93 100 19 13 24 5 4 90 62 76 53 85 43 41 4 5 5 0 0 0 2 5 5 5 73 97 89
94 100 100 100 100 100 83 100 100 100 100 97 99 100 82 0 1 71 68 15 4 0 1 6 46 91 31 0 8 5 1 2 5 5 4 5 5 5 5 5 72 82 100 37
100 100 100 100 100 98 77 95 100 96 100 100 11 4 5 5 9 5 4 1 0 0 19 6 0 0 0 0 0 0 3 5 5 5 5 5 5 5 5 34 70 100 100 86
96 100 100 100 100 86 100 100 100 96 54 10 71 81 96 67 5 2 0 0 0 0 31 0 0 0 0 0 0 3 5 5 27 5 5 5 5 67 48 63 100 100 92 15
100 100 100 76 93 70 100 100 98 64 59 48 5 82 17 1 0 0 0 1 0 0 0 0 0 0 0 0 4 5 6 60 20 5 8 5 5 45 84 98 100 100 99 69
99 97 32 85 100 100 100 98 26 6 5 0 0 0 0 0 0 0 0 1 2 0 0 0 0 0 4 19 38 71 47 52 6 5 5 19 100 100 100 100 100 100 85 94
63 100 99 100 100 85 21 2 0 5 4 0 24 0 0 0 0 0 0 0 0 0 2 3 34 36 70 16 99 42 100 78 5 6 11 89 100 100 100 100 100 93 89 100
4 10 2 3 27 56 62 5 4 2 1 0 0 0 2 0 0 0 0 0 0 2 3 3 67 100 91 84 49 68 63 11 10 17 73 100 100 100 100 100 100 99 100 100
0 0 0 1 27 64 8 47 56 5 2 0 0 0 0 3 8 5 4 0 4 2 4 5 74 56 88 87 29 56 93 48 18 23 97 100 100 100 100 100 100 100 100 100
0 0 0 0 0 0 0 0 0 0 0 0 0 0 0 1 9 3 5 5 5 5 1 5 5 5 11 97 100 74 100 80 21 61 100 100 100 100 100 100 100 100 100 100
2 0 0 0 0 0 2 0 0 0 0 1 1 5 5 0 2 87 4 0 4 2 4 4 5 8 32 92 100 100 100 95 49 98 100 100 100 100 100 100 100 100 100 100
5 0 1 0 0 3 0 0 0 0 0 0 5 67 6 5 5 1 1 5 5 5 5 5 34 79 6 59 100 100 97 88 100 100 100 100 100 100 100 100 100 100 100 100
5 0 0 23 0 0 0 0 0 5 0 2 5 5 5 1 5 2 5 6 6 5 5 9 100 86 5 27 88 39 34 44 91 100 100 100 100 100 100 100 100 100 100 100
0 0 0 0 0 4 0 0 0 0 0 5 4 5 5 5 5 5 5 5 5 5 5 100 91 5 5 5 5 5 37 99 98 98 100 100 100 100 100 100 100 100 100 100
3 5 38 1 31 2 5 5 5 5 5 4 5 5 5 5 5 5 5 5 5 5 28 7 5 41 45 41 59 72 100 100 100 100 100 100 100 100 100 100 100 100 100 100
5 7 49 26 70 62 5 7 32 5 23 11 5 7 5 5 20 6 5 75 100 6 33 84 96 98 98 87 85 100 84 100 100 100 100 100 100 100 100 100 100 100 100 100
5 7 5 6 5 5 7 14 5 81 52 5 9 5 5 87 83 100 90 93 62 76 90 99 98 100 64 100 100 100 100 100 100 100 100 100 100 100 100 100 100 100 100 100
6 44 5 38 5 5 5 5 82 38 32 97 47 86 100 100 35 47 99 96 84 86 52 81 73 95 100 100 100 100 100 100 100 100 100 100 100 100 100 100 100 100 100 100
15 99 21 99 6 5 5 85 45 10 57 100 99 100 73 6 71 74 71 57 46 74 100 100 100 100 100 100 100 99 100 100 100 100 100 100 100 100 100 100 100 100 100 100
65 92 100 15 73 50 5 8 68 90 97 100 92 5 5 71 25 34 55 95 100 100 100 100 100 100 100 100 95 88 100 100 98 100 100 100 100 100 100 100 100 100 100 93

GFSCGP_prec_cloud_039.txt.gz
Cloud_Cover
92 99 100 100 94 100 99 100 100 100 100 100 99 76 100 58 25 42 70 100 94 100 100 100 100 100 100 100 100 100 36 75 93 100 100 100 92 100 100 100 100 100 100 100
97 94 100 100 95 74 100 69 83 100 100 100 98 100 80 66 98 100 100 100 100 100 100 100 100 100 100 100 100 100 71 100 93 90 100 100 100 100 63 43 31 7 5 5
22 99 100 100 100 100 72 87 100 100 100 69 74 90 64 100 100 100 100 100 100 100 100 100 76 100 89 86 52 92 100 100 100 48 52 73 100 100 38 6 5 3 5 2
100 100 100 100 90 100 60 70 97 100 100 98 12 69 100 55 67 95 94 100 100 100 100 100 100 100 100 100 100 100 100 100 100 100 100 100 87 17 4 0 0 5 5 4
100 100 96 100 96 73 100 92 100 99 100 99 93 92 17 100 95 99 100 90 100 100 75 12 5 29 11 71 64 88 100 92 79 20 59 11 0 0 0 0 0 0 0 3
89 32 98 100 100 100 100 97 95 100 100 100 100 100 81 95 98 98 100 17 51 44 70 54 8 3 5 5 96 100 98 5 3 1 76 10 1 0 0 0 14 58 97 75
98 63 100 100 94 99 97 100 94 100 100 100 100 57 98 100 96 100 100 96 25 96 9 5 7 5 43 9 0 15 0 0 2 100 100 6 4 0 0 13 27 22 81 58
100 100 96 86 64 100 77 67 89 100 100 100 100 77 100 100 100 100 38 66 76 88 11 5 6 0 0 0 0 0 2 0 0 68 71 6 5 0 4 5 43 56 80 100
6 44 100 88 100 100 92 74 100 100 100 100 99 34 7 56 54 21 0 28 100 100 14 0 0 0 0 0 11 47 100 100 57 1 18 92 10 5 42 84 84 70 100 100
74 100 100 100 94 100 100 63 19 75 100 100 100 89 100 14 96 16 0 5 5 1 0 0 0 0 0 2 83 14 51 64 5 5 18 97 88 40 66 97 74 98 94 100
100 100 100 92 100 78 100 90 9 66 91 100 100 95 96 36 20 0 0 0 0 0 0 0 0 0 0 0 0 0 20 43 29 10 5 28 6 27 100 100 99 100 100 100
94 99 100 100 100 70 58 29 99 70 73 100 15 0 2 95 5 1 5 0 0 0 0 0 0 0 0 0 0 0 0 2 67 100 97 81 69 92 100 100 98 100 100 100
80 91 65 88 83 81 93 81 100 100 98 74 1 0 0 0 3 0 0 0 0 0 0 0 0 0 0 2 0 0 1 1 12 96 100 100 100 100 100 80 100 100 100 100
75 94 100 77 77 11 67 71 36 7 44 1 0 0 3 0 0 0 0 0 0 0 0 0 3 3 5 62 100 100 42 39 84 100 100 100 100 99 100 89 98 100 90 94
11 22 34 42 5 38 46 36 5 72 2 3 0 0 0 4 4 2 0 0 0 0 0 0 3 5 8 23 21 4 43 100 100 100 100 100 100 100 88 100 69 100 99 79
0 0 0 0 0 0 5 2 5 5 0 0 5 1 2 5 5 5 1 0 3 3 0 2 1 5 5 21 17 32 44 100 100 100 100 100 100 100 100 100 100 100 100 100
0 0 0 0 0 0 0 0 0 0 0 0 0 0 0 0 0 0 5 6 9 5 5 1 4 3 5 5 5 5 5 5 66 100 100 100 100 49 100 100 100 100 100 100
0 0 5 0 0 0 0 0 0 0 0 0 4 5 0 0 0 0 0 3 5 5 5 20 9 8 5 5 5 52 5 21 75 100 100 100 100 100 100 100 100 100 100 100
2 23 5 1 0 0 0 0 0 0 0 0 5 0 0 0 0 0 0 4 5 5 5 5 5 5 5 5 5 5 5 46 99 100 100 100 100 100 100 100 100 100 100 100
5 2 5 0 0 1 0 0 0 0 0 5 1 0 2 0 0 5 5 5 5 5 5 5 17 84 5 5 5 5 13 92 100 100 100 100 100 100 100 100 100 100 100 100
9 1 0 8 12 0 5 1 0 0 1 5 3 5 5 5 5 5 5 5 5 4 9 98 85 5 32 47 56 94 100 98 100 100 100 100 100 100 100 100 100 99 100 100
5 39 6 67 58 12 22 5 1 4 6 5 5 5 30 33 5 5 5 4 8 89 100 29 5 60 92 99 100 100 100 100 95 100 84 78 93 99 100 100 100 100 100 100
5 2 0 0 0 0 5 5 55 94 5 5 5 5 5 5 5 5 20 93 100 84 56 49 89 98 100 100 100 100 98 90 94 83 96 97 99 100 100 100 100 100 100 100
5 1 2 0 5 5 9 49 96 100 10 17 12 27 37 36 12 56 100 92 42 62 100 100 100 100 100 93 82 100 100 100 97 97 97 98 77 72 87 91 57 83 56 25
52 7 5 5 5 11 6 75 100 100 92 64 90 97 36 27 88 100 96 86 100 100 100 100 89 85 89 98 98 97 95 59 20 5 4 0 0 0 0 0 0 0 5 5
82 65 6 8 5 6 5 16 65 35 59 66 37 41 52 100 82 60 65 63 100 100 100 84 68 42 35 59 50 96 46 24 5 0 0 0 0 0 0 0 0 5 5 5

GFSCGP_prec_cloud_042.txt.gz
Cloud_Cover
5 6 76 100 100 100 100 100 100 100 100 100 89 100 100 100 100 100 78 96 100 100 100 100 74 30 100 99 100 100 100 100 100 100 100 100 100 100 100 100 100 100 86 100
62 5 16 100 100 93 80 48 100 100 91 93 99 100 100 88 94 63 36 76 100 100 100 100 100 100 100 46 12 25 93 100 94 100 100 100 100 95 57 66 64 100 78 65
7 11 97 100 100 74 64 92 90 97 100 100 97 99 94 99 14 100 97 100 100 100 100 100 100 100 100 76 69 96 100 100 100 100 100 95 100 86 100 100 100 94 96 44
5 50 86 100 90 94 100 71 73 100 100 100 100 90 11 8 98 90 100 100 100 100 100 100 100 100 100 100 100 100 100 100 60 100 98 98 100 100 100 100 100 100 76 12
56 46 100 100 100 98 97 93 97 99 99 100 90 84 100 79 100 100 100 98 98 71 86 100 100 100 99 99 99 100 58 78 100 100 99 70 56 39 5 5 2 0 0 1
5 100 100 77 90 96 62 100 100 100 100 100 67 88 100 84 98 100 100 100 100 90 47 88 100 99 97 70 76 61 91 100 100 100 48 34 5 5 5 0 0 4 5 5
10 97 96 88 100 97 99 100 96 84 99 25 60 8 100 69 66 64 62 87 58 100 100 68 7 5 6 5 5 9 12 99 100 76 0 5 36 6 5 5 5 5 5 11
80 83 55 74 74 86 92 95 96 100 89 5 5 5 5 81 52 89 6 15 8 38 100 97 6 1 2 0 11 7 36 100 58 1 0 17 90 26 78 69 94 100 100 100
58 52 95 100 65 100 92 52 50 72 100 37 5 38 100 31 25 5 10 2 4 0 4 14 5 6 74 4 4 0 0 27 0 0 2 74 100 100 100 100 100 100 100 100
30 52 5 51 77 99 95 100 98 80 80 71 5 100 98 52 100 48 4 0 0 0 1 2 10 57 0 1 0 0 0 1 4 0 45 100 100 100 100 100 100 100 100 100
96 80 5 66 90 98 60 96 100 98 92 59 5 5 15 100 16 25 3 5 5 3 0 0 0 0 0 0 0 0 0 94 67 87 83 71 88 84 97 100 100 100 92 100
73 44 5 96 92 100 100 62 69 100 77 50 15 6 15 4 2 5 5 1 0 0 0 0 0 0 0 0 0 0 0 5 5 5 49 70 95 99 100 100 100 100 100 100
5 3 5 19 9 5 66 99 85 61 71 100 6 4 5 0 0 1 5 4 0 0 0 0 0 0 0 0 0 1 0 5 5 19 93 100 100 100 100 100 93 29 6 54
72 89 17 8 82 5 8 100 51 72 100 90 32 2 0 0 3 5 0 0 0 0 0 0 0 3 5 5 30 38 62 97 87 51 85 83 97 100 99 92 99 30 17 71
97 99 100 100 100 100 98 100 100 78 29 17 1 0 0 0 0 0 0 0 0 0 0 0 0 5 3 3 5 87 97 83 53 14 56 93 96 100 90 76 72 79 93 89
92 5 3 5 3 5 18 65 34 15 5 2 0 0 0 0 0 5 0 0 0 0 1 8 5 0 0 2 12 5 81 74 13 100 100 100 39 5 16 90 46 100 100 100
4 1 0 0 0 0 0 0 0 0 5 37 45 5 5 0 0 0 0 0 1 5 3 0 0 0 0 4 5 17 15 20 49 100 97 100 100 88 100 100 99 100 100 100
5 0 0 0 0 0 0 0 0 0 0 0 0 0 0 0 0 0 0 5 33 18 5 3 4 5 5 5 5 8 64 66 88 84 100 100 100 85 99 100 100 100 100 100
75 84 4 0 1 0 0 0 0 0 0 0 0 3 0 0 0 0 0 5 5 5 2 5 5 5 5 6 49 99 47 5 7 46 74 67 90 100 100 100 100 100 99 81
19 93 5 19 5 5 0 0 0 0 0 5 5 4 5 5 5 5 5 5 5 5 5 5 5 8 14 35 100 62 29 5 10 47 96 100 100 100 91 87 83 96 80 16
8 28 2 17 5 5 1 0 0 2 36 11 5 5 3 4 2 5 5 5 5 5 10 42 69 74 83 93 57 74 89 79 97 100 100 100 96 100 100 75 32 5 2 4
7 20 3 15 6 25 2 0 4 34 50 5 5 5 5 5 14 7 7 7 98 100 100 100 84 99 71 100 75 97 100 95 95 100 100 99 86 46 72 39 6 0 0 0
5 5 5 2 5 8 5 5 5 5 5 5 43 88 96 84 50 24 78 56 33 77 62 87 100 100 100 97 73 100 46 49 8 53 99 73 60 48 11 5 1 0 0 0
5 12 5 1 5 5 5 5 21 6 5 6 9 53 86 100 100 100 100 100 77 71 98 100 100 100 100 95 86 37 48 86 100 100 86 26 6 25 10 5 5 5 0 0
5 73 10 5 2 7 64 42 85 100 100 100 100 100 100 100 100 100 100 100 72 100 100 100 100 100 59 5 23 94 100 100 100 91 27 11 27 6 5 5 5 0 0 0
46 9 5 5 5 5 12 67 86 79 99 100 100 100 100 100 100 100 100 86 63 91 100 99 62 5 5 45 78 44 83 100 100 52 52 11 5 5 5 5 4 2 4 5

GFSCGP_prec_cloud_045.txt.gz
Cloud_Cover
0 0 1 56 62 90 100 100 100 100 100 100 100 100 100 100 100 100 92 100 100 52 100 100 100 100 100 100 100 100 100 100 100 100 100 100 100 100 100 100 100 100 100 100
0 0 0 20 98 21 100 100 100 100 98 72 100 100 100 100 100 100 100 100 100 100 100 100 100 100 100 100 100 100 100 100 100 100 100 100 100 100 100 100 100 100 100 99
0 0 0 5 49 80 100 97 100 100 100 100 100 100 100 100 91 100 100 100 100 100 100 100 100 100 100 100 100 100 100 100 100 100 100 100 100 100 100 100 100 89 83 96
0 0 21 84 82 23 10 100 84 98 100 99 96 100 100 61 99 98 89 71 76 100 100 100 100 100 100 100 100 100 100 100 100 100 70 97 92 100 97 98 98 100 100 100
3 3 7 35 82 100 75 100 100 95 100 100 100 100 100 100 100 90 99 100 100 100 100 100 87 15 26 96 98 88 98 86 100 100 99 94 60 67 65 52 59 45 5 5
0 2 5 6 20 99 100 100 99 12 87 93 100 13 56 97 100 74 100 100 98 84 88 99 91 39 34 14 5 9 11 84 96 90 68 30 96 31 21 77 5 5 4 4
5 58 3 5 26 55 58 100 100 100 71 69 69 60 67 94 38 84 100 100 87 92 32 96 100 96 100 98 100 76 70 40 83 80 100 39 26 5 2 6 5 5 56 10
8 39 9 48 8 42 21 96 96 100 91 28 50 27 97 16 16 17 23 74 99 25 5 5 5 48 70 66 100 100 100 100 100 100 100 38 0 6 38 99 100 100 100 87
5 25 36 22 100 99 78 39 99 13 5 51 87 80 29 45 43 12 41 76 99 28 6 5 5 5 5 10 100 100 99 96 100 87 51 1 0 25 4 42 79 100 100 100
2 14 14 5 67 50 22 53 39 8 32 9 88 100 100 50 53 53 75 79 88 98 28 4 1 4 5 7 58 29 7 70 60 2 0 0 2 3 94 100 100 100 100 100
1 20 36 5 4 100 49 91 45 10 31 59 60 97 50 8 30 14 14 5 5 4 0 2 5 4 4 2 14 15 3 3 0 0 0 0 3 26 82 76 54 51 94 90
0 0 5 5 13 5 10 7 99 92 100 18 5 30 5 23 8 98 54 4 1 0 0 0 0 0 0 0 0 0 0 0 2 5 14 54 69 11 41 92 99 100 100 96
0 1 3 5 4 4 5 83 100 100 93 54 5 5 5 10 85 100 96 5 3 0 0 0 0 3 0 0 0 0 0 5 2 5 19 96 54 99 100 100 100 100 94 98
0 5 5 5 3 4 6 6 16 24 86 13 57 26 5 25 70 75 94 4 0 0 0 0 0 0 3 0 5 11 8 16 32 26 7 22 60 91 100 100 100 87 100 100
2 0 2 38 5 11 5 9 5 5 5 13 61 5 5 6 33 25 1 1 1 0 0 5 2 5 5 11 37 6 18 32 24 6 68 84 99 98 100 100 100 100 95 100
4 5 5 48 5 16 58 75 51 14 15 50 85 93 5 3 5 0 0 0 0 2 5 0 5 4 4 4 42 77 38 7 89 91 52 56 100 100 100 100 94 100 100 100
86 20 3 4 3 22 41 22 0 0 0 0 80 10 0 0 0 0 0 0 0 0 0 0 0 1 18 45 5 5 10 62 61 5 61 100 100 100 100 100 100 100 100 100
5 5 5 3 4 0 0 0 0 0 0 0 0 3 2 1 4 4 2 5 2 0 4 5 5 22 5 5 5 5 5 5 5 32 92 89 60 76 100 100 100 100 100 100
3 0 0 2 4 0 0 0 0 0 0 0 0 0 0 0 0 0 0 0 4 5 5 5 5 3 5 5 5 5 5 5 68 100 100 100 100 100 100 100 100 100 100 100
3 1 2 20 17 5 0 0 3 4 5 5 0 0 0 0 0 0 0 1 5 5 5 4 5 5 5 5 5 5 5 23 98 98 100 100 100 100 100 100 91 100 99 92
6 20 1 22 75 48 0 0 14 5 1 0 0 0 2 4 5 5 1 0 1 2 11 29 11 5 5 6 38 82 74 98 100 100 100 100 100 97 95 100 100 100 96 88
2 14 0 0 3 17 0 1 3 0 0 0 0 2 5 5 5 5 6 45 58 20 6 9 56 85 99 99 100 100 100 83 98 90 98 73 93 100 100 100 100 84 79 93
5 0 2 3 5 20 5 0 0 5 5 2 5 5 5 5 5 5 5 5 11 86 99 100 100 100 100 100 100 100 61 98 20 30 94 100 100 100 100 83 99 96 86 44
6 5 1 2 85 70 49 5 0 1 5 5 5 11 56 42 52 95 100 100 100 100 91 93 100 100 100 100 100 95 71 40 16 28 40 48 88 81 83 74 24 5 57 91
100 7 51 5 90 20 87 40 5 2 4 5 34 86 100 100 100 100 100 86 29 49 100 100 100 100 100 92 72 66 26 5 5 5 7 61 16 54 53 6 19 65 100 100
100 100 97 5 5 99 54 78 98 94 82 64 66 83 100 72 61 78 85 93 100 100 100 100 100 88 82 83 55 5 5 5 5 5 5 20 37 25 26 31 96 100 100 100

GFSCGP_prec_cloud_048.txt.gz
Cloud_Cover
0 0 0 0 4 89 95 100 100 100 100 99 100 99 100 100 100 100 100 100 100 100 100 100 100 100 100 99 24 50 98 100 100 100 100 100 100 100 100 100 100 100 100 100
0 0 0 0 5 55 44 55 100 100 100 94 97 53 100 100 100 100 100 100 100 100 100 98 99 100 100 100 100 100 29 30 5 61 98 97 100 94 100 100 100 99 100 100
0 0 0 0 29 37 17 70 94 90 92 100 85 89 100 100 100 100 100 100 100 100 100 100 100 100 100 100 100 100 100 100 100 100 72 66 100 100 100 100 100 100 100 99
0 0 0 0 0 6 97 82 87 52 100 100 100 100 100 98 100 86 91 70 92 100 100 100 100 100 100 100 100 100 100 100 100 100 92 98 89 100 100 99 97 100 100 100
0 0 12 5 67 6 100 93 98 84 75 100 80 92 100 98 84 100 100 100 76 24 19 7 59 88 99 100 100 100 100 100 100 100 100 100 100 100 99 98 76 96 100 100
0 0 1 5 4 4 94 100 100 100 96 100 94 100 100 99 76 86 90 97 100 100 100 100 67 86 96 100 100 100 100 100 100 100 100 100 100 92 8 32 85 93 95 47
0 0 2 0 0 3 5 94 99 55 100 100 98 100 100 42 84 96 100 95 100 100 100 100 90 100 100 84 30 19 89 100 100 100 100 100 100 100 100 93 100 7 28 13
0 0 5 0 0 3 96 46 63 99 100 98 100 100 100 100 100 100 99 100 97 100 100 70 49 31 35 44 13 100 100 100 100 100 100 100 90 100 100 94 65 31 65 76
0 0 7 12 9 5 5 6 32 10 81 98 100 98 91 100 91 94 86 44 89 99 100 88 100 26 68 33 5 64 100 100 100 100 99 72 100 88 100 84 99 100 100 96
0 3 10 82 28 71 12 5 5 5 30 75 100 100 92 99 100 91 100 84 69 41 39 30 5 6 33 54 7 38 96 99 90 42 24 13 100 100 86 64 16 100 100 86
0 0 5 5 15 84 49 5 5 5 61 78 100 100 92 65 99 98 100 100 100 100 90 98 5 4 5 5 5 5 58 99 47 76 100 100 98 98 71 88 100 100 100 95
0 0 1 5 5 5 5 5 5 27 48 45 98 100 98 100 86 83 99 100 100 47 5 2 5 5 5 5 6 18 56 46 66 100 100 100 99 100 100 99 99 100 100 100
0 0 0 1 4 4 5 4 5 5 11 38 82 90 96 100 81 91 99 100 94 94 5 0 4 5 3 4 38 40 26 33 96 100 78 92 69 79 100 100 96 100 100 100
42 19 0 0 0 1 3 0 4 4 22 52 88 97 6 81 100 100 100 100 98 3 0 0 3 5 0 1 4 78 100 98 62 38 58 75 76 44 77 95 100 98 96 100
78 39 4 0 1 5 5 4 50 40 4 6 99 60 6 14 69 100 100 98 5 0 0 0 0 0 4 31 6 5 39 6 5 29 60 61 49 96 100 100 83 100 74 100
66 57 3 0 0 4 1 2 6 5 5 5 5 17 7 84 21 76 100 89 3 0 0 0 0 0 0 3 5 5 5 5 4 9 75 74 95 100 98 80 82 100 97 100
5 37 6 4 55 92 3 53 60 5 5 5 45 0 0 100 26 4 0 0 2 1 1 0 0 1 21 7 5 5 6 38 93 100 96 100 100 100 100 100 93 100 100 100
20 98 30 76 99 5 0 0 0 0 0 0 0 0 0 19 3 5 5 5 2 5 1 1 5 5 5 5 5 27 73 76 62 72 96 100 100 100 100 100 100 100 100 100
99 100 49 96 5 5 5 0 0 0 0 0 0 0 0 0 0 0 0 0 0 0 0 5 5 3 5 8 14 6 10 50 63 86 100 100 100 100 100 100 100 100 100 100
100 100 57 10 4 5 5 0 0 0 0 0 0 0 0 0 0 0 0 0 4 2 5 2 5 5 5 5 5 15 58 75 100 100 100 97 100 100 100 94 100 100 100 100
100 71 78 18 3 5 5 97 20 2 1 0 0 0 0 0 0 0 0 0 2 5 5 5 5 5 6 21 44 8 5 13 96 99 91 100 99 100 100 55 35 78 99 100
100 65 6 5 2 9 6 3 1 0 0 0 0 0 5 0 0 0 2 5 5 5 5 31 52 49 64 14 6 20 60 90 97 100 100 100 100 75 62 7 5 22 70 78
100 89 78 5 5 13 5 0 0 1 4 4 0 0 0 2 0 0 5 6 48 71 58 17 14 6 5 5 12 80 100 100 95 43 62 61 12 5 5 5 41 53 30 55
100 53 85 5 73 54 2 0 0 0 4 5 5 1 0 0 4 5 5 5 40 32 10 6 6 8 43 86 100 100 100 68 51 73 62 5 5 6 5 5 5 13 63 55
98 19 94 81 100 99 4 4 5 5 5 5 40 31 5 1 0 5 5 5 5 5 7 7 45 97 98 100 100 100 87 67 80 57 5 6 5 5 5 5 5 58 45 9
100 100 100 100 100 100 100 97 74 47 28 5 9 48 48 16 5 9 36 46 46 26 37 92 94 100 100 100 100 84 68 74 20 5 5 8 5 5 5 5 9 96 85 100

GFSCGP_prec_cloud_051.txt.gz
Cloud_Cover
0 0 0 0 0 1 5 7 100 99 100 100 97 100 100 99 100 100 100 100 100 100 100 100 93 66 89 92 53 96 97 100 100 100 100 100 100 100 100 100 100 100 100 100
0 0 0 0 0 0 5 24 100 100 100 100 100 100 100 100 100 100 100 100 100 100 100 62 100 100 100 100 100 28 59 58 100 100 100 100 100 100 100 100 100 100 100 100
0 0 0 0 0 1 5 46 100 21 77 100 100 100 100 100 100 100 100 100 100 100 100 100 100 100 100 100 100 100 20 5 12 64 84 79 92 100 100 99 100 100 100 63
0 0 0 0 0 0 1 41 83 84 74 97 100 100 100 100 100 100 73 100 100 100 100 100 100 100 100 100 78 21 86 100 82 52 66 100 91 97 93 100 100 100 100 100
3 0 0 0 1 1 6 51 25 95 68 67 100 100 100 100 100 100 100 100 78 100 84 74 100 100 100 100 100 90 100 100 100 100 73 70 94 17 85 100 100 100 98 100
5 0 0 0 1 1 4 17 35 47 47 98 88 100 100 100 100 100 84 68 97 100 100 100 100 98 100 100 100 100 100 100 100 83 66 97 100 100 100 97 82 56 100 99
5 0 0 0 1 5 5 71 26 12 38 100 100 100 100 100 99 51 99 98 100 84 96 96 100 100 89 100 97 100 100 93 99 96 92 100 100 100 100 100 100 100 100 87
5 4 0 0 2 1 5 21 72 65 5 39 100 100 94 85 100 100 100 100 100 100 96 27 65 58 75 72 64 69 36 95 98 100 100 100 100 100 100 100 100 100 100 100
5 5 0 5 5 2 5 5 51 51 79 100 100 100 58 89 100 100 100 100 100 100 70 79 55 96 11 5 5 22 37 96 100 100 100 100 100 100 96 37 100 100 100 100
5 5 1 5 28 32 5 21 95 33 85 100 100 100 29 100 90 100 100 100 100 90 97 20 60 94 86 5 5 5 5 19 79 100 100 97 62 74 90 100 100 100 100 100
5 4 5 5 5 25 50 59 100 29 24 65 100 100 100 64 100 96 100 100 100 100 100 100 95 7 5 5 4 4 2 5 5 6 42 100 100 100 100 100 100 100 100 100
5 5 0 5 49 31 5 38 81 10 5 18 100 100 99 100 100 100 100 98 95 100 99 100 100 73 68 4 0 0 5 5 8 23 72 100 100 100 100 100 100 100 100 100
42 15 0 0 4 5 5 43 90 13 5 37 100 100 75 96 100 100 100 95 100 100 100 100 100 69 5 5 19 24 18 5 42 75 100 100 100 100 100 100 100 100 100 100
83 43 0 0 1 1 38 100 44 4 0 64 100 100 77 100 100 100 100 100 82 36 23 13 19 10 4 1 3 8 72 100 100 100 100 100 100 100 100 96 75 100 100 100
51 50 0 0 4 4 0 0 0 0 5 5 90 78 69 5 53 100 96 100 46 26 5 5 0 2 0 2 0 3 24 40 72 100 100 100 100 100 100 74 70 100 100 71
90 69 2 5 5 1 0 0 0 3 5 34 5 95 26 15 12 8 47 50 30 5 5 5 0 4 0 0 2 16 19 59 46 60 100 100 91 100 64 100 100 100 31 100
6 11 5 1 3 5 8 0 0 0 5 5 25 100 100 34 5 2 0 5 5 5 5 4 5 5 19 33 26 32 12 4 2 21 49 85 100 100 100 100 100 97 95 100
96 16 5 17 39 50 0 0 0 2 0 0 2 1 0 0 0 0 1 5 16 24 5 3 0 0 0 1 2 3 3 2 17 52 99 100 86 92 94 90 100 100 100 100
80 52 41 5 12 8 6 0 0 3 5 0 0 0 0 0 0 0 0 0 0 3 0 0 0 0 0 4 5 5 5 5 14 96 97 84 91 99 94 100 100 100 93 98
100 100 68 5 44 68 20 1 0 0 4 0 0 0 0 0 0 0 0 0 0 0 0 0 0 0 1 5 5 5 5 5 5 19 70 77 90 98 100 98 100 100 98 100
100 100 94 99 83 87 100 10 0 0 5 2 0 0 5 0 0 0 4 1 5 0 0 0 0 3 5 5 5 5 9 58 65 78 67 74 100 99 88 87 91 5 5 5
100 100 100 99 74 94 100 5 0 0 0 33 18 4 5 5 0 0 0 2 0 2 1 0 4 5 5 5 5 5 6 16 37 65 69 67 55 28 26 5 5 5 6 5
100 100 100 86 97 100 18 55 2 0 5 5 5 1 4 5 5 2 0 5 5 5 3 0 2 5 5 5 5 5 6 17 17 8 5 5 5 5 8 21 39 19 5 5
100 100 100 74 70 46 96 80 50 5 5 5 5 5 2 5 5 5 5 5 5 5 5 5 5 5 6 19 24 42 71 33 44 40 5 7 24 51 55 57 59 33 5 5
100 100 100 19 92 100 79 66 100 57 5 0 5 5 5 5 5 5 5 5 16 39 61 76 77 67 57 82 88 100 71 21 5 5 6 25 60 84 52 49 41 5 5 5
100 100 100 100 100 73 100 100 100 100 100 77 10 19 7 97 59 5 28 38 80 38 5 6 32 100 95 100 100 74 5 5 24 22 35 18 18 5 5 26 59 53 67 37

GFSCGP_prec_cloud_054.txt.gz
Cloud_Cover
52 5 0 0 0 0 0 2 100 54 71 76 100 100 100 100 100 100 100 100 100 100 100 100 100 100 100 100 100 100 95 100 100 100 100 100 100 100 100 100 100 100 100 100
99 9 0 0 0 0 0 2 8 78 94 95 100 91 95 91 100 100 100 100 100 100 100 100 91 98 100 100 100 99 81 80 96 100 100 100 100 100 100 100 100 100 100 100
100 9 3 1 0 0 2 2 13 89 92 100 86 91 92 82 100 100 66 73 100 100 100 100 17 74 100 100 100 100 96 60 70 96 100 100 100 100 100 100 100 100 100 100
100 54 5 5 1 0 5 1 5 6 5 100 100 100 85 68 69 45 30 73 87 100 100 100 100 39 76 100 100 90 76 69 100 100 93 99 62 42 82 100 100 100 100 100
100 93 5 5 1 0 5 0 0 5 92 95 100 67 100 100 68 96 100 100 40 75 85 100 100 100 100 100 100 99 55 29 97 100 100 100 100 99 71 79 97 100 100 100
100 77 5 5 1 0 0 0 4 9 21 100 100 97 100 98 40 88 100 100 100 87 100 92 95 100 100 100 100 100 100 38 69 57 98 94 92 97 60 100 100 100 100 100
100 38 5 5 4 0 0 8 95 100 95 100 100 95 99 99 48 50 82 100 83 100 100 100 100 100 100 100 100 100 100 91 86 5 5 93 100 100 100 100 100 96 100 100
100 76 5 5 5 5 5 51 100 100 97 99 90 100 98 100 98 68 70 76 27 68 80 84 100 100 100 100 100 100 98 92 100 83 32 100 100 100 100 100 100 100 100 100
100 60 5 5 5 5 12 4 70 83 14 10 42 64 28 99 100 82 96 21 18 76 30 45 68 66 45 59 90 98 100 100 77 96 99 100 100 100 100 100 100 100 89 100
100 72 6 5 5 5 5 66 49 89 96 99 74 96 89 96 100 100 100 100 100 97 8 26 5 5 5 5 16 15 65 100 71 45 100 100 100 100 100 100 100 100 100 100
100 93 27 5 5 30 8 5 8 96 97 100 98 62 5 25 66 100 100 100 100 100 90 60 5 5 5 5 5 5 5 8 2 13 54 99 99 100 100 100 100 100 100 100
100 99 48 6 5 6 96 98 32 100 100 28 100 100 6 52 91 100 100 100 100 100 97 74 97 100 76 37 44 10 6 0 2 19 50 97 100 100 100 100 100 100 100 100
100 100 6 16 5 5 19 5 5 20 79 6 3 87 66 5 69 98 100 100 100 100 100 75 100 99 94 100 100 84 70 15 0 22 86 100 100 100 100 100 100 100 100 100
99 59 78 45 5 11 5 5 9 96 80 5 12 95 29 8 10 48 97 93 100 67 100 100 100 93 100 100 100 90 67 84 92 85 100 100 100 100 100 100 100 100 100 100
84 100 26 5 5 5 5 1 16 58 2 5 88 6 100 50 7 25 80 53 74 100 97 89 67 100 100 100 79 34 92 100 100 100 100 100 100 100 100 100 99 94 100 100
100 100 18 14 6 5 5 0 5 10 5 0 0 67 57 5 5 5 5 5 9 14 48 100 100 16 37 93 29 46 64 86 100 100 100 100 100 100 100 83 78 60 85 51
100 83 100 91 5 5 61 3 5 5 5 5 2 0 0 5 5 5 5 2 4 5 6 100 100 91 19 5 5 9 21 37 28 85 98 65 31 43 14 18 28 76 100 70
100 100 100 94 6 42 74 1 3 1 0 2 5 0 0 1 4 2 0 0 0 0 0 72 71 35 5 5 5 1 0 0 1 5 9 11 31 23 83 79 75 26 87 98
100 100 100 55 55 48 99 28 0 3 1 4 5 4 5 0 0 0 0 0 0 0 0 0 0 0 0 4 0 0 0 0 5 5 13 50 74 69 76 64 56 86 98 100
100 100 100 100 84 52 100 3 0 2 15 5 5 5 5 5 5 4 0 0 0 0 3 7 6 5 5 5 5 5 54 41 39 88 100 96 78 88 100 100 100 100 97 100
100 100 100 100 36 98 100 29 4 3 69 4 0 5 5 5 5 5 5 15 3 0 0 2 5 5 5 5 5 6 42 94 82 59 69 92 100 96 78 62 73 100 78 41
100 100 100 89 39 100 100 8 4 36 4 4 2 3 0 5 5 5 3 5 5 13 5 5 5 5 5 23 41 58 56 57 61 70 97 90 69 72 92 81 31 29 9 26
100 100 100 99 100 100 100 100 84 51 5 5 23 4 0 2 5 5 5 2 5 28 56 68 36 7 5 31 37 94 99 99 99 92 85 81 78 75 52 54 12 5 42 53
100 100 100 100 100 100 100 100 62 5 5 88 100 94 64 5 5 5 5 5 5 5 57 100 100 98 88 89 72 63 53 62 66 66 62 27 30 24 5 5 5 61 86 45
100 100 100 100 100 100 100 93 74 18 48 96 85 95 100 100 36 5 5 5 8 9 62 74 74 76 92 85 71 60 74 93 97 86 60 10 28 34 14 25 26 44 16 5
100 100 100 100 100 100 100 85 79 71 82 93 69 100 100 100 49 9 9 8 5 5 54 9 11 5 5 9 51 100 98 43 8 46 58 92 100 98 66 76 75 36 5 5

GFSCGP_prec_cloud_057.txt.gz
Cloud_Cover
100 99 100 97 64 3 0 54 98 6 100 36 92 100 100 100 83 100 79 100 100 100 100 100 100 100 95 97 100 100 100 100 100 100 100 100 100 100 100 100 100 100 100 100
88 82 100 100 7 4 0 16 72 98 12 5 72 100 100 100 100 100 94 92 100 100 100 100 100 100 100 100 100 99 100 100 53 100 100 100 100 100 100 100 100 100 100 100
100 100 100 100 11 4 2 7 100 82 100 5 94 96 97 99 100 100 72 96 100 100 100 100 100 100 100 99 100 100 99 97 100 100 100 100 100 100 100 100 100 100 100 100
100 100 100 100 6 5 92 50 19 13 69 100 94 100 100 100 70 99 80 100 100 100 100 100 100 100 20 44 100 100 100 100 100 100 98 92 59 100 100 100 100 100 100 100
100 100 100 100 16 5 8 42 5 5 99 100 100 72 100 94 25 85 97 66 99 100 100 100 92 100 100 52 91 100 66 100 42 61 35 23 58 76 74 26 66 99 99 98
99 100 100 100 77 5 5 2 7 5 31 87 100 63 100 100 82 100 93 100 80 82 100 100 53 57 91 100 87 26 100 32 58 12 8 15 94 100 100 100 100 100 100 100
100 100 100 100 78 5 5 11 90 97 100 75 84 62 99 100 70 24 71 100 100 100 100 100 92 78 100 92 100 91 72 100 77 99 100 98 64 85 89 73 100 100 96 100
100 90 100 100 99 23 42 76 94 82 100 99 70 67 100 99 77 100 38 13 41 64 40 6 7 99 100 100 100 100 100 72 62 35 94 100 100 95 100 100 100 100 100 100
100 66 99 100 100 5 51 97 67 100 11 25 62 29 16 50 47 75 37 26 50 80 78 49 15 6 46 54 95 95 94 93 100 100 100 95 100 100 100 100 100 100 100 100
13 53 94 100 100 7 65 99 92 69 23 39 92 100 100 34 6 25 67 5 34 78 52 72 86 98 89 88 62 24 77 83 94 71 99 87 90 98 100 100 100 100 100 100
99 16 97 100 100 27 78 68 98 100 89 49 79 100 100 88 6 63 43 66 22 82 82 62 6 50 12 5 10 29 50 34 35 27 100 100 100 99 64 98 100 100 100 100
97 99 96 100 100 98 100 74 80 100 99 99 76 35 74 45 9 65 6 9 11 74 38 34 38 32 5 5 13 54 85 43 66 72 100 100 100 100 100 100 100 100 100 100
100 43 100 100 100 100 52 79 81 86 96 98 85 52 100 6 2 92 68 100 99 41 57 5 5 7 52 54 38 13 8 27 66 98 92 91 100 100 100 100 100 100 100 100
100 100 5 100 100 100 100 41 100 90 99 85 94 87 96 100 92 44 69 99 100 99 90 10 5 5 5 87 100 99 100 100 81 38 51 100 100 100 100 100 100 100 100 100
100 100 51 100 100 100 100 77 85 100 96 99 67 79 100 100 89 99 100 99 100 100 100 99 28 9 25 18 13 98 100 95 79 66 94 100 100 100 100 100 100 100 100 100
100 100 100 100 100 98 98 58 77 100 100 80 6 78 100 5 5 5 5 77 8 55 72 85 25 40 86 52 21 97 100 100 100 100 100 100 100 95 85 91 83 66 59 66
100 100 100 100 100 100 80 100 5 5 5 16 49 49 93 95 24 5 5 29 33 17 5 5 5 24 51 88 90 75 81 79 93 83 60 42 38 33 34 21 52 65 85 98
100 100 100 100 87 98 100 100 5 4 4 5 62 91 45 55 5 2 2 3 1 0 0 0 0 0 10 30 54 6 5 34 69 5 5 6 45 76 91 90 89 100 100 100
100 100 100 100 100 100 38 90 88 5 2 5 60 57 11 5 2 0 0 0 0 0 0 0 0 0 1 5 5 2 5 5 5 5 49 72 83 98 100 100 100 100 100 100
100 100 100 100 100 100 100 100 92 4 25 2 62 6 5 5 5 4 0 0 3 0 0 5 1 0 0 0 2 5 5 5 5 6 40 87 98 92 95 100 100 98 74 28
100 100 100 100 100 100 100 100 100 22 97 76 14 5 5 5 5 5 5 4 5 2 1 5 5 5 6 5 2 5 5 10 23 35 35 32 74 97 76 36 50 61 55 28
100 100 100 100 100 100 100 100 100 35 37 8 0 5 6 5 4 5 5 5 5 5 5 4 5 5 12 89 95 65 44 49 52 82 85 63 73 97 100 100 100 86 60 50
100 100 100 100 100 100 100 100 100 92 14 23 0 8 97 16 5 54 49 7 5 66 56 8 5 16 85 99 100 98 85 61 57 65 88 93 69 88 81 30 11 8 87 100
100 100 94 100 100 100 100 100 100 100 100 100 5 25 100 54 81 100 100 100 100 5 62 64 17 5 5 12 49 46 36 33 27 30 38 59 10 18 5 5 5 5 5 5
100 100 100 100 100 100 100 100 100 100 100 100 63 90 98 27 7 93 100 100 91 13 12 36 5 5 7 56 99 90 81 84 16 100 99 45 7 28 5 35 5 5 20 8
100 100 100 100 100 100 100 100 100 100 88 79 77 34 15 61 55 99 100 100 100 100 100 100 78 6 8 73 100 100 31 71 100 76 51 8 5 11 25 7 5 30 5 5

GFSCGP_prec_cloud_063.txt.gz
Cloud_Cover
100 80 40 60 70 100 66 100 100 100 6 2 4 1 100 11 100 100 99 100 3 20 100 90 74 100 100 100 19 35 98 100 100 100 100 100 100 100 100 100 100 100 100 100
100 98 97 17 52 100 97 81 100 100 78 9 67 0 8 52 4 100 100 94 24 5 100 99 100 53 40 91 85 44 6 100 100 100 100 100 100 100 100 100 100 100 100 100
100 100 100 10 92 100 97 4 100 100 100 36 100 13 70 7 45 83 99 57 92 5 100 93 95 74 7 32 30 50 92 98 98 88 90 100 100 100 100 100 100 100 100 100
100 100 100 9 88 100 87 8 100 100 100 22 15 1 100 100 9 3 2 10 5 5 32 100 100 100 5 46 22 40 28 4 3 5 44 98 100 7 44 92 100 100 100 100
100 100 100 100 68 100 97 73 100 100 100 71 3 3 94 100 97 5 8 95 96 100 60 94 100 33 100 89 100 100 97 80 100 99 100 100 100 79 44 16 8 5 82 100
100 100 100 100 90 99 100 50 100 100 100 100 0 0 19 70 70 100 63 35 67 100 100 61 100 100 5 89 100 100 100 100 100 100 100 100 100 100 91 80 71 79 58 73
100 100 100 93 66 100 100 91 100 100 100 100 16 1 0 14 37 25 84 40 100 98 98 5 96 100 100 100 100 25 37 41 86 82 97 98 100 100 100 100 15 38 18 60
100 100 100 29 27 98 100 89 100 100 99 100 93 14 4 97 7 2 5 4 4 12 5 5 52 99 91 19 20 5 5 5 5 5 5 5 46 44 5 6 18 83 100 86
100 100 100 100 9 68 100 87 100 100 100 100 100 95 10 89 100 9 5 28 4 5 5 5 5 5 5 5 5 5 3 5 5 5 5 5 12 20 99 100 100 100 100 100
100 100 100 100 100 17 84 97 50 100 100 100 100 47 5 69 93 76 9 1 0 0 3 5 6 4 5 5 5 5 5 5 5 5 8 74 100 100 100 100 100 100 100 100
100 100 100 95 29 16 26 97 36 15 86 100 100 92 5 10 30 79 14 5 3 0 0 0 2 5 6 5 5 5 24 91 100 100 47 93 100 98 98 100 100 100 100 100
100 100 100 80 54 49 98 100 77 100 100 100 100 100 5 41 99 84 6 6 8 7 66 0 0 1 32 5 4 3 100 100 100 100 100 100 100 100 100 100 100 100 100 100
100 100 100 83 36 98 68 100 97 100 60 100 100 100 86 34 62 61 85 5 2 0 0 0 0 0 0 0 8 100 100 100 100 100 100 100 100 100 100 100 100 100 100 100
100 100 100 54 26 35 43 100 97 98 41 100 100 100 100 52 50 90 96 92 9 0 0 0 0 0 0 0 0 98 100 100 100 100 100 100 100 100 100 100 100 100 100 100
100 94 100 56 100 100 96 100 100 37 92 77 100 100 100 100 100 92 93 91 33 3 0 0 1 1 0 3 8 47 91 100 100 100 100 100 100 100 100 100 99 100 100 100
100 77 85 73 100 100 100 94 100 83 100 100 100 100 100 100 42 96 97 44 10 23 5 0 0 4 50 0 38 58 68 93 100 100 99 87 100 70 54 72 75 100 100 100
84 84 100 25 100 100 51 9 95 100 100 100 100 97 97 89 72 100 8 81 5 5 0 0 0 0 0 2 1 23 28 50 53 51 60 96 71 45 92 92 100 100 100 100
96 97 100 100 100 92 3 6 83 100 100 100 100 99 100 100 100 80 100 48 39 5 2 0 0 0 0 6 7 0 0 9 71 100 100 86 72 78 100 100 100 100 62 8
100 100 100 82 63 99 5 90 100 100 100 100 100 100 100 100 100 100 48 74 16 5 0 0 0 0 0 0 0 0 0 6 100 100 99 90 74 46 41 84 71 14 0 4
100 100 99 99 71 5 89 100 100 100 45 100 100 100 100 40 94 100 73 20 46 61 1 0 0 0 0 5 1 0 0 21 87 21 2 5 5 5 93 100 100 96 5 5
100 100 100 98 100 8 73 100 100 100 99 100 100 100 14 49 100 100 93 99 81 3 4 5 5 5 5 43 100 100 69 1 4 5 5 5 11 22 100 86 5 6 6 5
100 100 100 100 100 74 93 100 73 100 100 100 100 83 41 7 90 100 100 98 100 5 5 5 5 5 5 5 37 72 100 100 96 86 62 5 29 41 8 5 5 7 5 14
100 100 100 100 28 98 100 100 98 100 100 100 99 100 54 66 100 100 100 100 100 42 6 5 5 5 5 51 60 49 100 100 100 100 100 100 100 52 5 5 26 5 5 46
51 100 90 97 99 100 100 100 100 100 100 100 100 33 41 99 95 100 100 100 62 36 6 32 54 73 20 84 81 62 73 21 97 100 100 100 47 14 99 87 48 92 99 100
88 100 100 95 100 100 97 100 100 100 100 100 100 100 100 83 96 100 100 97 11 99 99 84 100 96 36 91 74 35 63 78 100 100 100 98 12 80 100 100 100 100 100 100
100 100 86 100 100 100 100 100 100 100 100 100 98 47 13 90 36 100 100 100 100 100 100 100 100 12 18 57 46 79 98 92 100 100 100 80 89 100 100 100 100 100 100 100

GFSCGP_prec_cloud_066.txt.gz
Cloud_Cover
27 100 54 68 100 6 14 4 11 57 7 5 25 74 7 0 9 80 100 52 84 15 4 2 4 20 93 100 100 100 100 100 97 100 100 100 100 100 100 100 100 100 100 100
27 100 6 100 80 21 6 7 6 14 11 2 6 23 6 0 5 88 90 4 20 83 4 36 26 45 33 93 97 91 77 18 45 100 100 100 100 100 100 100 100 100 100 100
81 100 76 100 100 31 49 37 6 88 57 5 4 5 65 0 0 25 70 51 84 6 5 6 63 59 61 38 47 34 5 2 1 9 90 100 100 100 100 100 100 100 100 100
51 100 100 100 100 35 95 5 6 69 97 12 2 1 70 1 1 2 0 2 39 100 5 0 58 61 96 35 20 33 48 19 34 100 10 100 100 100 100 100 100 100 100 100
100 100 100 100 100 60 97 14 47 21 100 42 2 2 12 0 1 5 39 8 95 98 84 6 30 83 21 3 46 100 100 100 100 100 100 26 100 100 100 100 100 100 100 100
100 100 100 100 100 100 97 46 20 100 100 23 6 2 76 2 1 5 0 9 33 5 6 53 50 50 94 5 13 89 100 100 100 100 97 81 100 97 100 100 100 100 100 100
100 100 100 100 100 100 100 65 20 47 88 76 6 5 5 26 0 0 1 10 5 5 28 5 76 77 100 97 6 5 86 100 100 100 65 82 72 100 98 36 31 53 95 40
93 100 100 100 100 100 100 86 8 64 71 86 5 18 5 98 0 0 0 0 0 5 5 26 100 72 18 100 22 5 7 6 9 5 90 98 93 99 95 100 96 100 71 87
93 100 100 100 100 100 100 100 38 5 99 47 9 32 5 100 5 0 0 0 6 5 1 4 20 5 4 48 98 25 4 5 5 5 5 5 5 14 100 83 14 85 86 99
87 72 100 100 98 100 100 100 64 45 5 65 48 9 5 70 95 3 0 0 1 1 5 20 1 5 5 27 14 5 10 70 100 100 99 99 79 87 100 59 98 100 100 100
90 17 99 93 96 100 100 100 99 20 12 99 5 5 5 9 100 65 5 5 3 1 7 84 5 5 5 5 38 13 33 100 100 100 100 100 100 100 100 99 100 100 100 100
100 100 100 100 100 100 86 100 93 91 96 42 15 38 6 15 100 50 5 5 5 1 0 0 1 0 0 0 5 98 100 100 100 100 100 100 100 100 100 100 100 100 100 100
100 64 92 100 100 97 99 100 100 52 8 5 9 81 69 10 100 100 5 5 18 15 8 0 0 0 0 0 0 84 100 100 100 100 100 100 100 100 100 100 100 100 100 100
100 100 100 100 100 100 98 100 100 70 5 58 4 17 5 5 100 100 94 5 20 1 8 0 0 0 0 0 0 79 99 100 100 100 100 100 100 100 100 100 100 100 100 100
100 100 100 100 100 100 100 100 100 100 8 5 21 5 5 5 10 100 100 5 5 5 4 2 2 0 8 15 18 63 96 100 100 100 100 100 100 100 100 100 100 100 100 100
99 94 100 100 100 100 100 85 97 95 96 46 44 20 100 89 57 56 100 100 95 6 5 1 2 0 0 48 88 92 22 100 100 100 100 100 100 100 100 100 100 100 100 100
100 100 99 39 100 100 99 20 100 95 100 41 18 100 100 35 85 14 86 100 96 6 8 38 5 0 0 22 98 100 100 89 100 100 100 100 100 100 100 100 100 100 100 100
100 100 100 93 100 100 32 49 58 41 100 99 56 100 100 89 92 90 68 100 100 100 16 5 43 1 0 21 66 100 100 100 100 100 100 100 100 100 100 100 100 100 100 100
100 100 100 100 90 66 82 85 95 62 68 100 99 100 100 100 95 50 94 100 100 100 100 3 5 5 22 50 33 50 100 100 100 100 100 100 100 100 100 100 100 100 100 100
100 100 100 100 100 57 99 100 100 100 94 100 100 100 100 100 95 30 86 100 82 30 96 97 5 5 18 38 3 11 40 66 99 96 62 100 100 98 100 100 100 86 40 10
90 100 100 100 100 89 77 88 100 100 99 100 100 27 100 100 51 100 100 100 100 13 53 93 73 66 9 5 5 7 12 30 22 23 95 100 100 100 83 38 4 2 2 37
46 100 100 100 100 100 100 100 100 85 96 100 100 100 100 100 69 88 100 100 100 96 94 42 16 100 100 95 11 5 7 5 5 72 100 85 75 43 97 100 64 5 5 17
81 100 100 100 100 100 100 100 98 100 88 100 100 100 100 88 100 24 96 99 100 100 100 26 17 78 22 5 82 98 5 50 70 28 40 100 99 78 100 52 22 5 11 54
100 100 100 100 100 100 100 92 55 78 100 100 100 95 92 78 100 100 48 100 100 100 100 99 26 16 83 96 100 100 99 100 100 46 6 45 76 76 59 56 70 100 87 67
88 100 100 100 100 100 100 100 100 100 100 100 100 100 100 88 90 100 100 100 100 100 100 100 21 61 100 100 100 100 100 100 100 94 40 84 100 86 88 99 89 100 100 82
100 100 100 100 100 100 60 9 86 100 100 100 100 100 100 100 100 100 100 100 100 100 100 100 99 97 100 100 100 100 100 100 100 71 88 100 100 100 100 100 100 100 100 100

GFSCGP_prec_cloud_069.txt.gz
Cloud_Cover
7 29 56 4 38 5 93 100 97 9 4 24 0 53 5 4 0 0 0 6 77 54 99 5 39 93 100 100 100 100 100 100 100 100 100 100 100 100 100 100 100 100 100 100
10 90 13 5 89 66 47 70 100 52 3 0 0 5 5 0 0 0 0 0 0 0 32 18 68 72 99 100 100 100 100 100 100 100 100 100 100 100 100 100 100 100 100 100
46 69 5 35 100 100 100 99 100 37 5 1 3 19 5 2 0 0 0 0 0 0 10 40 89 100 94 100 99 83 100 100 100 100 100 100 100 100 100 100 100 100 100 100
5 45 41 24 94 25 100 32 100 7 5 2 0 82 5 9 0 2 0 0 0 0 0 10 54 100 100 90 96 45 65 61 61 100 100 100 100 100 100 100 100 100 100 100
7 70 5 5 99 99 100 5 96 91 24 21 3 13 5 82 4 3 0 0 0 0 2 1 10 36 100 84 36 23 50 7 14 93 99 100 100 100 100 100 100 100 100 100
48 100 31 69 100 38 97 7 92 100 90 77 4 5 8 24 39 0 0 0 0 0 1 5 27 3 61 16 9 38 98 12 4 5 5 5 5 13 12 68 60 70 59 100
100 100 100 36 73 58 100 100 52 99 20 99 10 6 36 82 73 0 2 0 4 5 0 0 5 5 5 9 5 24 38 66 100 92 99 76 67 33 5 7 6 5 14 100
99 100 100 100 91 98 94 45 95 100 6 60 82 5 7 18 100 7 5 0 0 0 0 0 0 5 5 5 5 41 6 2 19 100 42 0 0 3 5 5 30 5 5 90
100 100 100 100 62 10 34 87 100 100 48 14 58 34 5 70 38 5 5 0 0 0 0 0 2 0 0 5 5 91 100 72 5 5 4 5 1 0 3 27 5 78 34 93
100 100 100 100 9 5 48 100 100 97 100 93 100 33 10 78 63 5 5 2 0 1 0 1 1 3 0 5 13 100 91 63 47 49 5 25 20 13 46 55 67 77 100 100
100 97 99 100 29 88 100 84 100 89 40 100 98 5 8 49 81 20 6 10 4 1 4 17 100 6 0 0 2 100 100 91 62 95 100 100 100 100 100 100 100 100 100 100
100 100 100 100 100 100 95 58 99 85 98 100 99 100 5 8 100 11 5 41 5 0 0 4 5 5 0 0 5 10 100 100 100 100 100 100 100 100 100 100 100 100 100 100
100 100 100 100 100 100 100 100 100 100 100 100 99 100 10 5 87 94 13 20 7 5 0 2 18 28 0 0 0 0 27 100 100 100 100 100 100 100 100 100 100 100 100 100
83 50 76 100 100 100 100 100 100 100 100 100 100 100 86 5 84 92 23 10 5 5 2 5 40 75 0 0 0 0 0 35 100 100 100 100 100 60 100 100 100 100 100 100
100 100 100 100 100 100 100 100 100 100 100 100 100 99 99 5 8 100 46 23 92 48 5 5 5 6 0 0 0 0 0 7 18 100 100 100 100 96 100 100 100 100 100 100
99 97 100 100 100 100 100 100 100 100 100 100 100 100 100 68 5 5 99 65 81 99 100 8 5 0 26 99 18 1 0 0 50 100 92 100 100 65 100 100 100 100 100 100
90 100 100 100 100 100 94 94 100 100 100 100 100 100 100 74 5 75 22 64 84 100 100 100 60 12 1 42 6 6 1 3 3 87 77 100 100 100 100 100 100 100 100 100
72 100 100 100 100 100 37 96 100 100 100 100 100 100 100 72 21 18 100 44 83 100 100 100 100 100 56 22 30 40 58 72 79 100 100 100 100 100 100 100 100 100 100 100
22 5 95 89 100 62 70 99 100 100 100 100 100 100 100 100 36 5 30 83 79 100 68 70 100 100 100 97 95 100 100 100 100 100 100 100 100 100 100 100 100 100 100 100
28 59 76 99 100 100 14 100 100 100 14 100 100 92 65 24 5 27 13 44 99 100 95 88 100 75 88 100 100 100 100 100 100 100 100 100 100 100 100 100 100 100 100 100
100 100 77 98 100 8 50 100 100 84 27 100 99 83 88 97 67 96 100 97 100 100 93 100 98 76 13 56 93 100 100 100 100 100 100 100 100 100 100 100 100 100 100 100
32 98 86 100 100 100 94 100 100 95 93 86 100 61 43 85 96 97 35 100 93 100 100 100 100 100 65 99 44 100 100 100 100 100 100 100 100 100 100 100 100 100 100 100
5 5 12 24 51 100 100 100 100 100 100 100 70 23 100 95 100 82 84 100 100 100 100 100 100 100 100 83 17 100 96 34 69 100 100 100 100 100 100 100 100 100 100 96
5 0 0 0 0 94 100 100 100 100 100 72 100 100 83 85 100 88 100 100 100 100 100 100 99 100 100 100 100 100 100 60 27 63 100 100 100 100 100 100 100 100 88 100
2 1 0 0 0 23 100 100 100 100 100 100 91 100 100 100 100 100 100 100 100 91 100 100 100 100 100 100 100 100 100 100 95 89 100 100 100 100 100 100 100 99 92 93
6 64 30 44 5 44 42 100 100 100 100 99 100 100 100 100 100 100 100 100 100 100 100 100 100 100 100 100 100 100 100 99 72 86 99 100 100 100 100 100 100 100 100 100

GFSCGP_prec_cloud_072.txt.gz
Cloud_Cover
100 13 100 100 97 5 5 5 5 5 6 67 3 0 3 0 0 0 2 0 60 70 2 12 75 100 100 100 100 100 100 100 100 100 100 100 100 100 100 100 100 100 100 100
100 99 100 100 100 97 21 6 60 57 22 100 29 2 0 0 0 0 0 4 2 14 50 90 97 100 99 100 86 98 100 100 100 100 100 100 100 100 100 100 100 100 100 100
89 98 100 100 83 89 99 7 15 61 7 100 25 42 4 0 0 0 0 5 0 0 82 100 100 100 100 95 70 62 100 100 100 100 100 100 100 100 100 100 100 100 100 100
78 85 100 100 100 79 57 14 5 6 27 100 96 64 7 1 0 5 5 1 1 0 0 73 100 100 100 98 69 100 100 90 90 100 100 100 100 100 100 100 100 100 100 100
95 100 100 100 100 55 94 5 8 5 70 78 16 85 10 43 2 5 5 5 4 0 0 37 96 100 100 100 100 73 90 53 27 94 100 100 100 100 100 100 100 100 100 100
99 100 100 100 100 100 50 28 5 5 4 56 63 85 10 5 5 5 5 5 5 0 0 0 26 54 100 100 100 95 34 74 82 60 99 100 100 100 100 100 99 100 100 100
100 100 100 100 100 100 72 87 1 6 71 100 20 97 46 100 5 5 5 5 0 1 5 3 44 62 100 100 100 100 79 25 37 5 41 65 100 100 100 100 100 100 100 100
100 100 100 100 100 100 100 56 3 94 8 35 67 100 100 100 88 5 5 5 4 2 5 1 0 2 37 59 71 76 79 13 76 100 91 87 100 99 100 100 100 100 100 100
99 100 100 100 100 100 100 38 66 5 81 100 100 100 100 94 98 5 5 5 5 5 5 5 0 0 0 0 10 35 48 34 5 4 50 100 100 65 5 5 53 93 97 39
100 99 100 100 93 48 39 84 41 54 100 99 78 100 100 94 98 28 66 5 18 5 35 1 4 0 0 0 0 4 62 14 7 5 4 22 6 4 5 5 15 62 48 82
100 100 100 100 100 100 100 100 100 100 21 85 100 100 100 100 100 100 39 5 11 5 5 4 0 3 5 4 0 0 36 76 87 27 9 77 100 100 100 100 100 77 100 100
100 100 100 100 100 100 100 100 100 41 99 100 100 100 100 100 100 100 10 5 51 14 6 6 3 5 5 0 0 0 4 7 100 99 44 75 100 99 100 100 100 77 94 99
100 100 100 100 100 100 100 100 100 93 61 33 97 100 100 100 100 100 61 86 57 52 100 44 86 10 5 0 0 0 0 0 13 8 100 100 100 88 94 99 80 84 97 100
100 98 99 100 100 100 100 100 100 100 100 63 92 100 100 100 99 11 100 96 57 100 100 100 100 11 5 5 0 0 4 0 11 100 100 100 100 87 100 100 100 100 100 100
100 100 100 100 100 100 100 100 100 86 74 65 95 82 100 100 5 59 100 99 100 100 100 100 100 85 25 23 12 0 0 0 0 0 19 100 100 100 55 78 58 100 100 100
95 81 100 100 100 100 96 91 5 5 35 9 71 80 100 100 100 100 100 100 100 100 100 79 99 100 86 8 5 5 0 0 0 0 0 0 33 99 100 100 100 100 100 100
94 72 100 90 100 100 100 100 87 34 61 100 100 100 100 100 100 100 100 100 100 99 100 100 100 100 100 96 98 100 31 1 0 0 0 2 5 71 96 96 89 100 100 100
6 60 98 93 98 96 100 100 100 100 81 100 100 100 100 82 100 100 100 100 100 100 100 73 77 94 96 100 100 44 99 23 14 0 4 2 6 53 94 100 100 100 100 100
35 100 100 96 100 16 7 100 100 100 6 61 75 100 100 100 100 74 64 100 95 68 100 100 100 100 100 100 52 100 100 100 100 89 34 98 100 100 100 100 100 100 100 100
30 100 82 95 90 54 9 100 100 6 46 98 36 26 68 99 100 100 100 96 99 99 85 100 99 100 98 100 100 98 100 100 100 100 100 100 100 100 100 100 100 100 100 100
94 97 100 100 96 9 6 100 100 54 26 8 5 44 60 81 89 100 100 100 99 100 91 100 100 99 100 100 100 100 100 100 100 100 100 100 100 100 100 100 100 100 100 100
72 43 97 93 74 70 0 100 100 100 67 12 83 45 78 26 100 71 96 100 100 61 98 100 100 82 100 100 100 100 100 100 100 100 100 100 100 100 100 100 100 100 100 100
3 4 12 2 4 0 0 1 94 100 78 82 88 100 100 100 99 100 100 100 100 98 100 100 100 100 100 100 100 100 100 100 100 100 100 100 100 100 100 100 100 100 100 100
6 5 29 68 0 0 0 0 3 14 100 100 65 100 100 87 100 100 100 100 100 100 100 98 100 100 100 100 100 100 100 100 100 100 100 100 100 100 100 100 100 100 100 100
54 90 5 0 0 0 0 0 4 5 100 100 97 98 100 100 100 87 94 100 100 100 100 100 100 97 100 100 100 100 100 100 100 100 100 100 100 100 100 100 100 100 100 100
8 5 4 0 54 98 48 4 0 38 100 100 100 100 100 100 100 30 99 100 100 100 100 100 100 100 100 100 100 100 100 100 87 81 100 100 100 100 100 100 100 100 100 100

GFSCGP_prec_cloud_075.txt.gz
Cloud_Cover
76 100 100 100 100 24 5 95 15 0 5 39 30 64 5 72 0 0 0 0 5 1 47 96 97 52 100 100 100 100 100 100 100 100 100 100 100 100 100 100 100 100 100 100
23 100 100 100 100 88 6 100 38 0 5 17 12 96 5 5 9 5 0 0 2 15 86 84 100 100 94 100 100 100 100 100 100 100 100 100 100 100 100 100 100 100 100 100
100 100 100 100 100 88 5 100 60 3 5 55 5 83 5 5 74 12 2 1 0 2 39 100 100 100 93 100 100 100 100 100 100 100 100 100 100 100 100 100 100 100 100 100
90 100 100 100 100 100 8 100 23 5 73 43 44 100 8 36 100 11 0 4 5 2 5 61 100 100 100 96 100 80 100 100 100 100 100 94 100 100 100 100 100 100 100 100
100 100 100 100 100 96 9 65 88 67 10 31 20 94 100 5 98 6 10 5 2 4 3 21 86 96 100 100 100 100 89 100 100 100 98 100 100 100 100 100 100 100 100 100
100 100 100 100 100 96 80 100 100 100 5 43 63 58 100 2 46 9 99 5 5 5 5 14 0 40 98 100 97 100 98 95 69 100 98 97 100 100 100 100 100 100 100 100
100 100 100 100 100 100 99 100 100 51 5 70 30 30 100 2 90 5 90 100 5 3 5 5 7 39 98 100 100 100 76 65 90 100 100 100 100 100 100 100 100 100 100 100
100 100 100 100 100 100 100 100 60 59 47 7 26 94 100 33 50 99 100 100 5 5 5 5 24 21 20 100 100 100 100 52 61 45 100 100 100 100 100 100 100 100 100 100
100 100 100 100 100 100 74 30 89 62 5 57 100 100 100 80 29 100 18 100 19 5 2 2 5 93 4 12 22 71 66 21 35 35 20 100 100 100 100 100 100 100 100 100
100 100 100 100 100 94 44 98 77 40 5 25 90 100 100 100 53 100 60 35 100 5 5 5 1 5 72 1 0 14 0 0 8 23 57 13 50 100 100 100 90 73 68 66
100 100 100 100 99 100 100 100 98 33 4 26 32 100 100 100 100 100 100 100 100 100 5 6 5 5 7 5 5 2 0 1 56 5 49 56 34 47 65 100 100 100 100 100
100 100 100 100 100 98 97 18 58 7 5 68 100 100 100 100 100 100 100 100 70 99 5 5 20 5 5 5 5 5 5 0 1 100 100 98 67 98 82 100 99 66 63 58
80 100 100 100 100 100 100 100 100 100 100 100 100 100 100 100 100 60 24 100 97 7 20 28 5 28 5 26 11 5 5 5 0 0 79 100 100 98 36 69 87 74 33 99
100 99 99 100 100 100 100 100 100 100 72 95 100 100 100 100 100 58 99 99 98 5 49 65 52 5 32 21 99 5 5 5 5 0 0 4 93 81 77 6 11 39 99 100
100 100 100 87 98 100 100 100 100 100 100 100 100 100 100 100 100 100 99 85 100 100 93 100 88 8 71 94 85 86 5 4 5 5 2 0 8 100 88 56 38 44 5 71
100 100 100 100 100 100 100 95 98 100 100 99 100 100 100 100 100 100 100 77 97 100 100 100 100 26 100 100 100 100 100 49 5 5 16 5 0 0 68 100 100 100 61 87
100 100 100 100 100 100 84 100 100 57 6 5 35 100 100 100 100 100 100 100 100 98 100 100 100 100 100 94 96 100 88 96 31 5 7 5 5 4 0 0 0 11 85 100
98 98 97 79 100 84 100 100 100 100 87 42 5 7 82 93 100 100 100 100 100 100 100 100 100 100 100 100 48 94 100 98 100 97 79 83 21 2 4 7 9 20 100 100
3 11 90 94 55 27 88 100 100 100 100 100 87 5 12 65 92 100 100 100 100 100 100 100 100 100 100 100 98 48 100 100 100 100 100 100 100 99 54 80 100 100 100 100
2 5 76 100 100 57 100 100 100 100 100 100 100 100 100 84 45 74 100 100 100 100 100 100 100 94 100 100 100 100 99 77 78 94 100 96 100 100 100 100 100 100 100 100
92 99 100 67 85 10 4 3 13 44 9 6 81 44 68 30 5 40 95 100 100 100 100 100 100 100 100 100 99 98 98 88 100 98 100 100 100 100 100 100 100 100 100 100
52 42 31 67 96 57 10 5 27 20 3 4 69 100 12 5 74 70 83 100 98 100 100 100 100 100 100 100 100 100 100 100 100 100 100 100 100 100 100 100 100 100 100 100
79 30 37 9 11 12 91 42 3 0 0 0 0 100 100 22 25 90 91 98 96 97 100 100 100 100 100 100 100 100 100 100 100 100 100 100 100 100 100 100 100 100 100 100
95 11 5 4 5 5 0 3 5 13 1 0 0 45 100 100 26 70 100 99 22 83 34 38 100 100 100 100 100 100 100 100 100 100 100 100 100 100 100 100 100 100 100 100
31 24 15 5 37 17 5 1 34 2 0 0 0 7 33 100 100 99 42 100 100 43 59 99 100 100 100 100 100 100 100 100 100 100 100 100 100 100 100 100 100 100 100 100
30 5 5 5 90 98 68 32 100 4 44 13 0 2 73 100 100 100 84 24 99 100 92 80 100 100 100 100 100 100 100 100 100 100 100 100 100 100 100 100 100 100 100 100

GFSCGP_prec_cloud_078.txt.gz
Cloud_Cover
100 100 88 100 100 100 5 90 100 34 5 6 11 5 59 0 2 0 0 0 0 0 0 0 4 40 30 41 86 78 100 100 100 100 100 100 100 100 100 100 100 100 100 100
100 92 100 100 100 100 6 100 100 34 5 22 32 53 5 2 5 0 5 0 0 0 0 0 18 30 30 54 86 87 100 100 100 100 100 100 100 100 100 100 100 100 100 100
100 100 100 100 100 100 98 85 100 91 5 5 37 42 5 3 28 2 70 0 0 0 0 0 21 17 32 72 99 100 100 100 100 100 100 100 100 100 100 100 100 100 100 100
100 93 100 100 100 100 94 64 100 100 5 43 73 94 6 2 7 2 4 0 3 0 0 0 5 3 8 5 93 100 100 100 100 100 100 100 100 100 100 100 100 100 100 100
87 100 100 100 100 100 100 5 100 100 99 71 23 66 23 0 56 0 0 1 96 2 0 0 0 5 0 3 97 99 98 94 100 100 100 100 100 100 100 100 100 100 100 100
100 100 100 100 100 100 100 8 99 100 100 100 100 26 94 52 35 1 0 1 80 4 0 0 0 3 5 0 35 96 100 100 100 100 100 86 92 100 100 100 100 100 100 100
100 100 100 100 100 100 100 79 42 100 100 100 100 66 79 100 100 3 0 0 100 94 0 0 0 0 7 7 0 30 95 100 99 100 100 100 96 40 100 100 100 100 100 100
100 100 100 100 100 100 100 100 42 30 64 100 100 77 73 100 83 5 3 0 25 8 4 0 0 0 0 72 19 6 2 29 93 100 100 100 100 100 100 100 99 100 100 100
100 100 100 100 100 100 100 100 89 48 6 21 83 100 100 100 28 7 77 0 3 0 74 48 0 0 0 0 86 51 0 0 7 44 91 99 100 100 100 100 98 98 100 100
100 100 100 100 100 100 100 100 97 37 99 100 100 100 100 100 97 5 18 8 5 4 11 100 21 0 0 0 5 98 38 0 0 16 31 23 27 77 100 100 100 100 100 100
100 100 100 100 100 100 100 100 79 66 87 98 100 99 100 100 96 5 46 100 19 5 8 63 75 6 0 0 0 6 100 31 0 0 5 1 1 21 36 98 100 100 100 100
100 100 100 100 100 100 100 100 73 91 100 37 80 100 100 100 100 29 100 100 88 5 0 5 5 100 28 0 2 5 9 91 35 0 0 76 37 25 14 10 42 100 100 100
100 100 100 100 100 100 100 98 99 83 31 97 99 86 100 100 100 100 78 18 98 100 79 34 10 31 100 16 4 1 10 5 84 9 0 8 96 100 98 5 37 25 12 88
100 100 100 100 100 100 99 82 100 92 80 94 89 99 98 100 100 100 100 100 100 100 100 98 100 46 77 37 6 5 14 42 95 86 5 1 0 8 72 97 65 31 32 28
100 100 100 100 100 100 100 100 100 100 92 77 100 69 100 100 100 100 100 100 100 100 88 69 59 48 79 92 100 94 5 35 98 100 77 5 4 0 0 0 2 5 5 28
100 100 100 100 100 100 100 100 100 100 100 100 100 100 100 100 100 100 100 100 100 100 100 100 62 45 31 65 99 100 49 5 6 86 100 100 77 5 5 0 0 0 2 31
100 100 100 98 100 100 36 99 100 80 69 97 100 100 100 100 100 100 100 100 100 100 100 100 89 75 100 85 29 76 96 39 5 27 90 100 88 72 78 70 25 0 0 12
100 100 100 100 100 95 100 100 100 92 83 5 8 5 20 76 100 100 100 100 100 100 100 100 100 100 100 100 100 98 66 82 100 10 58 78 100 100 100 96 93 100 26 15
100 100 100 100 100 100 100 100 100 100 100 87 80 5 5 5 12 74 97 52 91 93 58 100 100 100 100 100 100 100 92 100 100 90 100 100 100 100 100 100 100 100 100 92
98 11 82 84 85 99 98 100 100 100 100 100 92 6 5 21 12 28 20 54 10 87 66 97 100 100 100 100 100 100 97 35 100 100 100 100 100 100 100 100 100 100 100 100
100 100 97 85 98 94 95 42 35 84 92 100 100 100 100 78 62 50 34 24 95 99 74 100 100 100 100 100 100 100 100 100 100 100 100 61 98 100 100 94 100 100 100 100
58 92 85 96 74 95 5 9 23 33 59 10 32 73 67 24 15 46 96 93 71 100 100 100 100 100 100 100 100 100 100 100 100 100 100 100 100 96 98 100 100 100 100 100
99 80 100 82 92 45 100 28 5 10 15 18 7 6 5 16 5 5 5 76 99 55 29 37 100 58 100 100 100 100 100 100 100 100 100 100 100 100 100 100 100 100 100 100
67 30 16 93 37 71 14 4 4 1 0 0 4 0 0 0 0 3 5 5 20 86 70 66 54 96 100 100 100 100 100 100 100 100 100 100 100 100 100 100 100 100 100 100
100 77 96 100 100 51 5 5 5 3 4 4 3 0 0 0 0 0 19 99 33 41 84 86 94 100 100 100 100 100 100 100 100 100 100 100 100 100 100 100 100 100 100 100
100 100 100 100 100 100 31 30 93 12 14 24 2 0 5 5 3 4 5 76 94 93 77 88 100 100 100 100 100 100 100 100 100 100 100 100 100 100 100 100 100 100 100 100

GFSCGP_prec_cloud_081.txt.gz
Cloud_Cover
100 100 13 93 100 100 100 100 100 100 100 100 95 6 5 5 5 2 0 1 1 0 0 0 0 0 0 0 11 100 68 99 100 100 100 100 100 100 100 100 100 100 100 100
100 42 93 100 100 100 100 100 100 100 100 100 94 93 100 5 0 1 0 5 2 5 0 0 0 0 0 0 20 98 95 99 100 100 100 100 100 100 100 100 100 100 100 100
100 36 100 100 100 100 100 100 100 100 100 100 99 94 100 6 5 5 0 5 1 0 3 0 0 0 0 1 9 89 90 100 100 100 100 100 100 100 100 100 100 100 100 100
99 95 100 100 100 100 100 100 100 100 100 100 100 100 100 5 0 5 5 0 0 0 5 0 0 0 0 0 2 52 63 100 100 100 100 100 100 100 100 100 100 100 100 100
100 100 100 100 100 100 100 100 100 100 100 100 100 100 100 6 5 5 5 2 2 0 0 1 0 0 0 0 0 73 97 100 100 100 100 91 100 100 100 100 100 100 100 100
100 100 100 100 100 100 100 100 100 100 100 100 100 100 100 92 12 28 8 1 3 0 10 93 0 0 0 0 0 5 83 75 100 97 100 38 99 100 100 100 100 100 100 100
100 100 100 100 100 100 100 100 100 100 100 100 100 100 100 100 60 92 82 5 0 0 7 19 0 0 0 0 0 0 20 100 100 88 100 100 100 100 100 100 100 100 100 100
100 100 100 100 100 100 100 100 100 100 100 100 100 100 100 100 100 100 99 5 0 0 0 0 0 22 2 0 0 0 0 38 99 85 98 100 100 100 67 100 100 100 100 100
100 100 100 100 100 100 100 100 100 100 100 100 100 100 100 100 100 100 100 5 5 0 61 0 0 28 100 6 0 0 2 0 47 100 95 100 100 96 96 51 84 100 100 100
100 99 100 100 100 99 100 100 100 100 100 100 100 100 100 100 100 100 100 11 6 4 0 5 0 0 4 2 5 0 2 5 4 44 98 100 100 100 97 67 47 60 81 91
100 100 100 100 96 100 100 100 100 100 100 100 100 100 100 100 100 100 100 35 5 32 5 100 2 0 1 1 5 5 0 0 9 5 31 43 38 57 99 23 23 100 100 100
100 100 100 100 100 100 100 100 100 100 100 100 100 100 100 84 86 100 100 99 52 10 5 100 5 22 19 0 0 4 4 4 0 5 3 0 20 29 20 3 15 12 100 100
100 100 100 100 100 100 100 100 100 100 100 100 100 100 100 100 100 100 100 100 99 100 33 5 0 2 40 0 0 2 5 0 0 5 49 7 2 0 0 8 11 26 45 38
100 100 100 100 100 100 100 100 100 100 100 100 100 100 100 100 98 100 100 100 95 19 100 96 62 4 84 5 5 5 3 3 30 35 40 94 24 4 0 0 3 20 20 4
100 100 100 100 100 99 100 100 100 99 100 100 100 100 100 99 100 100 99 100 100 100 99 96 96 92 54 37 5 5 5 5 89 100 42 10 53 98 49 2 4 2 0 1
100 100 100 100 100 100 100 100 100 100 100 100 100 100 100 100 90 100 100 100 100 100 100 100 100 67 92 100 100 49 5 5 6 82 100 85 5 15 100 100 67 14 72 80
100 100 100 100 100 100 100 100 100 100 100 100 100 100 100 91 52 100 100 100 100 100 100 100 100 100 18 49 98 82 21 46 8 83 66 29 100 73 68 68 9 26 22 45
100 100 100 100 100 100 100 100 100 100 100 100 100 100 100 100 100 100 100 100 100 100 100 100 100 100 100 100 100 99 100 37 52 100 46 73 100 51 41 98 100 100 100 100
100 100 100 100 100 100 100 92 100 100 100 100 100 100 100 100 100 100 100 100 100 100 100 100 100 100 100 100 100 91 76 80 99 100 100 85 98 93 99 100 100 100 100 93
100 100 99 100 100 100 100 100 100 100 100 85 65 99 100 100 100 97 100 97 78 75 98 100 100 100 38 67 100 100 100 100 12 100 100 97 44 97 100 100 100 100 91 89
100 100 100 100 100 100 100 100 100 100 100 100 100 95 75 68 47 23 5 32 5 20 24 17 21 73 99 19 54 97 100 91 100 65 41 100 100 100 100 100 100 100 100 100
100 100 100 100 100 100 100 98 85 100 100 100 100 100 98 88 73 26 5 10 5 5 14 5 5 10 58 97 74 74 100 95 100 100 100 96 100 92 97 100 100 100 100 100
96 97 100 100 100 100 100 100 99 96 45 45 30 5 35 17 6 4 6 6 5 15 4 5 5 19 99 100 100 100 100 100 100 100 100 100 100 100 100 100 100 100 100 100
98 100 100 97 86 100 48 100 100 15 8 5 5 5 5 5 2 1 1 0 0 1 0 0 1 89 100 100 100 100 100 100 100 100 100 100 100 100 100 100 100 100 100 100
100 94 100 100 100 97 100 100 93 24 53 5 0 0 0 0 0 0 0 0 0 0 0 10 46 99 100 100 100 100 100 100 100 100 100 100 100 100 100 100 100 100 100 100
100 100 99 98 79 76 63 92 13 11 65 54 34 1 0 0 0 1 5 13 42 80 86 94 100 100 100 100 100 100 100 100 100 100 100 100 100 100 100 100 100 100 100 100

GFSCGP_prec_cloud_084.txt.gz
Cloud_Cover
99 100 8 100 100 100 100 87 95 100 100 100 59 100 16 95 100 43 5 24 12 5 5 2 0 0 0 0 0 0 1 68 42 100 100 100 100 100 100 100 100 100 100 100
100 4 5 100 100 100 100 100 100 100 100 100 100 100 100 100 100 99 8 84 30 5 3 4 0 0 0 0 0 0 7 82 100 95 98 99 100 100 100 100 100 100 100 100
40 34 100 100 100 100 100 100 100 100 100 98 100 100 100 100 100 44 38 21 25 5 2 0 0 0 0 0 0 0 89 56 68 100 99 100 100 100 100 100 100 100 100 100
96 100 100 100 100 100 100 100 100 100 100 88 100 100 100 100 100 14 6 5 5 0 0 0 0 0 0 0 0 0 100 82 81 100 100 100 100 100 100 100 100 100 100 100
100 100 100 100 100 100 100 100 100 100 100 90 74 100 100 100 100 100 100 8 5 5 5 5 2 97 1 0 0 0 100 86 100 100 91 100 100 100 100 100 100 100 100 100
100 100 100 100 100 100 100 100 100 100 100 78 100 100 100 100 100 100 100 35 12 5 5 5 4 29 0 0 0 0 100 100 100 80 100 85 100 100 100 100 100 100 100 100
100 97 100 100 100 100 100 100 100 100 97 76 100 100 100 100 100 100 98 100 18 45 40 5 5 0 0 1 91 1 100 100 100 100 100 98 94 100 88 100 100 100 100 100
100 100 100 100 100 100 100 100 100 100 100 91 100 100 100 100 100 100 100 100 100 100 98 7 5 5 0 0 100 8 30 100 100 100 100 100 97 100 44 87 100 100 100 100
100 100 100 100 100 100 100 100 100 100 100 100 100 100 100 100 100 100 100 100 100 100 100 93 60 38 5 0 0 0 0 41 100 100 100 100 100 44 99 100 70 100 100 100
100 100 100 100 100 100 100 100 100 100 100 100 100 100 98 100 100 100 100 100 100 100 82 75 5 49 4 0 0 0 0 0 10 100 100 100 100 100 100 100 86 90 100 100
100 100 100 100 100 100 100 100 100 100 100 100 100 100 100 100 100 100 100 100 100 100 100 5 14 14 28 59 0 1 0 0 0 1 91 100 98 100 100 100 98 42 6 34
100 100 100 100 100 100 100 100 100 100 100 100 100 100 100 100 100 100 100 100 100 100 100 6 46 48 72 100 1 0 5 0 0 0 0 36 100 100 100 100 100 82 8 3
100 100 100 100 100 100 100 100 100 100 100 100 100 100 100 100 100 100 88 100 100 100 93 47 5 5 12 84 13 2 6 4 0 0 0 0 47 43 62 79 100 67 5 3
100 100 100 100 100 100 100 100 100 100 100 100 100 100 100 100 100 95 86 100 100 100 76 44 95 6 5 5 5 7 5 3 5 2 0 2 33 100 29 5 21 38 53 16
100 100 100 100 100 100 100 100 100 100 100 100 100 100 100 100 100 100 100 45 100 100 100 100 85 80 79 5 21 48 5 85 91 5 2 0 5 6 81 93 43 88 99 64
100 100 100 100 100 100 100 100 100 100 100 100 100 100 100 100 100 100 100 100 96 100 94 83 100 100 100 100 100 100 93 27 69 5 5 5 5 6 92 31 67 99 100 100
100 100 100 100 100 100 100 100 100 100 100 100 100 100 100 97 66 89 100 100 100 100 100 99 89 100 100 90 88 100 95 12 40 100 98 92 5 5 6 34 8 100 96 92
100 100 100 100 100 89 100 100 100 100 100 100 100 100 100 100 100 100 98 100 100 100 100 100 96 82 87 99 100 100 66 59 98 100 100 98 28 54 7 7 61 100 100 52
100 100 100 100 100 100 100 100 100 100 100 100 98 100 100 100 100 100 100 100 100 100 90 100 84 100 100 99 100 100 100 100 100 100 100 99 99 69 54 34 93 65 42 57
100 100 100 100 100 100 100 100 100 100 100 100 100 100 100 100 100 100 100 100 100 100 100 100 100 100 100 100 100 100 100 100 100 100 83 43 78 80 50 49 72 93 99 100
100 100 100 100 100 100 100 100 100 100 100 100 100 100 100 100 100 100 100 100 100 100 100 100 100 100 100 100 100 100 99 78 51 60 15 46 98 15 84 18 99 94 95 96
93 100 100 100 100 100 100 100 100 100 100 100 100 100 100 100 100 100 100 100 100 100 100 100 100 100 100 100 100 100 98 100 100 100 100 90 38 78 100 68 73 81 100 100
88 100 100 100 100 100 100 100 100 100 100 100 100 100 100 100 69 8 6 19 54 6 22 22 40 60 92 100 100 100 100 100 98 100 100 100 100 100 100 100 100 100 100 100
100 100 100 100 100 100 100 100 100 100 100 99 85 48 42 31 45 37 6 7 9 12 36 49 58 100 100 100 100 100 100 100 100 94 100 100 100 100 100 100 100 100 100 100
100 100 100 100 100 100 100 100 100 100 100 93 45 44 33 5 5 5 12 19 36 38 73 95 100 100 100 100 100 100 100 100 100 86 100 100 100 100 100 100 100 100 100 100
98 94 100 100 100 100 100 100 100 94 100 88 8 5 5 5 26 39 88 10 42 67 100 100 100 100 100 100 100 100 100 100 100 100 100 100 100 100 100 100 100 100 100 100

GFSCGP_prec_cloud_087.txt.gz
Cloud_Cover
79 74 38 5 74 100 100 99 50 51 60 100 32 5 56 63 5 100 100 100 98 46 66 8 0 0 0 0 2 0 0 35 87 100 100 100 100 100 100 100 100 100 100 100
5 9 5 100 100 100 67 65 23 100 100 100 100 40 87 86 34 100 100 100 100 72 92 5 5 0 0 0 0 0 0 15 80 100 100 100 100 100 100 100 100 100 100 100
10 25 5 4 51 20 5 10 92 100 100 100 23 5 68 100 100 100 100 100 100 64 8 13 5 0 0 0 0 0 0 0 85 100 100 100 100 100 100 100 100 100 100 100
85 5 0 4 3 6 5 99 100 100 100 100 100 53 100 100 82 9 100 100 100 94 73 78 6 5 3 11 7 0 0 0 93 100 100 100 100 100 100 100 100 100 100 100
3 2 41 26 6 41 93 100 100 100 100 100 89 76 100 100 100 100 100 100 100 96 100 98 5 0 0 0 0 0 0 0 45 100 100 99 66 100 100 100 100 100 100 100
4 0 4 11 92 100 88 100 100 100 100 97 95 80 100 100 100 67 84 80 100 100 100 93 3 4 1 5 0 0 35 0 100 100 100 100 100 96 94 96 100 100 100 100
0 2 4 12 100 100 100 100 100 100 100 38 100 79 100 100 100 65 5 98 100 100 97 56 6 68 5 5 4 1 3 15 100 100 100 100 98 72 1 91 100 100 100 100
0 4 22 100 100 100 100 100 100 89 99 40 100 41 100 100 100 92 30 91 100 100 100 95 94 100 80 5 5 5 2 0 100 100 100 100 100 98 100 100 80 100 100 100
1 18 96 95 100 100 100 100 100 100 100 96 56 50 100 100 100 100 86 100 74 100 100 100 100 100 100 5 5 3 5 0 92 100 100 100 100 99 99 65 13 99 100 100
5 44 39 91 100 100 100 100 100 100 100 100 99 100 100 100 100 100 100 100 95 78 100 100 100 100 100 19 5 5 3 0 0 100 100 100 98 94 8 11 26 2 88 100
56 88 75 57 100 100 100 100 100 100 100 98 100 100 100 100 100 100 100 100 100 100 100 100 100 100 100 73 5 5 40 3 0 5 98 100 100 100 49 2 27 36 1 83
100 100 99 100 100 100 100 100 100 100 100 100 100 100 100 100 100 100 100 100 100 100 100 100 100 100 100 99 10 5 6 15 1 0 1 99 100 100 60 99 4 24 17 1
100 100 100 100 100 100 100 100 100 100 100 100 100 100 100 100 100 100 100 100 100 100 100 95 78 93 92 62 6 5 10 5 5 0 0 1 91 100 100 64 40 40 3 26
100 100 100 100 100 100 100 100 100 100 100 100 100 100 100 100 100 100 100 100 98 100 100 76 32 83 96 97 97 21 7 5 5 6 5 21 4 16 98 91 69 62 82 41
100 100 100 100 100 100 100 100 100 100 100 100 100 100 100 100 100 100 100 100 46 89 100 100 92 69 96 68 94 90 36 5 5 5 99 100 100 2 5 4 4 23 96 68
100 100 100 100 100 100 100 100 100 100 100 100 100 100 100 100 100 100 99 100 42 100 100 100 100 91 87 27 44 37 79 79 69 44 100 100 98 5 3 3 5 5 5 15
100 100 100 100 100 100 100 100 100 100 100 100 100 100 100 100 100 99 100 100 100 100 100 46 99 100 100 100 100 100 100 100 100 100 98 100 51 5 5 24 11 10 20 5
100 100 100 100 100 100 100 100 100 100 100 100 100 100 100 100 100 88 100 100 100 100 100 100 100 100 100 100 36 63 99 76 69 100 100 100 78 15 96 100 100 100 52 56
100 100 100 100 100 100 100 100 100 100 100 100 74 100 100 99 100 100 100 100 100 100 17 48 76 94 100 100 70 73 99 100 25 65 100 100 100 100 100 100 100 100 41 42
53 100 100 100 100 100 100 100 100 100 100 18 100 100 100 100 100 100 100 100 100 100 100 100 100 100 100 100 100 100 100 97 97 71 61 91 100 100 100 100 100 100 100 12
32 91 100 100 100 100 100 100 100 100 100 98 100 100 100 100 100 100 100 100 100 100 100 100 100 100 100 99 100 100 100 100 100 100 100 100 100 100 100 100 100 100 100 99
100 92 100 100 100 100 100 100 100 100 100 100 100 100 100 100 100 100 93 100 100 100 100 100 100 100 100 100 100 100 100 100 100 100 100 100 100 100 100 100 100 100 99 100
100 59 85 100 100 100 100 100 100 100 100 100 100 100 100 100 100 100 100 100 100 100 100 100 100 100 100 100 100 100 100 100 100 100 100 100 100 100 100 100 100 100 100 100
100 100 97 100 100 100 100 100 100 100 100 100 100 100 100 100 100 100 100 100 100 100 100 100 100 100 100 100 100 100 100 100 100 100 100 100 100 100 100 100 100 100 100 100
100 100 100 100 100 100 100 100 100 100 100 100 100 100 100 100 100 100 100 100 100 100 100 100 100 100 100 100 100 100 100 100 100 100 98 99 83 85 100 100 100 100 100 100
100 100 100 100 100 100 100 100 100 100 100 100 100 100 100 100 100 100 100 100 99 66 100 100 100 100 100 100 100 100 100 100 100 100 100 100 100 92 89 99 100 100 100 100

GFSCGP_prec_cloud_090.txt.gz
Cloud_Cover
11 5 20 100 78 42 5 5 0 3 55 2 90 22 0 0 56 0 0 5 5 100 92 100 49 43 6 45 50 47 40 97 100 100 100 100 100 100 100 96 73 100 100 100
15 91 60 55 30 10 5 5 4 0 5 82 2 0 0 0 46 4 3 76 51 100 100 98 56 15 5 52 39 40 43 100 100 57 60 88 97 100 100 85 88 100 100 100
6 70 98 29 5 9 5 5 3 4 5 94 2 2 75 2 17 4 65 100 67 100 100 100 76 38 11 46 43 39 94 100 98 4 98 99 100 100 100 100 100 100 100 100
69 94 49 5 8 5 5 3 5 92 18 5 90 11 0 31 5 100 78 76 99 100 100 100 100 87 5 9 12 36 77 87 90 17 100 100 100 100 100 100 100 100 100 100
100 100 72 70 41 28 5 4 1 19 18 71 100 84 31 5 100 100 100 100 100 100 100 100 100 39 5 11 31 44 60 65 90 15 100 100 100 79 100 100 100 100 100 100
100 100 100 99 62 5 16 81 53 65 91 96 100 69 95 72 100 100 100 100 100 100 100 100 100 68 22 47 20 50 50 40 71 31 100 100 100 81 64 100 100 100 100 100
100 54 43 11 5 5 52 100 100 100 100 42 100 15 100 100 100 100 100 99 100 100 100 100 100 100 94 27 35 52 47 77 70 44 100 100 100 31 100 94 94 100 100 100
89 12 6 5 5 14 46 100 100 95 83 93 100 30 100 100 100 100 100 75 100 100 100 100 100 100 86 19 99 93 41 66 90 78 80 100 100 95 77 94 97 99 100 100
23 13 5 0 5 12 41 100 100 100 99 89 85 84 100 100 100 100 100 77 100 100 100 100 100 100 100 16 96 100 89 20 45 100 61 66 14 68 0 34 96 25 41 60
79 66 5 0 5 5 100 100 100 100 100 100 100 82 100 100 100 100 96 18 14 100 100 100 100 100 100 100 100 100 100 46 28 100 92 46 100 91 94 50 11 0 0 67
5 15 3 4 4 4 100 100 100 100 100 100 100 100 100 100 100 100 73 84 100 82 100 100 100 100 100 100 100 100 99 99 85 76 94 34 99 100 100 18 0 0 0 0
38 56 9 0 64 41 100 100 100 100 100 98 100 100 100 100 100 100 100 74 100 5 100 100 100 100 98 87 100 100 100 100 100 77 92 6 80 100 100 65 0 0 0 0
55 87 40 1 38 100 100 100 100 100 100 97 99 100 100 100 100 100 100 100 100 100 28 100 100 100 100 100 100 100 100 100 16 5 35 7 41 85 100 100 42 5 0 0
4 4 81 100 100 100 100 100 100 100 100 100 97 100 100 100 100 100 100 100 100 100 35 41 98 100 100 100 100 100 100 100 97 53 32 17 5 8 50 100 100 6 5 5
36 17 9 100 100 100 100 100 100 100 100 100 100 100 100 100 100 100 100 100 100 100 100 100 100 100 100 100 100 100 100 100 100 98 99 74 8 5 100 100 55 100 48 12
100 45 2 100 100 100 100 100 100 100 100 100 100 100 100 100 100 100 100 100 100 100 100 100 100 96 76 100 86 95 100 100 100 100 100 100 100 83 88 100 100 100 17 54
99 60 26 100 100 100 100 100 100 100 100 100 100 100 100 100 100 100 100 100 100 100 100 100 100 98 100 100 100 100 93 90 99 100 100 100 100 100 99 100 100 100 100 88
95 13 38 100 100 100 100 100 100 100 100 100 100 100 100 100 100 100 100 100 100 100 100 100 100 100 98 59 65 100 100 100 100 100 100 100 100 100 100 100 100 100 100 100
9 5 34 100 100 100 100 100 100 100 100 100 100 100 100 100 100 100 100 100 100 100 100 100 100 94 26 21 47 98 100 100 100 100 100 100 100 100 100 100 100 100 100 100
37 4 5 100 100 100 100 100 100 100 100 100 100 100 100 100 100 100 100 100 100 100 100 100 100 100 100 98 41 90 100 100 100 100 100 100 100 100 100 100 100 100 100 100
99 80 29 100 100 100 100 70 100 100 100 100 100 100 100 100 100 100 100 100 100 100 90 70 98 100 100 100 98 71 100 100 100 100 100 100 100 100 100 100 100 100 100 100
33 99 100 91 100 100 100 94 92 88 100 100 100 100 100 100 100 100 100 100 100 100 91 83 100 100 100 100 100 100 100 100 100 100 86 100 100 100 100 100 100 100 100 100
100 55 100 36 100 100 100 100 99 100 100 100 100 100 100 100 100 100 100 81 37 87 100 100 100 100 100 100 100 100 100 100 100 100 95 100 100 100 100 100 100 100 100 100
100 74 99 99 100 100 100 100 100 100 100 100 100 100 100 100 100 100 100 100 100 100 100 100 100 100 100 100 100 100 100 100 100 100 100 100 100 100 100 100 100 100 100 100
100 100 100 100 100 100 100 100 100 100 100 100 100 100 100 100 100 98 100 100 100 100 100 100 100 100 100 100 100 100 100 100 100 100 100 100 100 100 100 100 100 100 100 100
100 100 100 100 100 100 100 100 100 100 100 100 100 100 100 100 100 100 100 100 100 100 100 100 100 100 100 100 100 100 100 100 100 100 100 100 100 100 100 100 100 100 100 84

GFSCGP_prec_cloud_093.txt.gz
Cloud_Cover
89 100 100 100 52 9 5 5 5 69 100 86 3 0 5 8 5 0 0 0 0 0 89 6 100 48 5 6 27 66 100 100 100 100 100 100 100 73 75 100 70 100 100 100
11 5 5 4 5 4 4 5 12 77 100 81 5 0 4 5 5 0 0 0 0 11 100 100 100 41 100 47 66 100 100 100 100 100 100 98 100 64 98 53 68 82 100 100
65 5 5 2 1 0 2 3 35 10 65 5 5 1 5 0 0 0 0 5 3 97 100 100 100 21 100 78 100 100 100 100 100 99 80 92 92 94 93 70 100 59 92 100
100 98 72 5 5 5 5 18 6 5 5 2 1 1 57 0 0 0 0 0 14 98 100 100 100 91 100 100 97 89 100 100 100 44 39 78 61 100 92 68 100 100 100 98
100 100 100 100 100 34 33 24 5 5 2 2 3 24 50 2 0 2 4 61 100 100 100 100 100 7 100 100 90 91 100 100 100 49 10 25 44 69 35 88 100 100 100 100
100 100 100 94 100 69 5 32 5 5 49 44 59 5 5 5 5 34 100 100 100 100 100 100 100 6 100 100 97 100 100 100 100 39 9 1 29 99 80 88 100 100 100 100
99 73 84 87 69 72 9 21 48 96 100 50 5 53 3 98 32 99 100 100 100 100 100 100 100 52 100 100 100 100 100 100 100 65 24 0 29 88 64 58 100 100 100 100
100 97 100 100 100 100 99 78 88 80 83 9 5 9 48 100 47 100 98 86 58 59 40 100 100 7 100 100 100 100 100 100 100 97 28 4 93 49 47 11 95 100 100 100
100 99 99 69 100 100 96 100 91 100 100 99 8 2 96 100 94 100 56 100 21 18 100 100 100 97 100 100 92 66 99 100 100 100 36 7 100 98 0 1 2 53 86 100
100 93 86 100 99 7 11 94 100 100 100 90 7 94 100 100 100 100 5 33 100 100 97 100 100 100 100 100 100 84 35 77 100 100 75 12 87 94 63 0 0 2 4 50
100 78 99 100 19 5 48 98 100 100 100 85 79 100 100 100 100 100 5 11 51 31 100 100 100 100 100 100 100 100 100 94 100 100 100 97 7 4 7 0 0 0 0 3
100 100 100 100 78 100 92 67 100 100 100 96 100 100 100 100 100 100 100 69 8 77 100 100 100 100 96 64 100 100 100 100 100 100 100 100 50 5 5 3 0 0 0 0
100 100 100 100 78 98 84 99 100 99 100 100 100 100 100 100 100 100 100 92 62 100 53 99 100 100 99 32 82 74 100 100 100 100 100 100 90 15 5 2 5 5 2 0
100 100 100 100 89 60 76 61 100 98 100 100 100 100 100 100 100 100 100 100 94 100 100 98 100 100 81 31 100 100 100 100 100 100 100 100 100 37 27 26 5 3 17 4
100 100 100 92 49 30 5 64 90 100 100 100 100 100 100 100 100 100 100 100 100 100 100 100 100 100 100 100 100 100 100 100 100 100 100 100 100 73 39 30 17 16 56 100
100 100 96 27 5 5 2 100 100 100 100 94 100 100 100 100 100 100 100 100 100 100 100 100 100 100 100 100 100 100 100 100 100 100 100 100 100 100 100 100 100 78 70 55
100 100 82 22 5 0 0 56 100 100 100 98 100 100 100 100 100 100 100 100 100 100 100 100 100 100 100 100 100 96 100 100 100 100 100 100 100 100 100 100 100 100 100 100
100 100 100 50 12 1 7 100 100 100 100 100 100 100 100 100 100 100 100 100 100 100 100 100 100 100 100 100 100 99 100 100 100 100 100 100 100 100 100 100 100 100 100 100
100 100 20 5 5 5 100 100 100 100 100 100 100 100 100 100 100 100 100 100 100 100 100 100 100 100 100 100 100 100 100 100 100 100 100 100 100 100 100 100 100 100 100 100
51 70 50 21 6 26 100 100 100 100 100 100 100 100 100 100 100 100 100 100 100 100 100 100 100 100 100 100 100 100 100 100 100 100 100 100 100 100 100 100 100 100 100 100
42 32 71 41 100 41 100 100 100 100 100 100 100 100 100 100 100 100 100 100 100 100 100 100 100 100 100 100 100 100 100 100 100 100 100 100 100 100 100 100 100 100 100 100
100 100 97 81 96 75 100 98 36 73 100 100 100 100 100 100 100 100 100 100 100 100 100 100 100 99 100 100 100 100 100 100 100 99 57 86 100 100 100 100 100 100 100 100
34 83 99 92 11 97 100 100 96 78 100 100 100 100 100 100 100 100 100 100 100 100 100 100 100 100 100 100 100 100 100 100 100 100 100 100 100 100 100 100 100 100 100 100
82 100 100 99 100 100 100 100 100 100 100 100 100 100 100 100 100 100 100 100 100 100 100 100 100 100 100 100 100 100 100 100 100 100 90 99 100 100 100 100 100 100 100 100
100 100 100 100 100 100 100 100 100 100 100 100 100 100 100 100 100 100 100 100 100 100 100 100 100 100 100 100 100 100 100 100 100 100 100 100 98 94 100 100 100 100 100 98
100 100 100 100 100 100 100 100 100 100 100 100 100 100 100 100 100 100 98 100 100 100 100 100 100 100 100 100 100 100 100 100 100 100 100 100 100 100 99 99 100 100 100 100

GFSCGP_prec_cloud_099.txt.gz
Cloud_Cover
100 73 5 96 100 100 100 5 5 26 47 5 5 9 16 3 28 49 62 100 5 4 1 0 5 5 5 5 0 0 6 100 100 100 100 100 100 100 100 100 100 100 100 100
100 25 91 100 100 98 100 100 87 92 87 5 34 31 8 4 45 100 100 99 14 5 5 2 0 2 3 2 0 0 0 100 98 100 100 100 94 100 87 100 100 84 100 100
100 94 100 100 100 89 79 54 98 87 81 100 80 93 73 43 86 100 100 100 100 40 4 0 0 2 1 3 0 0 0 68 90 100 100 100 100 100 100 100 100 100 100 100
100 96 100 100 100 100 100 82 74 45 97 70 51 36 100 86 82 96 100 8 5 5 2 0 0 5 0 0 0 0 4 56 73 100 100 100 34 99 100 100 70 30 50 87
100 100 100 100 100 100 72 100 73 89 28 64 74 12 100 66 56 5 0 1 6 5 5 2 0 0 0 0 0 19 35 81 100 100 99 100 100 100 74 80 36 25 36 21
100 100 100 100 100 100 100 100 73 40 20 13 63 14 83 82 0 5 5 5 8 5 1 0 0 0 0 0 9 47 79 94 100 100 97 100 100 25 24 53 32 38 89 100
100 100 100 100 100 100 100 100 91 95 93 46 26 59 95 5 4 13 13 36 1 0 0 0 0 0 0 0 37 97 100 100 100 100 100 100 58 8 25 50 15 20 64 82
100 100 100 100 100 100 100 100 100 100 100 39 6 62 83 5 5 5 77 68 0 4 0 0 0 0 5 12 80 100 100 100 100 100 100 100 51 4 7 17 23 43 100 100
100 93 100 100 100 100 100 100 100 100 88 48 63 99 93 11 97 78 5 5 2 4 0 0 2 93 22 64 100 100 100 100 100 100 100 96 40 7 14 1 72 63 97 100
100 100 100 100 100 100 100 100 100 100 86 95 100 100 100 9 50 83 5 44 98 100 56 53 100 99 100 91 100 100 100 100 100 100 100 78 38 8 58 13 62 91 100 100
100 100 100 100 100 100 100 100 100 100 99 100 100 100 95 64 94 17 95 98 100 100 100 100 100 100 100 100 89 92 98 100 100 100 100 85 62 29 100 86 48 54 100 100
100 100 100 100 100 100 100 100 72 50 100 57 90 91 13 5 37 61 44 64 53 100 100 100 100 100 100 100 100 100 100 100 100 100 100 100 67 41 30 100 100 100 57 100
100 100 100 100 100 100 100 100 43 100 99 80 53 25 5 5 5 9 21 78 76 100 100 100 100 100 100 100 100 100 100 100 100 100 100 100 99 63 47 100 100 100 100 90
100 100 100 100 100 100 100 94 22 56 99 84 30 6 20 36 16 47 57 96 100 100 100 100 100 100 100 100 100 100 100 100 100 100 100 100 100 100 100 100 100 100 100 100
100 100 100 100 100 100 100 96 15 5 5 20 4 33 84 98 95 100 89 100 100 100 100 100 100 100 100 100 100 100 100 100 100 100 100 100 100 100 100 100 100 100 100 100
100 100 100 100 100 100 100 11 6 6 5 5 5 5 43 50 81 100 100 100 100 100 100 100 100 100 100 100 100 100 100 100 100 100 100 100 100 100 100 100 100 93 93 98
100 100 100 100 100 100 100 100 100 100 17 5 26 63 62 66 100 100 100 100 100 100 100 100 100 100 100 100 100 100 100 100 100 100 100 100 100 100 100 100 100 100 95 80
99 100 100 100 100 100 100 100 100 100 5 6 23 74 96 100 100 100 100 100 100 100 100 100 100 100 100 100 100 100 100 100 100 100 100 100 100 100 100 100 100 100 100 100
74 100 100 100 100 100 100 100 100 100 5 61 98 100 84 100 100 100 100 100 100 100 100 100 100 100 100 100 100 100 100 100 100 100 100 100 100 100 100 100 100 100 100 100
100 100 100 100 100 100 100 100 100 100 5 91 98 100 100 100 100 100 100 100 100 100 100 100 100 100 100 100 100 100 100 100 100 100 100 100 100 100 100 100 100 100 100 100
100 100 100 100 100 100 100 94 96 100 76 100 100 100 100 100 100 100 100 100 100 100 100 100 100 100 100 100 100 100 100 100 100 100 100 100 100 100 100 100 100 100 100 100
100 100 100 100 100 100 100 100 70 100 100 100 100 100 100 100 100 100 100 100 100 100 100 100 100 100 100 100 100 100 100 100 100 100 100 100 100 100 100 100 100 100 100 100
100 100 100 100 100 100 100 100 100 100 100 100 100 100 100 100 100 100 100 100 100 100 100 100 100 100 100 100 100 100 100 100 100 100 100 100 100 100 100 100 100 100 100 100
100 100 100 100 100 100 100 100 100 100 100 100 100 100 100 100 100 100 100 100 100 100 100 100 100 100 100 100 100 100 100 100 100 100 100 100 100 100 100 100 100 100 100 100
96 86 100 100 100 100 100 100 100 100 100 99 100 100 100 100 100 100 100 100 100 100 100 100 100 98 100 100 100 100 100 100 100 100 100 100 100 100 100 100 100 100 100 100
97 100 100 100 100 100 100 100 100 100 100 100 100 91 99 100 100 100 100 100 100 100 100 100 100 99 100 100 100 100 100 100 100 100 100 100 100 100 100 100 100 100 100 100

GFSCGP_prec_cloud_102.txt.gz
Cloud_Cover
100 100 56 100 100 100 100 100 100 6 24 100 100 100 100 100 100 100 100 100 100 65 76 5 5 4 5 5 5 5 2 5 100 100 75 93 100 100 100 75 100 88 69 36
100 19 98 100 100 100 100 99 81 44 5 13 90 100 100 95 98 100 100 100 100 42 0 4 3 5 6 46 100 14 0 0 16 0 0 5 84 100 97 100 99 73 68 59
100 95 100 100 100 100 100 100 100 98 25 27 5 40 55 79 51 47 57 5 12 76 97 100 100 100 92 77 5 5 0 0 23 0 0 35 79 81 100 100 87 100 96 90
100 100 100 100 100 100 100 100 100 100 96 100 100 36 5 8 5 5 5 7 53 85 100 23 5 17 6 5 1 4 0 2 7 5 0 8 5 20 18 94 75 100 66 88
100 100 100 100 100 100 100 100 100 100 96 53 88 83 98 98 48 26 5 61 100 100 100 94 6 5 5 4 5 1 0 5 3 18 1 0 4 5 26 51 100 100 98 81
100 100 100 100 100 100 100 100 100 100 100 57 68 20 5 84 96 6 5 48 41 42 5 18 5 5 1 5 4 0 0 5 3 40 25 2 5 3 15 21 18 78 100 98
100 100 100 100 100 100 100 100 100 97 74 100 100 91 25 28 91 5 10 36 10 5 5 5 6 5 4 5 0 0 0 0 27 100 47 45 5 5 5 7 0 18 100 100
100 100 100 100 100 100 100 100 100 79 98 100 100 100 63 6 36 19 60 83 28 18 7 5 5 5 5 0 0 0 0 0 100 100 85 63 8 15 14 51 0 14 58 99
100 100 100 100 100 100 100 100 100 98 90 100 100 100 95 6 82 100 56 67 62 5 6 74 81 6 4 0 0 0 3 84 100 100 100 84 20 30 23 52 5 38 82 84
100 100 100 100 100 100 100 100 100 100 100 100 100 100 85 97 57 14 38 27 55 9 39 99 77 3 0 0 0 70 99 84 100 100 100 92 80 50 40 26 11 69 78 60
100 100 100 100 100 100 100 100 100 100 100 100 100 100 100 98 11 23 96 94 93 67 100 100 100 59 0 3 60 100 100 100 100 100 100 90 90 89 44 27 39 63 75 59
100 100 100 100 100 100 100 100 100 100 100 100 100 100 100 100 77 78 99 100 98 31 70 100 100 100 84 25 85 100 100 100 100 100 100 99 100 99 42 26 51 99 99 42
100 100 100 100 96 98 100 100 100 100 100 100 100 100 100 89 42 43 100 100 100 24 86 100 100 100 100 100 100 100 100 100 100 100 100 100 100 83 34 100 76 100 100 100
100 100 100 100 100 100 100 100 100 100 100 100 81 59 78 72 5 16 100 100 100 27 93 100 100 100 100 100 100 100 100 100 100 100 100 100 100 99 70 100 100 100 100 100
100 100 100 100 100 100 100 100 100 100 100 98 22 11 82 69 82 98 100 100 100 96 52 100 100 100 100 100 100 100 100 100 100 100 100 100 100 100 100 100 100 100 100 100
100 100 100 100 100 100 100 100 100 100 100 84 6 90 100 72 66 100 100 100 100 100 100 100 100 100 100 100 100 100 100 100 100 100 100 100 100 100 100 100 100 100 100 100
100 100 100 100 100 100 100 94 100 100 54 93 99 99 64 98 100 100 100 100 100 100 100 100 100 100 100 100 100 100 100 100 100 100 100 100 100 100 100 100 100 100 100 100
100 78 100 100 100 99 89 68 99 32 41 75 80 96 66 88 100 100 100 100 100 100 100 100 100 100 100 100 100 100 100 100 100 100 100 100 100 100 100 100 100 100 100 100
100 100 100 100 100 100 100 100 100 100 98 98 100 100 100 100 100 95 100 100 100 100 100 100 100 100 100 100 100 100 100 100 100 100 100 100 100 100 100 100 100 100 100 100
100 100 100 100 100 100 100 100 100 100 100 100 100 100 100 100 100 100 100 100 100 100 100 100 100 100 100 100 100 100 100 100 100 100 100 100 100 100 100 100 100 100 100 100
100 100 100 100 100 100 100 100 100 100 84 100 100 100 100 100 100 100 100 100 100 100 100 100 100 100 100 100 100 100 100 100 100 100 100 100 100 100 100 100 100 100 100 100
100 100 98 100 100 100 100 92 100 100 100 100 100 100 100 100 100 100 100 100 100 100 100 100 100 100 100 100 100 100 100 100 100 100 100 100 100 100 100 100 100 100 100 100
100 99 98 94 100 100 100 100 100 100 100 100 100 100 100 100 100 100 100 100 100 100 100 100 100 100 100 100 100 100 100 100 100 100 100 100 100 100 100 100 100 100 100 100
100 100 100 100 100 100 100 100 100 100 100 100 100 100 100 88 90 98 100 100 100 100 100 100 100 100 100 100 100 100 100 100 100 100 100 100 100 100 100 100 100 100 100 100
100 99 100 100 100 100 100 100 100 100 100 100 99 96 98 83 81 99 100 100 100 100 100 100 100 100 100 100 100 100 100 100 100 100 100 100 100 100 100 100 100 100 100 100
80 100 100 100 100 100 100 100 100 99 100 87 99 97 98 82 87 90 100 100 100 100 100 100 100 100 100 100 100 100 100 100 100 100 100 100 100 100 100 100 100 100 100 100

GFSCGP_prec_cloud_105.txt.gz
Cloud_Cover
0 0 0 0 0 6 100 100 100 100 88 46 56 10 5 98 6 100 100 100 100 100 100 100 100 100 81 20 100 43 5 62 19 62 0 1 31 47 100 89 78 38 50 72
0 0 0 1 100 100 100 100 90 85 100 4 5 93 52 24 58 100 100 100 100 99 100 100 86 17 48 99 93 92 34 5 8 60 36 4 17 94 18 38 83 20 17 16
0 0 0 1 100 100 100 83 72 100 100 7 4 88 98 35 100 96 100 100 100 100 91 89 27 37 97 99 74 100 100 100 96 36 2 10 47 93 64 87 83 46 12 69
3 0 38 51 69 100 100 79 100 100 100 76 100 81 100 8 8 100 100 100 100 100 100 100 99 100 80 72 25 8 5 5 5 6 0 4 0 24 12 49 98 78 90 96
52 4 96 79 98 100 79 100 100 100 100 100 100 100 100 100 100 93 76 85 100 100 85 5 17 43 5 21 5 25 5 5 5 1 1 2 6 7 1 12 52 94 88 100
100 44 97 100 100 100 100 100 100 100 100 100 100 100 100 100 100 100 98 72 31 17 26 66 53 58 96 32 33 13 3 5 2 5 5 0 19 0 0 0 42 85 10 100
25 87 92 100 100 100 100 100 100 100 100 100 100 100 100 100 100 100 93 100 100 100 100 100 98 53 78 5 5 4 13 5 2 0 5 15 21 7 0 0 5 18 67 100
95 99 100 100 100 100 100 100 100 100 100 100 100 100 100 100 100 100 100 100 100 100 64 59 90 100 96 16 19 5 34 5 1 0 1 36 38 26 6 0 5 5 32 94
100 100 100 100 100 100 100 100 100 100 100 100 100 100 100 100 83 97 100 100 100 71 20 22 35 96 70 17 60 5 5 5 0 8 27 92 100 40 21 3 5 5 32 82
100 99 100 100 100 100 100 100 100 100 100 100 100 100 100 100 100 100 100 100 91 94 45 63 78 65 19 11 6 1 14 8 10 49 99 100 100 92 48 50 5 7 48 100
96 100 100 100 100 100 100 100 100 100 100 100 100 100 100 100 100 100 100 100 85 92 82 97 100 99 22 38 96 85 33 55 83 62 100 100 100 100 98 67 12 50 85 100
100 100 100 100 100 100 100 100 100 100 100 100 100 100 100 100 100 88 97 100 81 73 65 72 100 100 100 96 100 100 100 100 99 100 100 100 100 100 100 73 64 100 100 100
100 100 100 100 100 100 100 100 100 100 100 100 100 100 100 91 99 100 99 100 100 96 99 99 97 100 100 100 100 100 100 100 100 100 100 100 100 100 100 100 84 100 100 100
100 100 100 100 100 100 100 100 100 100 100 100 100 100 100 100 100 88 100 100 100 100 100 100 49 100 100 100 100 100 100 100 100 100 100 100 100 100 100 100 99 100 100 100
100 100 100 100 100 100 100 100 100 100 100 100 100 100 100 100 100 100 100 100 100 100 100 100 59 100 100 100 100 100 100 100 100 100 100 100 100 100 100 100 100 100 100 100
100 100 100 100 100 100 100 100 100 100 100 100 100 100 100 100 100 100 100 100 100 100 100 100 100 91 100 100 100 100 100 100 100 100 100 100 100 100 100 100 100 100 100 100
100 100 100 100 100 100 100 100 100 100 100 100 100 100 100 100 100 100 100 100 100 100 100 100 100 100 100 100 100 100 100 100 100 100 100 100 100 100 100 100 100 100 100 100
100 100 100 100 100 100 100 100 100 100 100 100 100 100 100 100 100 100 100 100 100 100 100 100 100 100 100 100 100 100 100 100 100 100 100 100 100 100 100 100 100 100 100 100
100 100 100 100 100 100 100 100 99 100 100 100 100 100 100 100 100 89 100 100 100 100 100 100 100 100 100 100 100 100 100 100 100 100 100 100 100 100 100 100 100 100 100 100
100 100 99 100 100 100 100 100 96 92 100 100 100 74 100 100 100 100 100 100 100 100 100 100 100 100 100 100 100 100 100 100 100 100 100 100 100 100 100 100 100 100 100 100
100 100 100 77 100 100 100 100 100 99 100 100 100 100 100 100 100 100 100 100 100 100 90 100 100 100 100 100 100 100 100 100 100 100 100 100 100 100 100 100 100 100 100 100
100 100 100 93 89 98 100 100 100 100 100 100 100 100 100 100 100 100 100 100 100 100 100 100 100 100 100 100 100 100 100 100 100 100 100 100 100 100 100 100 100 100 100 100
97 100 100 100 100 100 100 100 100 100 100 100 100 100 100 100 100 100 100 100 94 100 100 100 100 98 100 100 100 100 100 100 100 100 100 100 100 100 100 100 100 100 100 100
97 100 100 99 100 100 100 100 100 100 100 100 100 100 100 100 100 100 92 87 97 96 100 100 100 100 100 100 100 100 100 100 100 100 100 100 100 100 100 100 100 100 100 100
96 96 100 100 100 100 100 100 100 100 100 98 88 66 64 76 76 89 77 89 83 100 100 100 100 100 100 100 100 100 100 100 100 100 100 100 100 100 100 100 100 100 100 100
72 94 100 100 100 99 100 100 98 98 83 78 68 75 73 78 44 65 91 96 100 100 100 100 100 96 100 100 100 100 100 100 100 100 100 100 100 100 100 100 100 100 100 100

GFSCGP_prec_cloud_108.txt.gz
Cloud_Cover
5 0 0 0 0 0 6 100 100 12 70 100 85 72 5 46 96 2 0 0 53 10 87 100 100 100 100 100 100 100 100 100 100 69 5 8 5 5 31 31 5 2 37 0
18 49 0 0 0 0 5 100 98 93 86 100 100 97 100 27 5 5 3 3 17 100 96 67 40 93 100 100 100 100 100 100 100 6 5 4 29 100 9 5 4 5 5 0
74 0 0 0 0 0 6 45 100 26 100 100 100 92 89 54 71 98 68 5 5 45 100 96 77 100 100 100 100 100 100 100 100 64 5 24 58 11 11 9 1 5 3 1
38 22 88 0 0 2 95 99 100 100 100 100 100 42 5 96 99 40 8 81 74 5 42 100 100 100 99 85 100 100 100 100 100 100 14 14 5 20 8 5 53 22 1 0
2 16 100 96 9 1 7 100 100 100 100 43 100 42 60 100 94 64 15 36 5 96 59 78 98 100 100 100 100 100 100 100 100 100 100 11 25 6 5 5 8 28 5 0
1 88 97 1 100 81 100 100 100 90 100 99 4 21 5 100 100 100 79 74 63 74 74 50 83 100 100 100 100 100 81 87 33 42 59 5 4 4 5 5 12 5 26 76
1 98 44 66 98 100 100 100 84 100 100 17 2 56 36 100 100 96 52 96 100 100 100 100 100 100 100 99 56 12 5 5 6 54 23 4 5 8 5 5 34 9 1 8
39 98 62 16 25 15 5 80 100 56 34 36 99 92 99 100 100 100 52 98 100 100 100 100 100 100 100 100 100 96 64 5 16 5 5 4 5 42 6 5 59 63 3 0
100 100 100 100 20 37 84 100 100 100 100 100 100 100 100 91 100 100 92 100 100 100 100 100 100 100 100 100 100 100 99 30 28 8 71 11 3 60 6 56 5 7 4 3
100 100 100 100 100 88 100 100 100 100 100 100 100 100 100 100 100 100 92 100 100 100 100 100 100 100 100 100 100 71 40 43 5 5 13 3 0 67 72 100 0 35 3 4
100 100 100 100 100 100 100 100 100 100 100 100 100 100 100 100 100 100 100 100 70 92 100 100 93 100 100 100 100 100 62 19 11 5 11 4 0 100 100 100 53 96 1 5
100 100 100 100 100 100 100 100 100 100 100 100 100 100 100 100 100 100 100 100 33 5 69 93 77 96 100 100 100 100 91 46 26 5 8 7 88 100 100 100 78 96 2 71
100 100 100 100 100 100 100 100 100 100 100 100 100 100 100 100 100 100 100 100 100 100 100 100 91 50 100 100 100 96 100 100 100 100 84 100 100 100 100 100 100 81 100 98
100 100 100 100 100 100 100 100 100 100 100 100 100 100 100 100 100 100 100 100 100 100 100 100 100 100 100 100 100 100 100 100 100 100 100 100 100 100 100 100 99 100 100 100
100 100 100 100 100 100 100 100 100 100 100 100 100 100 100 100 100 100 100 100 100 100 100 100 100 100 100 99 100 100 100 100 100 100 100 100 100 100 100 100 100 100 100 100
100 100 100 100 100 100 100 100 100 100 100 100 100 100 100 100 100 100 100 100 100 100 100 100 100 100 100 100 100 100 100 100 100 100 100 100 100 100 100 100 100 100 100 100
100 100 100 100 100 100 100 100 100 100 100 100 100 100 100 100 100 100 100 100 100 100 100 100 100 100 100 100 100 100 100 100 100 100 100 100 100 100 100 100 100 100 100 100
100 100 100 100 100 100 100 100 100 100 100 100 100 100 100 100 100 100 100 100 100 100 100 100 100 100 100 100 100 100 100 100 100 100 100 100 100 100 100 100 100 100 100 100
100 100 100 100 100 100 100 100 100 100 100 100 100 100 100 100 100 100 100 100 100 100 100 100 100 100 100 100 100 100 100 100 100 100 100 100 100 100 100 100 100 100 100 100
100 100 100 100 100 100 100 100 100 100 100 100 100 100 100 100 100 100 100 100 100 100 97 94 85 100 100 100 100 100 100 100 100 100 100 100 100 100 100 100 100 100 100 100
100 100 100 100 100 100 100 100 100 100 100 100 100 100 100 100 100 100 100 100 100 100 100 100 100 94 100 100 100 100 100 100 100 100 100 100 100 100 100 100 100 100 100 100
100 100 100 100 100 100 100 100 100 100 100 100 100 100 100 100 100 100 100 100 98 83 87 100 99 82 100 100 100 100 100 100 100 100 100 100 100 100 100 100 100 100 100 100
100 100 100 100 100 100 100 100 100 100 100 100 100 100 100 100 100 100 100 99 94 100 100 95 82 100 100 100 100 100 100 100 100 100 100 100 100 100 100 100 100 100 100 100
100 98 100 100 100 100 100 100 100 100 100 100 100 100 100 100 100 100 93 94 100 95 83 96 88 96 100 100 100 100 100 100 100 100 100 100 100 100 100 100 100 100 100 100
100 98 98 95 100 99 100 100 100 100 84 92 100 97 78 85 93 98 100 96 99 95 98 96 99 100 100 100 100 100 100 100 100 100 100 100 100 100 100 100 100 100 100 100
100 100 100 100 100 94 100 100 100 95 67 10 63 78 30 26 81 98 97 97 100 100 100 100 100 100 100 100 100 100 100 100 100 100 100 100 100 100 100 100 100 100 100 100

GFSCGP_prec_cloud_111.txt.gz
Cloud_Cover
0 90 3 0 0 0 0 30 4 0 0 2 0 0 24 97 100 6 6 7 0 0 5 5 78 100 100 78 82 5 5 65 100 100 100 100 5 100 100 97 4 4 4 30
0 3 12 2 0 0 0 0 0 0 21 100 97 40 5 43 30 93 13 5 4 0 4 68 100 100 100 100 100 96 99 100 100 100 32 10 88 100 100 37 5 5 5 1
0 0 7 35 1 0 0 0 0 3 32 100 100 14 5 50 87 76 57 32 19 8 5 21 97 43 67 79 79 92 100 100 100 100 94 32 75 100 90 27 30 51 5 2
79 0 5 96 93 3 0 0 0 3 96 97 94 64 99 98 79 84 99 100 100 21 2 0 0 5 85 99 100 99 27 86 100 100 100 81 80 99 100 26 7 78 5 5
79 0 6 69 99 83 0 0 31 95 100 39 92 100 0 1 97 75 100 100 79 5 2 5 6 5 5 14 98 100 100 100 100 100 100 100 100 100 100 79 20 11 7 31
4 0 88 69 90 15 14 91 72 60 63 99 21 100 4 81 100 94 84 83 100 98 5 17 8 9 68 79 37 100 100 100 100 100 100 100 100 100 47 5 9 29 4 30
6 0 32 93 65 68 73 100 72 96 100 4 0 97 79 69 100 89 39 7 99 100 79 36 39 78 12 5 5 5 60 100 100 100 100 100 100 100 52 12 17 5 11 5
5 2 95 100 84 97 100 2 6 14 18 2 2 10 0 100 100 100 71 16 66 100 100 51 94 77 91 78 95 100 93 34 5 73 100 100 53 6 35 25 100 100 5 6
97 75 100 100 100 81 81 4 0 6 5 5 34 4 95 100 30 32 31 4 11 26 100 100 100 82 76 90 100 100 95 36 7 5 100 100 83 93 88 50 41 30 35 10
100 100 100 100 80 34 15 29 1 54 59 57 78 69 100 81 100 90 33 64 33 100 100 100 100 48 11 90 100 100 100 100 100 15 29 51 5 18 6 97 100 52 96 5
100 100 100 100 100 83 6 24 61 92 100 100 100 100 100 100 100 100 100 100 100 100 98 38 48 62 100 100 100 100 100 100 100 100 6 40 5 29 81 100 100 100 100 14
100 100 100 100 100 100 100 100 100 100 100 100 100 100 100 100 100 100 100 100 100 100 98 100 100 100 100 100 100 100 100 100 100 96 100 95 100 97 82 100 100 100 100 23
100 100 99 100 100 100 100 100 100 100 100 100 100 100 100 100 100 100 100 100 100 100 100 100 100 100 100 100 99 100 100 100 100 98 59 100 100 100 100 100 100 100 100 71
100 100 100 100 100 100 100 100 100 100 100 100 100 100 100 100 100 100 100 100 100 100 100 100 100 100 100 100 100 100 100 100 100 100 100 99 100 52 100 100 100 100 100 100
99 100 100 100 100 100 100 100 100 100 100 100 100 100 100 100 100 100 100 100 100 100 100 100 100 100 100 100 100 100 100 100 100 100 100 100 100 100 100 100 98 100 100 100
100 100 100 100 100 100 100 100 100 100 100 100 100 100 100 100 100 100 100 100 100 100 100 100 100 100 100 100 100 100 100 100 100 100 100 100 100 100 100 61 100 100 100 100
100 100 100 100 100 100 100 100 100 100 100 100 100 100 100 100 100 100 100 100 100 100 100 100 100 100 100 100 100 100 100 100 100 100 100 100 100 100 100 100 100 100 100 100
100 100 100 100 100 100 100 100 100 100 100 100 100 100 100 100 100 100 100 100 100 100 100 100 100 100 100 100 100 100 100 100 100 100 100 100 100 100 100 100 100 100 100 100
100 100 100 100 100 100 100 100 100 100 100 100 100 100 100 100 100 100 100 100 100 100 100 100 100 100 100 100 100 100 100 100 100 100 100 100 100 100 100 100 100 100 100 100
100 100 100 100 100 100 100 100 100 100 100 100 100 100 100 100 100 100 100 100 100 100 100 100 100 100 100 100 100 100 100 100 100 100 100 100 100 100 100 100 100 100 100 100
100 100 100 100 100 99 99 100 100 100 100 100 100 100 100 100 100 100 100 100 100 100 100 100 100 100 99 100 100 100 100 100 100 100 100 100 100 100 100 100 100 100 100 100
100 100 100 100 100 100 100 100 100 100 100 100 100 100 100 100 100 100 100 100 100 100 100 100 100 82 41 93 100 100 100 100 100 100 100 100 100 100 100 100 100 100 100 100
100 100 100 100 100 100 100 100 100 100 100 100 100 100 100 100 100 100 100 100 100 100 100 100 100 89 91 86 100 100 100 100 100 100 100 100 100 100 100 100 100 100 100 100
100 100 100 100 100 100 100 100 100 100 100 100 100 100 100 100 100 100 100 97 80 73 97 100 93 41 93 95 100 100 100 100 100 100 100 100 100 100 100 100 100 100 100 100
93 100 100 100 100 98 100 100 99 99 97 100 100 100 100 100 100 90 51 72 90 75 59 42 57 98 99 98 99 98 94 100 100 100 100 100 100 100 100 100 100 100 100 100
99 98 100 97 100 99 99 100 88 76 70 89 96 100 99 100 100 100 100 93 77 76 23 8 33 72 71 82 93 95 93 88 100 100 100 100 100 100 100 100 100 100 100 100

GFSCGP_prec_cloud_117.txt.gz
Cloud_Cover
0 0 0 0 0 0 0 5 5 2 0 0 0 0 0 0 0 0 0 0 3 100 5 100 100 100 100 78 0 0 5 64 23 77 100 100 100 83 56 99 100 100 100 100
0 0 0 0 0 0 0 0 0 0 0 0 0 0 0 0 0 0 0 0 0 75 100 100 100 100 96 4 5 0 7 9 69 100 100 100 100 100 38 54 100 100 81 68
1 0 0 0 0 2 2 0 0 3 4 5 0 0 0 0 0 0 0 0 0 0 97 100 100 97 4 2 5 3 6 94 73 100 66 92 100 62 98 100 100 100 100 100
0 0 0 0 2 15 5 0 3 30 100 46 0 0 0 0 0 0 0 0 0 0 10 100 100 81 5 5 5 5 7 96 98 90 89 99 80 84 100 100 100 100 91 91
0 0 0 0 0 4 0 0 28 100 88 5 0 2 0 11 72 100 31 5 1 0 45 86 100 100 100 26 7 88 18 59 100 100 85 80 100 100 99 95 100 100 100 92
0 0 1 0 4 5 3 0 97 100 77 70 0 0 95 66 100 100 100 93 35 70 5 5 41 100 100 100 100 100 100 68 100 100 100 97 100 100 100 100 100 100 100 100
1 0 0 0 5 4 1 7 55 32 5 23 0 6 100 100 100 100 100 100 100 100 100 96 92 69 100 100 100 100 100 100 100 100 100 100 100 100 100 100 100 100 100 100
37 8 5 5 4 1 0 54 99 97 100 94 88 100 100 100 100 100 100 100 100 100 100 100 100 100 100 100 100 100 100 100 100 100 100 100 100 100 100 100 100 100 92 76
94 88 98 71 100 87 96 100 100 100 100 100 100 100 100 100 100 100 100 100 100 100 100 100 100 100 100 100 100 100 100 100 100 100 100 100 100 100 100 100 100 100 100 100
93 100 100 100 99 100 100 68 99 100 100 100 100 100 100 100 100 100 100 100 100 100 100 100 100 100 100 100 100 100 100 100 100 100 100 100 100 99 94 97 100 100 100 100
100 99 100 99 46 43 100 93 86 100 100 100 100 100 100 100 100 100 100 100 100 100 100 100 100 100 100 100 100 100 96 100 100 100 100 100 100 84 64 89 83 100 100 90
88 100 100 79 100 100 100 6 86 100 100 100 100 100 100 100 100 100 100 100 100 100 100 100 100 100 100 100 100 100 100 100 100 100 100 100 100 100 100 100 30 36 53 56
62 100 89 100 100 100 100 69 100 100 100 100 100 100 100 100 100 100 100 100 100 100 100 95 100 100 100 100 100 100 100 100 100 100 100 100 100 100 100 100 100 92 72 65
87 100 100 100 100 100 100 100 100 100 100 100 100 100 100 100 100 100 100 100 100 100 100 100 100 100 100 100 100 100 100 100 100 100 100 100 100 100 100 100 100 100 94 98
100 100 100 100 100 100 100 100 100 100 100 100 100 100 100 100 100 100 100 100 100 100 100 100 100 100 100 100 100 100 100 99 100 100 100 100 100 100 100 100 100 100 100 100
100 100 100 100 100 100 100 100 100 100 100 100 100 100 100 100 100 100 100 100 100 100 100 100 100 100 100 100 100 100 100 100 100 100 100 100 100 100 100 100 100 100 100 100
100 100 100 100 100 100 100 100 100 100 100 100 100 100 100 100 100 100 100 100 100 100 100 100 100 100 100 100 100 100 100 100 100 100 100 100 100 100 100 100 100 100 100 100
100 100 100 100 100 100 100 100 100 100 100 100 100 100 100 100 100 100 100 100 100 100 100 100 100 100 100 100 100 100 83 92 81 74 98 100 100 100 100 99 100 100 100 100
100 100 100 100 100 100 100 100 100 100 100 100 100 100 100 100 100 100 100 100 100 100 100 100 87 100 100 89 94 100 85 52 100 100 100 97 99 100 100 99 100 100 100 100
100 100 100 100 100 100 100 100 100 100 100 100 100 100 100 100 100 100 100 100 100 100 100 100 100 100 100 96 79 100 100 100 100 100 100 100 100 100 100 100 100 100 100 100
100 100 100 100 100 100 100 100 100 100 100 100 91 81 100 100 100 100 100 100 100 100 100 100 100 100 97 84 45 94 100 100 100 100 100 100 100 100 100 100 100 100 100 100
100 100 100 100 100 100 100 100 100 100 98 100 100 100 92 82 100 100 91 94 92 49 94 86 99 81 77 78 83 87 100 97 94 100 100 100 100 81 90 97 100 100 100 100
92 100 100 100 100 99 100 100 94 94 100 100 100 100 100 100 100 100 100 100 98 66 97 100 100 100 100 99 100 98 100 98 100 100 100 100 100 100 80 92 100 100 100 100
100 100 100 100 100 100 100 98 100 98 87 82 94 100 100 100 88 91 100 65 55 74 100 100 100 100 90 80 76 99 99 100 99 100 100 100 100 100 100 100 100 100 100 99
100 100 100 100 100 100 100 100 98 100 100 100 100 100 100 100 100 100 100 100 100 100 88 20 59 74 83 84 90 92 100 97 100 100 100 100 100 100 28 90 100 100 100 100
100 100 100 100 100 100 100 100 95 99 97 100 99 56 38 9 32 60 83 64 60 52 16 25 40 48 47 28 80 94 96 88 99 100 100 100 100 99 14 8 64 97 100 100

GFSCGP_prec_cloud_120.txt.gz
Cloud_Cover
0 0 0 0 0 0 0 0 0 0 0 0 0 2 0 0 0 0 0 0 4 7 95 98 97 76 68 8 0 0 12 93 53 76 83 99 100 99 99 93 35 79 100 99
5 7 4 0 2 0 0 0 0 0 0 0 0 0 0 0 0 0 0 0 0 0 2 46 100 99 99 41 5 1 6 100 63 61 96 97 100 98 91 100 88 100 100 56
5 2 0 0 0 0 0 0 0 0 0 0 0 0 0 0 0 0 0 0 12 0 0 0 95 57 77 5 5 0 77 100 90 36 100 100 89 88 100 100 100 92 47 46
0 0 0 0 0 0 4 0 0 0 0 3 32 92 0 0 0 24 26 94 81 26 2 0 54 100 100 4 0 62 100 100 100 100 100 100 100 100 100 98 96 60 60 100
0 0 0 0 0 0 0 0 0 0 0 83 69 69 0 0 5 100 100 100 100 100 98 55 29 82 14 2 11 87 100 100 100 100 100 100 100 99 100 82 96 96 100 100
0 0 1 0 0 0 0 5 0 0 4 49 6 9 0 100 100 100 100 100 100 100 100 100 100 75 47 89 50 100 100 100 100 100 100 100 100 91 96 88 100 78 100 100
3 0 0 0 0 0 1 5 53 13 77 100 100 8 95 100 100 100 100 100 100 100 100 100 100 100 100 100 100 100 100 100 100 100 100 100 100 100 100 100 100 100 100 100
79 8 0 66 39 76 5 20 86 100 100 100 100 98 100 100 100 100 100 100 100 100 100 100 100 100 100 100 100 100 100 100 100 100 100 100 100 100 100 100 100 100 100 100
97 8 0 3 78 73 44 39 58 20 64 100 100 100 100 100 100 100 100 100 100 100 100 100 100 100 100 100 100 100 100 100 100 100 100 100 100 100 100 100 100 100 100 100
100 97 5 52 74 8 74 68 100 99 100 100 100 100 100 100 100 100 100 100 100 100 100 100 100 100 100 100 100 100 100 100 100 100 100 100 100 100 100 100 100 100 100 100
90 100 12 41 100 29 28 44 61 90 100 100 100 100 100 100 100 100 100 100 100 100 100 100 100 100 100 100 100 100 100 100 100 100 100 100 100 100 100 100 98 100 100 100
92 100 100 73 100 100 76 33 91 88 34 100 100 100 100 100 100 100 100 100 100 100 100 100 100 100 100 100 100 100 100 100 100 100 100 100 100 100 100 100 100 100 100 100
100 100 95 100 100 97 9 50 100 100 100 100 100 100 100 100 100 100 100 100 100 100 100 100 100 100 100 100 99 90 95 99 100 100 100 100 100 100 100 100 100 100 100 100
100 100 99 100 100 100 97 100 100 100 100 100 100 100 100 100 100 100 100 100 100 100 100 100 100 100 100 100 99 100 100 88 76 100 100 100 100 100 100 100 100 100 100 100
100 100 100 100 100 100 100 100 100 100 100 100 100 100 100 100 100 100 100 100 100 100 100 100 100 100 100 100 100 100 100 100 98 80 95 100 100 100 100 100 100 100 100 100
100 100 100 100 100 100 100 100 100 100 100 100 100 100 100 100 100 100 100 100 100 100 100 100 100 100 100 100 100 100 73 98 99 100 100 100 100 100 100 100 100 100 100 100
100 100 100 100 100 100 100 100 100 100 100 100 100 100 100 100 100 100 100 100 100 100 100 99 100 100 100 100 100 100 100 100 100 100 97 88 100 100 100 100 100 100 100 100
100 100 100 100 100 100 100 100 100 100 100 100 100 100 100 100 100 100 100 100 100 100 100 100 100 100 100 100 100 100 100 100 100 100 100 100 100 100 100 100 94 100 100 100
100 100 100 100 100 100 100 100 100 100 100 100 100 100 100 100 100 100 100 100 100 100 100 100 100 100 100 100 100 100 100 100 100 100 100 100 100 100 100 100 100 100 100 100
80 100 100 100 100 100 100 100 100 100 100 100 82 97 99 100 92 100 100 100 100 100 100 100 100 100 100 100 100 100 100 100 100 48 80 100 100 100 100 100 100 100 100 100
100 100 100 100 100 100 100 100 100 100 100 100 84 56 100 87 90 96 59 79 73 100 100 100 100 89 99 99 96 99 97 100 95 29 44 85 100 100 100 100 100 100 100 100
100 100 100 100 100 100 100 100 100 100 100 100 14 56 99 71 94 100 62 5 53 79 100 88 100 95 92 98 100 100 100 100 100 75 5 40 88 100 100 100 100 100 100 79
100 100 100 100 100 100 100 100 100 100 100 100 84 15 5 27 87 77 90 5 42 79 85 99 100 100 100 100 100 100 100 99 100 99 89 8 74 86 99 100 100 100 100 100
100 100 100 100 100 100 100 100 100 100 100 100 100 59 28 44 12 23 6 55 7 97 100 92 79 76 93 87 96 100 100 100 100 100 87 90 8 24 96 100 100 100 100 100
98 100 100 100 100 100 100 100 100 100 100 100 100 100 92 13 15 5 5 5 5 5 5 5 6 67 58 42 79 99 98 100 100 100 100 100 95 10 5 42 99 100 100 100
100 100 100 100 100 100 100 100 100 100 100 100 98 82 88 46 43 28 63 9 5 5 14 37 5 5 5 5 66 85 99 100 100 97 100 100 100 94 58 8 7 50 100 100

GFSCGP_prec_cloud_123.txt.gz
Cloud_Cover
0 0 0 0 0 0 5 5 5 5 5 0 0 0 0 0 0 0 0 0 0 0 0 0 11 0 0 0 0 0 36 10 53 17 13 5 8 23 92 10 38 12 43 100
0 0 0 0 0 0 0 0 0 0 0 0 0 0 0 0 0 0 0 0 0 0 0 0 0 5 0 0 0 0 29 87 71 7 4 2 9 17 92 67 81 93 100 74
0 0 0 0 0 0 0 0 0 0 0 0 0 0 0 0 0 0 26 11 23 41 15 0 0 5 0 0 4 5 6 76 100 69 81 89 72 68 91 87 100 100 76 35
0 0 0 0 0 0 0 0 0 0 3 3 1 1 0 2 4 92 100 100 100 100 100 86 40 42 61 62 53 72 5 3 64 100 100 100 58 100 100 100 100 100 100 75
3 0 0 0 0 0 3 0 0 1 5 5 89 46 5 7 35 99 100 100 100 100 100 100 100 100 100 100 100 92 62 54 85 57 100 100 100 99 100 100 100 100 100 100
5 0 0 0 0 0 0 1 0 0 5 61 11 94 100 100 100 100 100 100 100 100 100 100 100 100 100 100 100 100 98 98 100 97 99 100 100 100 100 100 100 100 100 100
3 0 0 0 0 0 4 5 0 2 92 96 85 100 100 100 100 100 100 100 100 100 100 100 100 100 100 100 100 100 100 100 98 100 100 100 100 100 100 100 100 100 100 100
5 2 0 5 1 8 2 0 8 4 5 56 100 100 100 100 100 100 100 100 100 100 100 100 100 100 100 100 100 100 100 100 100 99 100 100 100 100 100 100 100 100 100 100
99 41 0 5 5 95 97 0 62 100 77 100 100 100 100 100 100 100 100 100 100 100 100 100 100 100 100 100 100 100 100 100 100 100 100 100 100 100 100 100 100 100 100 100
67 89 1 5 8 77 25 4 62 92 91 89 100 100 100 100 100 100 100 100 100 100 100 100 100 100 100 100 100 100 100 100 100 100 100 100 100 100 100 100 100 100 100 100
27 100 10 9 59 85 100 40 45 91 24 91 100 100 100 100 100 100 100 100 100 100 100 100 100 100 100 100 100 100 100 100 100 100 100 100 100 100 100 100 100 100 100 100
42 100 99 27 8 49 9 22 38 100 100 100 100 100 100 100 100 100 100 100 100 100 100 100 100 100 100 100 100 100 100 100 100 100 100 100 100 100 100 100 100 100 100 100
98 67 64 8 47 20 78 79 100 100 100 100 100 100 100 100 100 100 100 100 100 100 100 100 100 100 100 100 100 100 100 100 100 100 100 100 100 100 100 100 100 100 100 100
98 45 94 100 100 100 100 100 100 100 100 100 100 100 100 100 100 100 100 100 100 100 100 100 100 100 100 100 100 100 100 100 100 100 100 100 100 100 100 100 100 100 100 100
92 96 100 96 100 100 100 100 100 96 100 100 100 100 100 100 100 100 100 100 100 100 100 100 100 100 100 100 100 100 98 100 100 100 100 99 100 100 100 100 100 100 100 100
66 66 100 100 100 100 100 100 100 100 100 100 100 100 100 100 100 100 100 100 100 100 100 100 100 100 100 100 100 98 97 100 99 76 100 94 99 97 100 96 100 100 100 100
51 98 96 100 100 100 100 100 100 100 100 100 100 100 100 100 100 100 100 100 100 100 100 100 100 100 100 100 100 100 100 100 100 100 100 100 98 92 100 100 100 100 100 100
9 90 97 100 100 100 100 100 100 100 100 100 100 100 100 100 100 100 100 100 100 100 100 100 100 100 100 100 100 100 100 100 100 100 100 100 100 100 95 99 100 100 100 98
24 72 100 100 100 100 100 100 100 100 100 100 100 100 100 100 100 100 100 100 100 100 100 100 100 100 100 100 100 100 100 100 100 100 100 100 100 100 100 100 100 100 100 100
5 37 100 100 100 100 100 100 100 100 100 100 100 100 100 100 100 100 100 100 100 100 100 100 100 100 100 100 100 100 100 100 100 100 100 100 100 100 100 100 100 100 100 100
14 65 95 100 100 100 100 100 100 100 100 100 100 100 100 100 100 100 100 100 100 100 100 100 100 100 100 100 100 100 100 100 100 100 100 100 100 100 100 100 100 100 100 100
5 82 99 100 100 100 100 100 100 100 100 100 29 80 67 90 99 100 100 100 100 100 100 100 100 100 100 100 100 99 100 100 100 100 100 100 99 100 100 100 100 100 100 100
15 67 100 100 100 100 100 100 100 100 100 100 100 39 41 81 99 88 90 75 91 100 100 100 100 100 100 100 100 100 100 99 99 90 100 98 80 80 99 100 100 100 100 100
85 54 100 100 90 80 100 100 100 100 100 100 100 100 98 41 71 72 40 68 72 63 28 66 38 17 76 100 100 100 100 99 99 95 100 96 99 90 87 93 100 100 100 100
41 58 97 100 100 100 100 100 100 100 100 100 100 100 100 94 98 78 59 11 84 80 75 64 11 5 55 75 97 100 100 97 85 99 97 99 100 84 49 92 96 100 100 100
30 13 95 100 100 100 100 100 100 100 100 100 100 100 100 77 87 40 51 51 18 9 16 37 38 8 5 57 77 100 99 100 96 87 100 97 100 98 55 60 86 52 98 100

GFSCGP_prec_cloud_126.txt.gz
Cloud_Cover
3 0 0 0 0 0 0 0 0 0 0 0 0 0 0 0 0 0 0 0 0 0 17 100 100 100 100 100 100 100 87 47 100 19 5 0 0 5 0 6 0 0 84 100
0 0 0 0 0 0 0 0 0 0 0 0 0 0 0 0 47 3 0 1 4 3 0 0 2 88 100 100 100 20 11 24 20 34 5 0 0 3 2 0 0 0 2 76
0 0 0 0 0 0 0 0 0 0 0 0 0 0 0 0 63 19 35 54 89 100 97 60 5 1 4 19 58 5 13 26 26 72 89 20 0 2 7 2 3 5 44 44
0 0 0 0 0 0 0 0 0 0 0 0 2 1 3 5 52 61 97 100 100 100 100 100 100 100 98 96 90 58 28 64 98 94 100 86 99 95 26 8 5 26 21 5
5 0 0 5 5 0 0 0 0 0 0 0 1 6 100 14 29 53 100 100 100 100 100 100 100 100 100 100 100 100 100 100 100 100 92 100 100 100 100 98 85 100 100 75
5 5 2 4 0 0 0 0 1 4 5 2 0 20 29 82 100 100 100 100 100 99 100 100 100 100 100 100 100 100 100 100 100 100 100 100 100 100 100 99 100 100 100 100
0 1 3 0 13 1 1 5 4 4 78 4 30 85 96 94 100 100 100 100 100 100 100 100 100 100 100 100 100 100 100 100 100 100 100 100 100 100 100 90 100 100 100 100
57 78 4 0 4 9 5 27 6 5 5 52 23 32 100 100 99 100 100 100 100 100 100 100 100 100 100 100 100 100 100 100 100 100 100 100 100 100 100 100 100 100 100 100
100 100 5 5 5 7 96 86 86 27 31 95 43 99 100 91 100 100 100 100 100 100 100 100 100 100 100 100 100 100 100 100 100 100 100 100 87 100 100 100 100 100 98 100
100 100 5 5 9 28 65 92 100 96 92 77 76 92 98 72 100 100 100 100 100 100 100 100 100 100 100 100 100 100 100 100 100 100 100 100 100 100 100 94 100 92 100 100
100 75 49 41 69 100 100 96 90 94 95 99 96 100 100 100 100 100 100 100 100 100 100 100 100 100 100 100 100 100 100 100 100 100 100 100 100 100 100 100 100 100 100 100
99 76 69 7 58 56 91 74 100 100 100 100 35 100 100 90 100 100 100 100 100 100 100 100 100 100 100 100 100 100 100 100 100 100 100 100 100 100 100 100 100 100 100 100
94 77 52 89 67 30 50 100 100 100 51 99 67 100 100 100 100 100 100 100 100 100 100 100 100 100 100 100 100 100 100 100 100 100 97 88 100 100 100 100 100 100 100 100
55 67 8 71 76 67 99 99 66 100 100 100 100 100 100 100 100 100 100 100 100 100 100 100 100 100 100 100 100 100 100 100 100 100 100 100 100 100 100 100 100 100 100 100
95 93 71 62 93 63 100 100 100 100 100 100 100 100 100 100 100 100 100 100 100 100 100 100 100 100 100 100 100 100 100 100 100 100 100 100 100 100 100 100 100 100 100 100
100 100 94 100 98 88 100 100 100 100 100 98 100 100 100 100 100 100 100 100 100 100 100 100 100 100 100 100 100 100 100 100 100 100 100 100 100 100 100 100 100 100 100 100
74 87 97 100 98 99 100 100 100 100 100 100 100 100 100 100 100 100 100 100 100 100 100 100 100 100 100 100 100 100 100 99 100 100 100 100 100 100 100 100 100 100 100 100
34 76 98 98 87 100 100 100 100 100 100 98 100 100 100 100 100 97 100 100 100 100 100 100 100 100 100 100 100 100 100 100 82 100 100 100 100 100 100 100 100 100 100 100
5 34 80 98 100 96 100 100 100 100 100 100 100 100 100 100 100 96 100 100 100 100 100 100 100 100 100 100 100 100 100 100 100 100 100 100 100 100 100 100 100 100 100 100
18 22 64 99 100 100 100 100 100 100 100 100 100 100 100 100 100 100 100 100 100 100 100 100 100 100 100 100 100 100 100 100 100 100 100 100 100 100 100 100 100 100 100 100
70 70 88 95 100 82 100 100 100 100 100 100 100 100 98 100 100 100 100 98 97 100 100 100 100 100 100 100 100 100 100 100 100 100 100 100 100 100 100 100 100 100 100 100
6 61 99 98 100 99 100 100 100 100 100 96 100 100 88 84 93 98 100 100 92 94 100 100 74 100 100 100 100 100 100 100 100 100 100 100 100 100 100 100 100 100 100 100
57 62 90 86 97 100 100 100 100 100 100 100 98 100 79 91 78 73 75 96 100 99 78 78 99 85 22 11 8 100 100 100 100 83 100 100 100 100 100 100 100 100 93 100
88 11 86 87 100 100 99 100 100 100 100 100 100 100 100 100 77 72 66 58 70 74 77 99 82 100 100 96 58 100 98 100 90 100 80 32 5 5 20 82 93 100 99 96
62 55 91 100 100 100 100 100 100 100 100 100 100 100 100 100 100 91 44 55 29 63 70 72 93 98 100 93 100 100 24 8 24 55 5 5 5 5 5 83 82 97 100 100
6 45 60 97 54 100 100 100 100 100 100 100 100 100 100 100 100 100 77 76 6 5 5 5 5 5 7 45 80 84 80 67 58 57 31 12 15 14 10 21 70 87 18 99

GFSCGP_prec_cloud_129.txt.gz
Cloud_Cover
26 5 12 5 5 5 4 0 0 0 0 0 0 0 0 0 0 0 0 0 0 0 5 0 0 0 5 5 88 100 80 100 98 100 78 100 14 100 100 100 100 5 5 89
5 49 4 5 5 1 0 0 0 0 0 0 0 0 0 0 0 0 0 3 5 3 10 10 12 2 40 31 20 95 98 100 100 100 100 100 100 100 100 100 24 5 3 4
5 3 5 0 0 0 0 0 0 0 0 0 0 0 0 1 75 4 5 5 5 18 81 92 67 80 92 84 32 12 100 100 100 100 100 100 100 69 5 3 47 94 95 93
96 33 2 4 0 0 0 0 0 0 0 0 0 0 4 0 7 4 5 8 50 87 100 100 100 100 100 100 99 99 100 72 36 31 51 100 100 44 93 98 100 100 100 100
39 63 16 5 0 0 0 0 0 0 0 0 0 25 98 0 5 5 56 71 100 100 100 100 100 100 100 100 100 100 100 100 99 60 100 81 100 99 100 100 100 100 100 100
5 5 5 0 0 0 0 1 2 1 0 0 90 10 53 55 98 92 74 93 100 100 100 100 99 98 100 100 100 100 100 100 98 93 100 90 100 100 100 100 100 100 100 100
50 6 5 4 5 3 4 13 29 11 48 30 100 19 50 100 100 100 100 100 100 100 99 100 100 99 100 100 100 100 100 100 100 93 100 100 100 100 100 100 100 100 100 100
100 44 7 5 5 7 6 54 63 5 1 9 2 26 98 62 100 99 100 100 86 92 98 100 100 100 100 100 100 100 100 100 100 100 100 100 100 100 100 100 100 100 100 100
100 50 5 5 5 5 88 58 74 45 5 55 19 75 73 90 86 100 100 87 100 100 100 100 100 100 100 100 100 100 100 100 100 100 100 100 100 100 100 100 100 100 100 100
100 100 15 5 9 87 50 86 92 94 73 56 74 50 89 57 100 100 100 98 100 100 95 100 100 100 100 100 100 100 100 100 100 100 100 99 100 100 100 100 100 100 100 100
100 100 55 62 81 99 90 50 73 95 96 87 78 70 98 100 100 100 100 100 100 100 100 100 100 100 100 100 100 100 100 100 100 100 100 100 100 100 100 100 100 100 100 100
100 100 100 90 100 88 90 92 100 100 96 100 98 82 98 100 100 100 100 100 100 100 100 100 100 100 100 100 100 100 100 100 100 100 100 100 100 100 100 100 100 100 100 100
100 100 100 100 100 99 22 86 85 100 99 7 99 100 97 100 100 100 100 100 100 100 100 100 100 100 100 100 100 100 100 100 100 100 100 100 100 100 100 100 95 89 100 100
100 100 100 100 100 11 42 81 68 81 100 91 100 100 100 100 100 100 100 100 100 100 100 100 100 100 100 100 100 100 100 100 100 100 100 100 100 100 100 81 79 82 99 100
100 100 100 100 99 78 52 62 81 87 100 96 100 100 100 100 100 100 100 100 100 100 100 100 100 100 100 100 100 100 100 100 100 100 100 100 100 69 46 87 100 100 99 100
100 100 100 100 74 100 64 21 100 94 97 100 100 100 100 100 100 99 100 100 100 100 100 100 100 100 100 100 100 100 100 100 100 100 100 100 100 100 100 100 100 100 100 100
100 100 100 98 50 100 100 60 100 89 100 100 100 100 100 100 100 100 89 100 100 100 100 100 100 100 100 100 100 100 100 100 100 100 100 100 100 100 100 100 100 100 100 100
100 100 63 100 100 99 99 75 100 100 100 100 100 100 100 100 100 93 96 100 100 100 100 100 100 100 100 100 100 100 100 100 100 100 100 100 100 100 100 100 100 100 100 100
100 93 100 92 100 95 100 91 100 100 100 100 100 100 100 100 100 100 87 100 100 100 100 100 100 100 100 100 100 100 100 100 100 100 100 100 100 100 100 100 100 100 100 100
100 76 46 98 100 100 100 84 100 100 100 100 100 100 100 100 100 100 86 96 86 100 100 100 100 100 100 100 100 100 100 100 100 100 100 100 100 100 100 100 100 100 100 100
92 100 92 94 98 99 81 98 64 96 100 100 100 100 100 100 88 100 100 92 68 44 77 96 100 100 100 100 100 100 100 100 100 100 100 100 100 100 100 100 100 100 99 100
96 99 82 98 100 99 70 93 90 99 100 100 100 100 100 100 98 72 71 100 100 80 81 63 66 99 100 100 100 100 100 100 100 100 100 100 100 100 100 100 100 94 100 100
54 9 100 36 96 98 100 100 98 100 100 100 100 100 100 100 100 59 31 49 100 100 84 100 98 91 100 100 48 100 100 100 100 100 100 100 100 100 100 100 100 100 100 100
9 5 56 72 100 100 100 100 99 100 100 100 100 100 100 100 97 100 48 12 63 61 100 91 52 84 92 83 100 61 11 50 52 96 81 82 97 100 100 99 100 100 100 100
84 33 100 98 100 99 100 100 100 100 100 100 100 100 100 100 100 100 96 65 23 8 57 58 91 98 65 70 56 71 100 96 62 30 28 16 5 5 5 12 11 71 90 96
11 40 49 73 7 66 62 100 100 100 100 100 100 100 100 100 100 100 100 100 95 5 5 9 5 32 76 71 84 74 66 63 97 100 94 85 84 41 29 8 40 91 51 45

GFSCGP_prec_cloud_132.txt.gz
Cloud_Cover
100 100 100 100 100 100 62 50 5 3 2 3 0 1 0 0 0 0 0 0 0 0 0 0 0 0 0 0 0 0 0 0 68 100 100 100 100 100 100 100 100 100 85 79
25 47 83 100 100 100 100 54 5 1 0 0 0 0 0 0 0 0 0 0 0 0 1 5 5 5 6 7 26 1 0 0 0 4 83 100 100 99 44 97 100 100 78 5
5 5 5 5 5 9 5 4 3 0 0 0 0 0 0 0 0 0 0 4 5 5 5 11 35 84 100 100 100 100 0 19 1 0 0 41 100 98 100 100 100 93 28 98
84 58 3 5 5 5 5 2 4 4 0 0 0 0 0 10 0 0 5 5 5 5 16 62 99 100 100 100 51 66 77 34 37 2 45 93 100 100 85 100 100 83 79 99
100 100 100 27 20 45 7 0 0 0 0 0 0 0 0 0 4 6 24 6 36 62 48 100 100 100 100 100 54 96 100 100 100 100 100 100 100 59 65 100 100 100 100 100
100 100 100 100 98 100 17 5 5 1 0 2 7 4 5 35 100 93 37 66 92 56 100 100 100 84 100 70 77 93 100 100 100 100 100 100 100 98 84 98 100 100 100 100
100 76 99 100 31 4 5 5 12 4 31 0 47 80 29 100 100 72 100 100 100 100 100 100 100 100 100 100 89 100 100 100 100 100 100 100 100 100 100 100 100 100 100 100
100 98 100 54 13 15 72 5 7 4 0 4 5 5 100 80 30 64 84 100 100 100 100 100 100 99 100 100 100 100 100 100 100 100 100 100 100 100 100 100 100 100 100 100
100 100 100 100 100 100 52 52 46 66 5 5 10 73 98 71 33 99 100 100 100 100 100 100 100 99 100 100 100 100 100 100 100 100 100 100 100 100 100 100 100 100 100 100
98 100 100 100 100 100 100 75 37 91 78 69 5 100 99 68 100 100 100 100 100 100 100 98 91 76 100 100 100 100 100 100 100 100 100 100 100 100 100 100 100 100 100 100
100 100 100 100 100 100 100 100 69 54 72 97 8 42 100 71 100 100 100 100 100 100 100 100 97 100 100 100 100 100 100 100 100 100 100 100 100 100 100 100 98 100 100 100
100 100 100 100 100 100 100 93 98 100 73 96 96 55 100 100 100 100 100 100 100 100 100 100 100 100 100 100 100 100 100 100 100 100 100 100 100 100 100 100 100 100 100 100
100 100 100 100 100 99 81 81 100 100 100 27 94 66 100 100 100 100 100 100 100 100 98 98 98 100 100 100 100 100 100 100 100 100 100 100 100 100 100 100 100 100 100 100
100 100 100 100 100 100 91 100 100 69 97 34 82 85 97 100 100 100 100 100 100 100 98 100 97 100 100 100 100 100 100 100 100 100 100 100 100 100 100 98 91 100 100 100
100 100 100 100 100 100 100 100 100 100 94 88 98 79 100 100 100 100 100 100 100 100 99 100 100 100 100 100 100 100 100 100 100 100 100 100 100 100 100 100 100 100 100 100
100 100 100 100 100 100 100 100 100 99 100 100 69 96 100 100 100 100 100 100 96 92 94 100 100 100 100 100 100 100 100 100 100 100 100 100 100 100 100 100 100 100 100 100
100 100 100 100 100 100 100 100 44 68 76 86 89 95 100 100 100 100 100 100 100 99 100 100 99 100 100 100 100 100 100 100 100 100 100 100 100 100 100 100 100 100 100 100
100 100 100 100 100 100 100 42 42 81 87 69 90 100 100 90 100 100 98 100 95 100 100 100 100 100 100 100 100 100 100 100 100 100 100 100 100 100 100 100 100 100 100 100
100 100 100 100 100 100 97 31 35 67 88 67 90 100 100 100 100 100 99 100 69 100 100 100 100 100 100 100 100 100 100 100 100 100 100 100 100 100 100 100 100 100 100 100
100 100 100 100 100 100 88 37 79 88 62 23 100 100 100 100 100 100 100 100 79 85 90 100 100 100 100 100 100 100 100 100 100 100 100 100 100 100 100 100 100 100 100 100
100 100 100 100 100 87 100 96 15 78 70 5 83 100 100 100 100 90 100 100 100 54 84 100 100 100 100 100 100 100 100 100 100 100 100 100 100 100 100 100 100 100 100 100
100 100 100 100 92 100 57 95 92 48 78 61 85 100 100 100 100 87 79 75 98 100 80 79 100 100 100 100 100 100 100 100 100 100 100 100 100 100 100 100 99 99 64 77
100 100 100 100 93 87 76 63 99 60 56 78 100 100 100 100 100 100 100 95 32 71 97 100 77 99 85 90 100 100 100 100 100 100 100 100 100 100 100 100 100 100 100 100
100 100 100 15 74 100 100 97 100 89 90 99 100 100 100 100 100 100 100 100 96 95 25 47 100 90 40 72 99 79 96 100 100 98 100 99 100 100 100 100 100 100 100 100
100 98 8 74 98 98 100 100 75 87 100 100 100 100 100 100 100 100 100 100 100 100 69 7 5 49 80 43 49 21 25 62 73 98 100 86 14 69 39 82 76 37 12 84
100 36 6 10 5 15 37 100 65 71 100 100 100 100 100 100 100 100 100 100 100 100 70 13 5 5 5 6 5 6 37 5 29 25 41 50 52 100 100 39 25 89 97 81

GFSCGP_prec_cloud_135.txt.gz
Cloud_Cover
5 6 46 67 92 10 7 52 100 100 100 100 100 100 100 100 100 100 100 100 11 1 0 0 0 0 0 1 5 5 5 0 0 0 0 0 0 4 5 55 100 100 100 100
66 54 57 4 5 5 6 10 94 42 70 100 76 93 75 42 26 10 0 0 0 0 0 0 3 5 4 4 5 39 5 4 0 22 18 12 2 0 34 92 100 100 100 100
26 79 100 100 81 57 15 5 4 24 19 25 8 20 0 0 0 0 0 4 4 5 5 5 5 5 5 5 70 53 34 54 10 14 81 64 20 0 0 91 92 100 100 100
66 48 98 35 100 100 100 100 90 23 5 28 43 6 0 0 3 4 5 5 5 5 5 5 5 5 5 98 98 98 100 98 100 68 40 90 78 63 12 0 100 71 57 84
58 100 97 22 99 100 100 80 100 70 5 5 67 8 0 0 5 5 5 49 100 60 7 5 26 8 35 100 100 100 100 100 100 100 59 81 100 98 73 0 100 100 83 29
100 100 70 83 100 100 100 100 100 100 100 100 100 5 3 25 58 9 57 100 92 100 16 7 66 24 90 85 100 100 100 100 94 100 100 100 100 100 78 11 44 100 100 50
91 77 92 100 100 100 100 100 100 34 3 3 47 3 71 77 47 85 100 100 100 100 100 93 80 54 62 100 100 100 100 100 100 100 100 100 100 100 100 92 100 100 100 99
21 92 100 26 82 100 100 100 100 100 22 3 4 11 100 74 15 99 100 100 100 100 100 99 77 65 73 88 100 100 100 100 100 100 100 100 100 100 100 100 100 100 100 99
97 6 93 92 86 100 100 100 100 100 82 63 97 100 100 98 18 100 100 100 100 100 65 49 21 50 93 89 100 100 100 100 100 100 100 100 100 100 100 100 99 100 100 100
100 52 100 98 100 100 100 100 100 100 60 100 100 100 64 83 55 100 100 100 100 75 21 27 98 95 83 97 100 100 100 100 100 100 100 100 100 100 100 100 98 100 100 100
99 99 100 100 100 100 100 100 100 100 100 100 100 99 98 14 96 100 100 100 100 99 45 68 100 85 100 100 100 100 100 100 100 100 100 100 100 100 100 100 100 100 100 100
100 100 91 97 100 100 100 100 100 100 100 100 99 70 89 24 83 97 100 100 100 100 81 100 100 88 100 100 100 100 100 100 100 100 100 100 100 100 100 100 100 100 100 100
100 100 100 100 100 100 100 100 100 100 100 100 100 94 73 100 72 85 100 100 97 71 84 90 93 84 98 100 100 100 100 100 100 100 100 100 100 100 100 100 100 100 100 100
100 100 100 100 100 100 100 100 100 100 100 100 100 84 100 94 100 100 100 100 97 87 8 73 71 83 100 100 100 100 100 100 100 100 100 100 100 100 100 100 93 100 100 100
100 100 100 100 100 100 100 100 100 100 94 100 98 57 82 100 100 100 100 100 100 64 46 63 62 100 99 100 100 100 100 100 100 100 100 100 100 100 100 100 100 100 100 100
100 100 100 100 100 100 100 99 26 100 100 100 100 100 97 100 100 73 100 100 100 90 100 89 99 59 100 100 100 100 100 100 100 100 100 100 100 100 100 100 100 100 100 100
100 100 100 100 92 68 100 95 93 100 100 100 80 22 86 98 86 100 100 100 100 100 100 100 98 100 80 97 90 100 100 100 100 100 100 100 100 100 100 100 100 100 100 100
100 100 100 100 80 100 100 100 100 100 100 90 67 97 29 100 88 99 100 100 100 100 100 99 83 100 96 73 61 100 97 100 100 100 100 100 100 100 100 100 100 100 100 100
100 100 100 100 100 100 100 100 100 100 100 6 100 100 95 98 100 90 100 100 100 100 100 100 100 100 100 100 100 100 100 99 99 100 100 100 100 100 100 100 100 100 100 100
100 100 100 100 100 100 100 100 100 100 100 5 11 100 100 100 100 100 100 100 100 100 100 100 100 100 100 100 100 100 100 100 100 100 100 100 100 100 100 100 100 100 100 100
100 100 100 100 100 100 100 100 100 100 6 5 5 5 76 100 100 100 100 100 100 100 100 91 93 100 100 100 100 100 100 100 100 100 100 100 100 100 100 100 100 100 100 100
100 100 100 100 100 100 100 100 100 39 5 5 5 23 99 98 100 100 100 100 100 100 100 100 77 90 96 100 100 100 100 100 100 100 100 100 100 100 100 100 100 100 100 99
100 100 100 100 100 100 100 100 59 5 11 5 80 80 90 100 100 100 100 100 100 100 100 80 100 100 74 52 100 100 100 100 100 100 100 100 100 100 100 100 100 100 100 100
100 100 100 100 100 100 100 50 32 85 5 56 100 96 100 100 100 100 100 100 100 100 100 95 62 77 80 96 84 95 99 100 100 100 100 100 100 100 100 100 100 100 100 100
100 100 100 100 100 86 65 99 98 90 5 99 100 100 100 100 100 100 100 100 100 100 100 100 100 71 33 66 67 43 79 100 97 72 78 100 100 100 100 100 100 100 100 100
100 100 100 100 23 14 5 58 100 17 26 84 90 100 100 100 100 100 100 100 100 100 100 100 100 100 100 78 10 10 5 5 15 37 15 5 20 8 24 42 90 82 67 94